Wetterdaten: Sonntag, 10.07.2016
Datum Zeit Temp. A. Feuchte A. Luftdruck Regen Wind Richtung Richtung Sonnenschein ET UV Solar Taupunkt Windchill Windben Empfang
10.07.2016 00:00 21,1 C 74 % 1016,8 hPa 0,0 l/m 0,7 km/h (0 Bft) SW 229 0 min 0,000 mm 0,0 UV-I 0 W/m 16,3 C 21,1 C 1,6 km/h (1 Bft) 97,87 %
10.07.2016 00:02 21,0 C 74 % 1016,9 hPa 0,0 l/m 0,2 km/h (0 Bft) SW 229 0 min 0,000 mm 0,0 UV-I 0 W/m 16,2 C 21,0 C 1,6 km/h (1 Bft) 95,74 %
10.07.2016 00:04 20,9 C 74 % 1016,8 hPa 0,0 l/m 0,2 km/h (0 Bft) SW 229 0 min 0,000 mm 0,0 UV-I 0 W/m 16,1 C 20,9 C 1,6 km/h (1 Bft) 97,87 %
10.07.2016 00:06 20,8 C 74 % 1016,8 hPa 0,0 l/m 0,2 km/h (0 Bft) SW 229 0 min 0,000 mm 0,0 UV-I 0 W/m 16,0 C 20,8 C 1,6 km/h (1 Bft) 95,74 %
10.07.2016 00:08 20,8 C 74 % 1016,9 hPa 0,0 l/m 0,6 km/h (0 Bft) SW 229 0 min 0,000 mm 0,0 UV-I 0 W/m 16,0 C 20,8 C 3,2 km/h (1 Bft) 97,73 %
10.07.2016 00:10 20,8 C 74 % 1016,8 hPa 0,0 l/m 1,5 km/h (1 Bft) SW 229 0 min 0,000 mm 0,0 UV-I 0 W/m 16,0 C 20,8 C 3,2 km/h (1 Bft) 97,87 %
10.07.2016 00:12 20,8 C 74 % 1016,8 hPa 0,0 l/m 2,3 km/h (1 Bft) SW 229 0 min 0,000 mm 0,0 UV-I 0 W/m 16,0 C 20,8 C 3,2 km/h (1 Bft) 97,87 %
10.07.2016 00:14 20,8 C 74 % 1016,8 hPa 0,0 l/m 3,0 km/h (1 Bft) SW 229 0 min 0,000 mm 0,0 UV-I 0 W/m 16,0 C 20,8 C 4,8 km/h (1 Bft) 97,37 %
10.07.2016 00:16 20,7 C 75 % 1016,8 hPa 0,0 l/m 2,2 km/h (1 Bft) SW 229 0 min 0,000 mm 0,0 UV-I 0 W/m 16,1 C 20,7 C 3,2 km/h (1 Bft) 97,87 %
10.07.2016 00:18 20,7 C 76 % 1016,8 hPa 0,0 l/m 2,5 km/h (1 Bft) SW 228 0 min 0,000 mm 0,0 UV-I 0 W/m 16,3 C 20,7 C 3,2 km/h (1 Bft) 100,00 %
10.07.2016 00:20 20,6 C 76 % 1016,8 hPa 0,0 l/m 3,1 km/h (1 Bft) SW 228 0 min 0,000 mm 0,0 UV-I 0 W/m 16,2 C 20,6 C 4,8 km/h (1 Bft) 100,00 %
10.07.2016 00:22 20,4 C 76 % 1016,8 hPa 0,0 l/m 2,1 km/h (1 Bft) SW 228 0 min 0,000 mm 0,0 UV-I 0 W/m 16,0 C 20,4 C 4,8 km/h (1 Bft) 100,00 %
10.07.2016 00:24 20,4 C 76 % 1016,8 hPa 0,0 l/m 1,4 km/h (1 Bft) SW 228 0 min 0,000 mm 0,0 UV-I 0 W/m 16,0 C 20,4 C 3,2 km/h (1 Bft) 100,00 %
10.07.2016 00:26 20,3 C 76 % 1016,8 hPa 0,0 l/m 2,8 km/h (1 Bft) SW 228 0 min 0,000 mm 0,0 UV-I 0 W/m 15,9 C 20,3 C 4,8 km/h (1 Bft) 100,00 %
10.07.2016 00:28 20,3 C 77 % 1016,8 hPa 0,0 l/m 2,1 km/h (1 Bft) SW 228 0 min 0,000 mm 0,0 UV-I 0 W/m 16,1 C 20,3 C 3,2 km/h (1 Bft) 100,00 %
10.07.2016 00:30 20,3 C 77 % 1016,9 hPa 0,0 l/m 2,3 km/h (1 Bft) SW 228 0 min 0,000 mm 0,0 UV-I 0 W/m 16,1 C 20,3 C 4,8 km/h (1 Bft) 100,00 %
10.07.2016 00:32 20,3 C 77 % 1016,8 hPa 0,0 l/m 2,4 km/h (1 Bft) SW 226 0 min 0,000 mm 0,0 UV-I 0 W/m 16,1 C 20,3 C 4,8 km/h (1 Bft) 100,00 %
10.07.2016 00:34 20,3 C 77 % 1016,8 hPa 0,0 l/m 3,1 km/h (1 Bft) SW 226 0 min 0,000 mm 0,0 UV-I 0 W/m 16,1 C 20,3 C 4,8 km/h (1 Bft) 100,00 %
10.07.2016 00:36 20,3 C 78 % 1016,8 hPa 0,0 l/m 2,6 km/h (1 Bft) SW 218 0 min 0,000 mm 0,0 UV-I 0 W/m 16,3 C 20,3 C 4,8 km/h (1 Bft) 98,46 %
10.07.2016 00:38 20,3 C 78 % 1016,8 hPa 0,0 l/m 3,0 km/h (1 Bft) S 186 0 min 0,000 mm 0,0 UV-I 0 W/m 16,3 C 20,3 C 4,8 km/h (1 Bft) 100,00 %
10.07.2016 00:40 20,3 C 78 % 1016,8 hPa 0,0 l/m 2,7 km/h (1 Bft) S 184 0 min 0,000 mm 0,0 UV-I 0 W/m 16,3 C 20,3 C 4,8 km/h (1 Bft) 98,11 %
10.07.2016 00:42 20,2 C 78 % 1016,8 hPa 0,0 l/m 3,5 km/h (1 Bft) S 184 0 min 0,000 mm 0,0 UV-I 0 W/m 16,2 C 20,2 C 4,8 km/h (1 Bft) 100,00 %
10.07.2016 00:44 20,2 C 78 % 1016,7 hPa 0,0 l/m 4,0 km/h (1 Bft) S 184 0 min 0,000 mm 0,0 UV-I 0 W/m 16,2 C 20,2 C 6,4 km/h (2 Bft) 97,87 %
10.07.2016 00:46 20,1 C 78 % 1016,7 hPa 0,0 l/m 4,0 km/h (1 Bft) S 183 0 min 0,000 mm 0,0 UV-I 0 W/m 16,1 C 20,1 C 6,4 km/h (2 Bft) 97,87 %
10.07.2016 00:48 20,1 C 79 % 1016,7 hPa 0,0 l/m 4,0 km/h (1 Bft) S-SW 192 0 min 0,000 mm 0,0 UV-I 0 W/m 16,3 C 20,1 C 6,4 km/h (2 Bft) 100,00 %
10.07.2016 00:50 20,0 C 79 % 1016,7 hPa 0,0 l/m 4,8 km/h (1 Bft) S 185 0 min 0,000 mm 0,0 UV-I 0 W/m 16,2 C 20,0 C 8,0 km/h (2 Bft) 95,00 %
10.07.2016 00:52 19,9 C 79 % 1016,8 hPa 0,0 l/m 5,9 km/h (2 Bft) S-SW 196 0 min 0,000 mm 0,0 UV-I 0 W/m 16,1 C 19,9 C 8,0 km/h (2 Bft) 100,00 %
10.07.2016 00:54 19,9 C 79 % 1016,8 hPa 0,0 l/m 5,7 km/h (1 Bft) S 188 0 min 0,000 mm 0,0 UV-I 0 W/m 16,1 C 19,9 C 9,7 km/h (2 Bft) 100,00 %
10.07.2016 00:56 19,8 C 79 % 1016,8 hPa 0,0 l/m 6,1 km/h (2 Bft) S-SW 192 0 min 0,000 mm 0,0 UV-I 0 W/m 16,0 C 19,8 C 9,7 km/h (2 Bft) 100,00 %
10.07.2016 00:58 19,8 C 80 % 1016,7 hPa 0,0 l/m 5,3 km/h (1 Bft) S 184 0 min 0,000 mm 0,0 UV-I 0 W/m 16,2 C 19,8 C 6,4 km/h (2 Bft) 100,00 %
10.07.2016 01:00 19,7 C 80 % 1016,7 hPa 0,0 l/m 5,2 km/h (1 Bft) S 185 0 min 0,025 mm 0,0 UV-I 0 W/m 16,1 C 19,7 C 8,0 km/h (2 Bft) 100,00 %
10.07.2016 01:02 19,7 C 80 % 1016,7 hPa 0,0 l/m 5,2 km/h (1 Bft) S 190 0 min 0,000 mm 0,0 UV-I 0 W/m 16,1 C 19,7 C 6,4 km/h (2 Bft) 100,00 %
10.07.2016 01:04 19,6 C 80 % 1016,7 hPa 0,0 l/m 5,2 km/h (1 Bft) S 179 0 min 0,000 mm 0,0 UV-I 0 W/m 16,1 C 19,6 C 8,0 km/h (2 Bft) 98,00 %
10.07.2016 01:06 19,6 C 81 % 1016,6 hPa 0,0 l/m 4,4 km/h (1 Bft) S 179 0 min 0,000 mm 0,0 UV-I 0 W/m 16,2 C 19,6 C 6,4 km/h (2 Bft) 100,00 %
10.07.2016 01:08 19,5 C 81 % 1016,6 hPa 0,0 l/m 4,1 km/h (1 Bft) S 186 0 min 0,000 mm 0,0 UV-I 0 W/m 16,1 C 19,5 C 6,4 km/h (2 Bft) 100,00 %
10.07.2016 01:10 19,5 C 80 % 1016,6 hPa 0,0 l/m 3,4 km/h (1 Bft) S 183 0 min 0,000 mm 0,0 UV-I 0 W/m 16,0 C 19,5 C 6,4 km/h (2 Bft) 100,00 %
10.07.2016 01:12 19,6 C 80 % 1016,6 hPa 0,0 l/m 5,6 km/h (1 Bft) S 189 0 min 0,000 mm 0,0 UV-I 0 W/m 16,1 C 19,6 C 8,0 km/h (2 Bft) 100,00 %
10.07.2016 01:14 19,6 C 80 % 1016,6 hPa 0,0 l/m 5,0 km/h (1 Bft) S 170 0 min 0,000 mm 0,0 UV-I 0 W/m 16,1 C 19,6 C 8,0 km/h (2 Bft) 100,00 %
10.07.2016 01:16 19,6 C 80 % 1016,6 hPa 0,0 l/m 4,4 km/h (1 Bft) S 180 0 min 0,000 mm 0,0 UV-I 0 W/m 16,1 C 19,6 C 8,0 km/h (2 Bft) 100,00 %
10.07.2016 01:18 19,6 C 80 % 1016,6 hPa 0,0 l/m 4,0 km/h (1 Bft) S 177 0 min 0,000 mm 0,0 UV-I 0 W/m 16,1 C 19,6 C 6,4 km/h (2 Bft) 98,00 %
10.07.2016 01:20 19,6 C 80 % 1016,5 hPa 0,0 l/m 3,0 km/h (1 Bft) S 182 0 min 0,000 mm 0,0 UV-I 0 W/m 16,1 C 19,6 C 4,8 km/h (1 Bft) 100,00 %
10.07.2016 01:22 19,5 C 80 % 1016,5 hPa 0,0 l/m 2,7 km/h (1 Bft) S 182 0 min 0,000 mm 0,0 UV-I 0 W/m 16,0 C 19,5 C 4,8 km/h (1 Bft) 100,00 %
10.07.2016 01:24 19,4 C 80 % 1016,5 hPa 0,0 l/m 3,1 km/h (1 Bft) S 182 0 min 0,000 mm 0,0 UV-I 0 W/m 15,9 C 19,4 C 4,8 km/h (1 Bft) 100,00 %
10.07.2016 01:26 19,3 C 81 % 1016,6 hPa 0,0 l/m 3,3 km/h (1 Bft) S 182 0 min 0,000 mm 0,0 UV-I 0 W/m 16,0 C 19,3 C 4,8 km/h (1 Bft) 100,00 %
10.07.2016 01:28 19,2 C 81 % 1016,6 hPa 0,0 l/m 4,1 km/h (1 Bft) S 182 0 min 0,000 mm 0,0 UV-I 0 W/m 15,9 C 19,2 C 4,8 km/h (1 Bft) 100,00 %
10.07.2016 01:30 19,1 C 81 % 1016,6 hPa 0,0 l/m 2,6 km/h (1 Bft) S 182 0 min 0,000 mm 0,0 UV-I 0 W/m 15,8 C 19,1 C 4,8 km/h (1 Bft) 100,00 %
10.07.2016 01:32 19,0 C 82 % 1016,5 hPa 0,0 l/m 3,4 km/h (1 Bft) S 182 0 min 0,000 mm 0,0 UV-I 0 W/m 15,9 C 19,0 C 4,8 km/h (1 Bft) 98,11 %
10.07.2016 01:34 18,9 C 82 % 1016,5 hPa 0,0 l/m 5,4 km/h (1 Bft) S 184 0 min 0,000 mm 0,0 UV-I 0 W/m 15,8 C 18,9 C 8,0 km/h (2 Bft) 100,00 %
10.07.2016 01:36 18,9 C 82 % 1016,5 hPa 0,0 l/m 4,5 km/h (1 Bft) S 174 0 min 0,000 mm 0,0 UV-I 0 W/m 15,8 C 18,9 C 8,0 km/h (2 Bft) 96,72 %
10.07.2016 01:38 18,8 C 82 % 1016,5 hPa 0,0 l/m 3,5 km/h (1 Bft) S 189 0 min 0,000 mm 0,0 UV-I 0 W/m 15,7 C 18,8 C 4,8 km/h (1 Bft) 96,00 %
10.07.2016 01:40 18,8 C 82 % 1016,5 hPa 0,0 l/m 3,6 km/h (1 Bft) S 189 0 min 0,000 mm 0,0 UV-I 0 W/m 15,7 C 18,8 C 4,8 km/h (1 Bft) 97,87 %
10.07.2016 01:42 18,8 C 82 % 1016,5 hPa 0,0 l/m 3,6 km/h (1 Bft) S 189 0 min 0,000 mm 0,0 UV-I 0 W/m 15,7 C 18,8 C 4,8 km/h (1 Bft) 94,44 %
10.07.2016 01:44 18,8 C 83 % 1016,5 hPa 0,0 l/m 4,2 km/h (1 Bft) S 189 0 min 0,000 mm 0,0 UV-I 0 W/m 15,8 C 18,8 C 6,4 km/h (2 Bft) 96,23 %
10.07.2016 01:46 18,7 C 82 % 1016,5 hPa 0,0 l/m 4,4 km/h (1 Bft) S 189 0 min 0,000 mm 0,0 UV-I 0 W/m 15,6 C 18,7 C 4,8 km/h (1 Bft) 98,00 %
10.07.2016 01:48 18,7 C 83 % 1016,5 hPa 0,0 l/m 5,1 km/h (1 Bft) S 190 0 min 0,000 mm 0,0 UV-I 0 W/m 15,8 C 18,7 C 9,7 km/h (2 Bft) 95,74 %
10.07.2016 01:50 18,7 C 83 % 1016,5 hPa 0,0 l/m 4,7 km/h (1 Bft) S 179 0 min 0,000 mm 0,0 UV-I 0 W/m 15,8 C 18,7 C 6,4 km/h (2 Bft) 95,74 %
10.07.2016 01:52 18,7 C 83 % 1016,5 hPa 0,0 l/m 5,4 km/h (1 Bft) S 175 0 min 0,000 mm 0,0 UV-I 0 W/m 15,8 C 18,7 C 8,0 km/h (2 Bft) 98,00 %
10.07.2016 01:54 18,7 C 83 % 1016,5 hPa 0,0 l/m 6,1 km/h (2 Bft) S 178 0 min 0,000 mm 0,0 UV-I 0 W/m 15,8 C 18,7 C 8,0 km/h (2 Bft) 97,37 %
10.07.2016 01:56 18,7 C 83 % 1016,5 hPa 0,0 l/m 4,6 km/h (1 Bft) S 184 0 min 0,000 mm 0,0 UV-I 0 W/m 15,8 C 18,7 C 8,0 km/h (2 Bft) 94,00 %
10.07.2016 01:58 18,7 C 83 % 1016,5 hPa 0,0 l/m 4,6 km/h (1 Bft) S 182 0 min 0,000 mm 0,0 UV-I 0 W/m 15,8 C 18,7 C 8,0 km/h (2 Bft) 95,74 %
10.07.2016 02:00 18,7 C 83 % 1016,5 hPa 0,0 l/m 4,8 km/h (1 Bft) S 182 0 min 0,026 mm 0,0 UV-I 0 W/m 15,8 C 18,7 C 6,4 km/h (2 Bft) 95,45 %
10.07.2016 02:02 18,6 C 83 % 1016,6 hPa 0,0 l/m 5,1 km/h (1 Bft) S 190 0 min 0,000 mm 0,0 UV-I 0 W/m 15,7 C 18,6 C 9,7 km/h (2 Bft) 97,37 %
10.07.2016 02:04 18,6 C 83 % 1016,5 hPa 0,0 l/m 3,9 km/h (1 Bft) S 190 0 min 0,000 mm 0,0 UV-I 0 W/m 15,7 C 18,6 C 4,8 km/h (1 Bft) 95,16 %
10.07.2016 02:06 18,5 C 83 % 1016,6 hPa 0,0 l/m 4,9 km/h (1 Bft) S-SW 195 0 min 0,000 mm 0,0 UV-I 0 W/m 15,6 C 18,5 C 6,4 km/h (2 Bft) 97,37 %
10.07.2016 02:08 18,4 C 83 % 1016,6 hPa 0,0 l/m 4,1 km/h (1 Bft) S-SW 198 0 min 0,000 mm 0,0 UV-I 0 W/m 15,5 C 18,4 C 6,4 km/h (2 Bft) 98,21 %
10.07.2016 02:10 18,3 C 84 % 1016,6 hPa 0,0 l/m 4,4 km/h (1 Bft) S-SW 199 0 min 0,000 mm 0,0 UV-I 0 W/m 15,5 C 18,3 C 6,4 km/h (2 Bft) 94,74 %
10.07.2016 02:12 18,3 C 84 % 1016,6 hPa 0,0 l/m 4,3 km/h (1 Bft) S-SW 199 0 min 0,000 mm 0,0 UV-I 0 W/m 15,5 C 18,3 C 6,4 km/h (2 Bft) 100,00 %
10.07.2016 02:14 18,3 C 84 % 1016,5 hPa 0,0 l/m 3,6 km/h (1 Bft) S-SW 199 0 min 0,000 mm 0,0 UV-I 0 W/m 15,5 C 18,3 C 4,8 km/h (1 Bft) 98,00 %
10.07.2016 02:16 18,3 C 84 % 1016,6 hPa 0,0 l/m 3,1 km/h (1 Bft) S-SW 199 0 min 0,000 mm 0,0 UV-I 0 W/m 15,5 C 18,3 C 4,8 km/h (1 Bft) 100,00 %
10.07.2016 02:18 18,3 C 84 % 1016,6 hPa 0,0 l/m 3,2 km/h (1 Bft) S-SW 199 0 min 0,000 mm 0,0 UV-I 0 W/m 15,5 C 18,3 C 4,8 km/h (1 Bft) 100,00 %
10.07.2016 02:20 18,2 C 84 % 1016,6 hPa 0,0 l/m 4,0 km/h (1 Bft) S-SW 199 0 min 0,000 mm 0,0 UV-I 0 W/m 15,4 C 18,2 C 4,8 km/h (1 Bft) 100,00 %
10.07.2016 02:22 18,2 C 84 % 1016,5 hPa 0,0 l/m 4,0 km/h (1 Bft) S-SW 199 0 min 0,000 mm 0,0 UV-I 0 W/m 15,4 C 18,2 C 4,8 km/h (1 Bft) 98,00 %
10.07.2016 02:24 18,2 C 85 % 1016,6 hPa 0,0 l/m 3,7 km/h (1 Bft) S-SW 199 0 min 0,000 mm 0,0 UV-I 0 W/m 15,6 C 18,2 C 4,8 km/h (1 Bft) 100,00 %
10.07.2016 02:26 18,1 C 85 % 1016,6 hPa 0,0 l/m 2,9 km/h (1 Bft) S-SW 199 0 min 0,000 mm 0,0 UV-I 0 W/m 15,5 C 18,1 C 4,8 km/h (1 Bft) 100,00 %
10.07.2016 02:28 18,1 C 85 % 1016,5 hPa 0,0 l/m 4,3 km/h (1 Bft) S-SW 199 0 min 0,000 mm 0,0 UV-I 0 W/m 15,5 C 18,1 C 4,8 km/h (1 Bft) 100,00 %
10.07.2016 02:30 18,1 C 85 % 1016,5 hPa 0,0 l/m 2,9 km/h (1 Bft) S-SW 199 0 min 0,000 mm 0,0 UV-I 0 W/m 15,5 C 18,1 C 4,8 km/h (1 Bft) 100,00 %
10.07.2016 02:32 18,1 C 85 % 1016,5 hPa 0,0 l/m 2,1 km/h (1 Bft) S-SW 199 0 min 0,000 mm 0,0 UV-I 0 W/m 15,5 C 18,1 C 4,8 km/h (1 Bft) 100,00 %
10.07.2016 02:34 18,1 C 85 % 1016,5 hPa 0,0 l/m 1,6 km/h (1 Bft) S-SW 199 0 min 0,000 mm 0,0 UV-I 0 W/m 15,5 C 18,1 C 3,2 km/h (1 Bft) 98,11 %
10.07.2016 02:36 18,1 C 85 % 1016,5 hPa 0,0 l/m 2,5 km/h (1 Bft) S-SW 199 0 min 0,000 mm 0,0 UV-I 0 W/m 15,5 C 18,1 C 4,8 km/h (1 Bft) 100,00 %
10.07.2016 02:38 18,1 C 85 % 1016,5 hPa 0,0 l/m 0,8 km/h (0 Bft) S-SW 199 0 min 0,000 mm 0,0 UV-I 0 W/m 15,5 C 18,1 C 3,2 km/h (1 Bft) 100,00 %
10.07.2016 02:40 17,9 C 86 % 1016,5 hPa 0,0 l/m 0,9 km/h (0 Bft) S-SW 199 0 min 0,000 mm 0,0 UV-I 0 W/m 15,5 C 17,9 C 1,6 km/h (1 Bft) 100,00 %
10.07.2016 02:42 17,8 C 87 % 1016,5 hPa 0,0 l/m 1,1 km/h (1 Bft) S-SW 199 0 min 0,000 mm 0,0 UV-I 0 W/m 15,6 C 17,8 C 1,6 km/h (1 Bft) 100,00 %
10.07.2016 02:44 17,7 C 87 % 1016,5 hPa 0,0 l/m 0,9 km/h (0 Bft) S-SW 199 0 min 0,000 mm 0,0 UV-I 0 W/m 15,5 C 17,7 C 1,6 km/h (1 Bft) 98,00 %
10.07.2016 02:46 17,7 C 87 % 1016,5 hPa 0,0 l/m 0,8 km/h (0 Bft) S-SW 199 0 min 0,000 mm 0,0 UV-I 0 W/m 15,5 C 17,7 C 1,6 km/h (1 Bft) 100,00 %
10.07.2016 02:48 17,7 C 87 % 1016,5 hPa 0,0 l/m 0,0 km/h (0 Bft) S-SW 199 0 min 0,000 mm 0,0 UV-I 0 W/m 15,5 C 17,7 C 1,6 km/h (1 Bft) 100,00 %
10.07.2016 02:50 17,6 C 87 % 1016,5 hPa 0,0 l/m 0,0 km/h (0 Bft) S-SW 199 0 min 0,000 mm 0,0 UV-I 0 W/m 15,4 C 17,6 C 0,0 km/h (0 Bft) 100,00 %
10.07.2016 02:52 17,6 C 87 % 1016,5 hPa 0,0 l/m 0,0 km/h (0 Bft) S-SW 199 0 min 0,000 mm 0,0 UV-I 0 W/m 15,4 C 17,6 C 0,0 km/h (0 Bft) 98,11 %
10.07.2016 02:54 17,6 C 87 % 1016,4 hPa 0,0 l/m 0,0 km/h (0 Bft) S-SW 199 0 min 0,000 mm 0,0 UV-I 0 W/m 15,4 C 17,6 C 0,0 km/h (0 Bft) 100,00 %
10.07.2016 02:56 17,6 C 87 % 1016,4 hPa 0,0 l/m 0,0 km/h (0 Bft) S-SW 199 0 min 0,000 mm 0,0 UV-I 0 W/m 15,4 C 17,6 C 0,0 km/h (0 Bft) 98,00 %
10.07.2016 02:58 17,6 C 87 % 1016,4 hPa 0,0 l/m 0,0 km/h (0 Bft) S-SW 199 0 min 0,000 mm 0,0 UV-I 0 W/m 15,4 C 17,6 C 0,0 km/h (0 Bft) 98,00 %
10.07.2016 03:00 17,6 C 87 % 1016,3 hPa 0,0 l/m 0,0 km/h (0 Bft) S-SW 199 0 min 0,000 mm 0,0 UV-I 0 W/m 15,4 C 17,6 C 0,0 km/h (0 Bft) 97,87 %
10.07.2016 03:02 17,6 C 87 % 1016,4 hPa 0,0 l/m 0,0 km/h (0 Bft) S-SW 199 0 min 0,000 mm 0,0 UV-I 0 W/m 15,4 C 17,6 C 0,0 km/h (0 Bft) 97,87 %
10.07.2016 03:04 17,6 C 87 % 1016,4 hPa 0,0 l/m 0,0 km/h (0 Bft) S-SW 199 0 min 0,000 mm 0,0 UV-I 0 W/m 15,4 C 17,6 C 0,0 km/h (0 Bft) 98,00 %
10.07.2016 03:06 17,4 C 88 % 1016,3 hPa 0,0 l/m 0,8 km/h (0 Bft) S-SW 199 0 min 0,000 mm 0,0 UV-I 0 W/m 15,4 C 17,4 C 1,6 km/h (1 Bft) 100,00 %
10.07.2016 03:08 17,4 C 87 % 1016,4 hPa 0,0 l/m 1,9 km/h (1 Bft) S-SW 199 0 min 0,000 mm 0,0 UV-I 0 W/m 15,2 C 17,4 C 3,2 km/h (1 Bft) 100,00 %
10.07.2016 03:10 17,4 C 87 % 1016,4 hPa 0,0 l/m 2,4 km/h (1 Bft) S-SW 199 0 min 0,000 mm 0,0 UV-I 0 W/m 15,2 C 17,4 C 3,2 km/h (1 Bft) 100,00 %
10.07.2016 03:12 17,3 C 87 % 1016,4 hPa 0,0 l/m 1,9 km/h (1 Bft) S-SW 199 0 min 0,000 mm 0,0 UV-I 0 W/m 15,1 C 17,3 C 3,2 km/h (1 Bft) 100,00 %
10.07.2016 03:14 17,3 C 87 % 1016,3 hPa 0,0 l/m 1,6 km/h (1 Bft) S-SW 199 0 min 0,000 mm 0,0 UV-I 0 W/m 15,1 C 17,3 C 3,2 km/h (1 Bft) 100,00 %
10.07.2016 03:16 17,3 C 87 % 1016,3 hPa 0,0 l/m 2,3 km/h (1 Bft) S-SW 199 0 min 0,000 mm 0,0 UV-I 0 W/m 15,1 C 17,3 C 3,2 km/h (1 Bft) 100,00 %
10.07.2016 03:18 17,3 C 87 % 1016,3 hPa 0,0 l/m 1,7 km/h (1 Bft) S-SW 199 0 min 0,000 mm 0,0 UV-I 0 W/m 15,1 C 17,3 C 3,2 km/h (1 Bft) 100,00 %
10.07.2016 03:20 17,3 C 87 % 1016,3 hPa 0,0 l/m 1,3 km/h (1 Bft) S-SW 199 0 min 0,000 mm 0,0 UV-I 0 W/m 15,1 C 17,3 C 3,2 km/h (1 Bft) 100,00 %
10.07.2016 03:22 17,3 C 88 % 1016,2 hPa 0,0 l/m 0,4 km/h (0 Bft) S-SW 199 0 min 0,000 mm 0,0 UV-I 0 W/m 15,3 C 17,3 C 1,6 km/h (1 Bft) 100,00 %
10.07.2016 03:24 17,3 C 88 % 1016,3 hPa 0,0 l/m 0,2 km/h (0 Bft) S-SW 199 0 min 0,000 mm 0,0 UV-I 0 W/m 15,3 C 17,3 C 1,6 km/h (1 Bft) 100,00 %
10.07.2016 03:26 17,2 C 88 % 1016,2 hPa 0,0 l/m 0,0 km/h (0 Bft) S-SW 199 0 min 0,000 mm 0,0 UV-I 0 W/m 15,2 C 17,2 C 0,0 km/h (0 Bft) 98,00 %
10.07.2016 03:28 17,2 C 88 % 1016,2 hPa 0,0 l/m 0,1 km/h (0 Bft) S-SW 199 0 min 0,000 mm 0,0 UV-I 0 W/m 15,2 C 17,2 C 1,6 km/h (1 Bft) 100,00 %
10.07.2016 03:30 17,2 C 88 % 1016,2 hPa 0,0 l/m 0,0 km/h (0 Bft) S-SW 199 0 min 0,000 mm 0,0 UV-I 0 W/m 15,2 C 17,2 C 0,0 km/h (0 Bft) 100,00 %
10.07.2016 03:32 17,2 C 88 % 1016,2 hPa 0,0 l/m 0,0 km/h (0 Bft) S-SW 199 0 min 0,000 mm 0,0 UV-I 0 W/m 15,2 C 17,2 C 0,0 km/h (0 Bft) 100,00 %
10.07.2016 03:34 17,2 C 88 % 1016,2 hPa 0,0 l/m 0,0 km/h (0 Bft) S-SW 199 0 min 0,000 mm 0,0 UV-I 0 W/m 15,2 C 17,2 C 0,0 km/h (0 Bft) 98,11 %
10.07.2016 03:36 17,2 C 88 % 1016,2 hPa 0,0 l/m 0,0 km/h (0 Bft) S-SW 199 0 min 0,000 mm 0,0 UV-I 0 W/m 15,2 C 17,2 C 0,0 km/h (0 Bft) 97,37 %
10.07.2016 03:38 17,2 C 88 % 1016,1 hPa 0,0 l/m 0,0 km/h (0 Bft) S-SW 199 0 min 0,000 mm 0,0 UV-I 0 W/m 15,2 C 17,2 C 0,0 km/h (0 Bft) 98,00 %
10.07.2016 03:40 17,2 C 88 % 1016,1 hPa 0,0 l/m 0,0 km/h (0 Bft) S-SW 199 0 min 0,000 mm 0,0 UV-I 0 W/m 15,2 C 17,2 C 0,0 km/h (0 Bft) 95,74 %
10.07.2016 03:42 17,2 C 88 % 1016,2 hPa 0,0 l/m 0,0 km/h (0 Bft) S-SW 199 0 min 0,000 mm 0,0 UV-I 0 W/m 15,2 C 17,2 C 0,0 km/h (0 Bft) 93,75 %
10.07.2016 03:44 17,2 C 88 % 1016,2 hPa 0,0 l/m 0,0 km/h (0 Bft) S-SW 199 0 min 0,000 mm 0,0 UV-I 0 W/m 15,2 C 17,2 C 0,0 km/h (0 Bft) 97,37 %
10.07.2016 03:46 17,2 C 88 % 1016,2 hPa 0,0 l/m 0,0 km/h (0 Bft) S-SW 199 0 min 0,000 mm 0,0 UV-I 0 W/m 15,2 C 17,2 C 0,0 km/h (0 Bft) 98,21 %
10.07.2016 03:48 17,2 C 88 % 1016,2 hPa 0,0 l/m 0,0 km/h (0 Bft) S-SW 199 0 min 0,000 mm 0,0 UV-I 0 W/m 15,2 C 17,2 C 0,0 km/h (0 Bft) 97,87 %
10.07.2016 03:50 17,2 C 88 % 1016,2 hPa 0,0 l/m 0,0 km/h (0 Bft) S-SW 199 0 min 0,000 mm 0,0 UV-I 0 W/m 15,2 C 17,2 C 0,0 km/h (0 Bft) 95,74 %
10.07.2016 03:52 17,2 C 88 % 1016,2 hPa 0,0 l/m 0,0 km/h (0 Bft) S-SW 199 0 min 0,000 mm 0,0 UV-I 0 W/m 15,2 C 17,2 C 0,0 km/h (0 Bft) 96,00 %
10.07.2016 03:54 17,2 C 88 % 1016,2 hPa 0,0 l/m 0,0 km/h (0 Bft) S-SW 199 0 min 0,000 mm 0,0 UV-I 0 W/m 15,2 C 17,2 C 0,0 km/h (0 Bft) 96,00 %
10.07.2016 03:56 17,3 C 88 % 1016,1 hPa 0,0 l/m 0,0 km/h (0 Bft) S-SW 199 0 min 0,000 mm 0,0 UV-I 0 W/m 15,3 C 17,3 C 1,6 km/h (1 Bft) 95,74 %
10.07.2016 03:58 17,3 C 88 % 1016,2 hPa 0,0 l/m 0,9 km/h (0 Bft) S-SW 199 0 min 0,000 mm 0,0 UV-I 0 W/m 15,3 C 17,3 C 1,6 km/h (1 Bft) 97,56 %
10.07.2016 04:00 17,3 C 88 % 1016,2 hPa 0,0 l/m 1,1 km/h (1 Bft) S-SW 199 0 min 0,000 mm 0,0 UV-I 0 W/m 15,3 C 17,3 C 1,6 km/h (1 Bft) 97,56 %
10.07.2016 04:02 17,3 C 88 % 1016,1 hPa 0,0 l/m 1,0 km/h (0 Bft) S-SW 199 0 min 0,000 mm 0,0 UV-I 0 W/m 15,3 C 17,3 C 1,6 km/h (1 Bft) 94,44 %
10.07.2016 04:04 17,3 C 88 % 1016,2 hPa 0,0 l/m 0,0 km/h (0 Bft) S-SW 199 0 min 0,000 mm 0,0 UV-I 0 W/m 15,3 C 17,3 C 0,0 km/h (0 Bft) 96,00 %
10.07.2016 04:06 17,3 C 88 % 1016,2 hPa 0,0 l/m 0,0 km/h (0 Bft) S-SW 199 0 min 0,000 mm 0,0 UV-I 0 W/m 15,3 C 17,3 C 0,0 km/h (0 Bft) 97,37 %
10.07.2016 04:08 17,3 C 88 % 1016,1 hPa 0,0 l/m 0,0 km/h (0 Bft) S-SW 199 0 min 0,000 mm 0,0 UV-I 0 W/m 15,3 C 17,3 C 0,0 km/h (0 Bft) 97,87 %
10.07.2016 04:10 17,2 C 88 % 1016,1 hPa 0,0 l/m 0,0 km/h (0 Bft) S-SW 199 0 min 0,000 mm 0,0 UV-I 0 W/m 15,2 C 17,2 C 0,0 km/h (0 Bft) 98,11 %
10.07.2016 04:12 17,1 C 89 % 1016,2 hPa 0,0 l/m 0,0 km/h (0 Bft) S-SW 199 0 min 0,000 mm 0,0 UV-I 0 W/m 15,3 C 17,1 C 0,0 km/h (0 Bft) 100,00 %
10.07.2016 04:14 16,9 C 89 % 1016,2 hPa 0,0 l/m 0,0 km/h (0 Bft) S-SW 199 0 min 0,000 mm 0,0 UV-I 0 W/m 15,1 C 16,9 C 0,0 km/h (0 Bft) 100,00 %
10.07.2016 04:16 16,8 C 90 % 1016,2 hPa 0,0 l/m 0,0 km/h (0 Bft) S-SW 199 0 min 0,000 mm 0,0 UV-I 0 W/m 15,1 C 16,8 C 0,0 km/h (0 Bft) 97,37 %
10.07.2016 04:18 16,9 C 90 % 1016,2 hPa 0,0 l/m 0,0 km/h (0 Bft) S-SW 199 0 min 0,000 mm 0,0 UV-I 0 W/m 15,2 C 16,9 C 0,0 km/h (0 Bft) 97,87 %
10.07.2016 04:20 17,0 C 89 % 1016,2 hPa 0,0 l/m 0,0 km/h (0 Bft) S-SW 199 0 min 0,000 mm 0,0 UV-I 0 W/m 15,2 C 17,0 C 0,0 km/h (0 Bft) 98,11 %
10.07.2016 04:22 17,1 C 89 % 1016,2 hPa 0,0 l/m 0,0 km/h (0 Bft) S-SW 199 0 min 0,000 mm 0,0 UV-I 0 W/m 15,3 C 17,1 C 0,0 km/h (0 Bft) 97,22 %
10.07.2016 04:24 17,2 C 88 % 1016,2 hPa 0,0 l/m 0,6 km/h (0 Bft) S-SW 199 0 min 0,000 mm 0,0 UV-I 0 W/m 15,2 C 17,2 C 3,2 km/h (1 Bft) 98,00 %
10.07.2016 04:26 17,1 C 88 % 1016,2 hPa 0,0 l/m 0,0 km/h (0 Bft) S-SW 199 0 min 0,000 mm 0,0 UV-I 0 W/m 15,1 C 17,1 C 0,0 km/h (0 Bft) 100,00 %
10.07.2016 04:28 17,1 C 89 % 1016,2 hPa 0,0 l/m 0,0 km/h (0 Bft) S-SW 199 0 min 0,000 mm 0,0 UV-I 0 W/m 15,3 C 17,1 C 0,0 km/h (0 Bft) 97,87 %
10.07.2016 04:30 17,1 C 89 % 1016,2 hPa 0,0 l/m 0,0 km/h (0 Bft) S-SW 199 0 min 0,000 mm 0,0 UV-I 0 W/m 15,3 C 17,1 C 0,0 km/h (0 Bft) 100,00 %
10.07.2016 04:32 17,1 C 89 % 1016,2 hPa 0,0 l/m 0,0 km/h (0 Bft) S-SW 199 0 min 0,000 mm 0,0 UV-I 0 W/m 15,3 C 17,1 C 0,0 km/h (0 Bft) 95,74 %
10.07.2016 04:34 17,1 C 89 % 1016,2 hPa 0,0 l/m 0,0 km/h (0 Bft) S-SW 199 0 min 0,000 mm 0,0 UV-I 0 W/m 15,3 C 17,1 C 0,0 km/h (0 Bft) 100,00 %
10.07.2016 04:36 17,2 C 89 % 1016,1 hPa 0,0 l/m 0,0 km/h (0 Bft) S-SW 199 0 min 0,000 mm 0,0 UV-I 0 W/m 15,4 C 17,2 C 0,0 km/h (0 Bft) 100,00 %
10.07.2016 04:38 17,2 C 89 % 1016,2 hPa 0,0 l/m 0,0 km/h (0 Bft) S-SW 199 0 min 0,000 mm 0,0 UV-I 0 W/m 15,4 C 17,2 C 0,0 km/h (0 Bft) 100,00 %
10.07.2016 04:40 17,2 C 89 % 1016,2 hPa 0,0 l/m 0,0 km/h (0 Bft) S-SW 199 0 min 0,000 mm 0,0 UV-I 0 W/m 15,4 C 17,2 C 0,0 km/h (0 Bft) 100,00 %
10.07.2016 04:42 17,2 C 89 % 1016,1 hPa 0,0 l/m 0,0 km/h (0 Bft) S-SW 199 0 min 0,000 mm 0,0 UV-I 0 W/m 15,4 C 17,2 C 0,0 km/h (0 Bft) 100,00 %
10.07.2016 04:44 17,3 C 89 % 1016,1 hPa 0,0 l/m 0,0 km/h (0 Bft) S-SW 199 0 min 0,000 mm 0,0 UV-I 0 W/m 15,5 C 17,3 C 0,0 km/h (0 Bft) 100,00 %
10.07.2016 04:46 17,3 C 89 % 1016,2 hPa 0,0 l/m 0,0 km/h (0 Bft) S-SW 199 0 min 0,000 mm 0,0 UV-I 0 W/m 15,5 C 17,3 C 0,0 km/h (0 Bft) 98,11 %
10.07.2016 04:48 17,2 C 89 % 1016,2 hPa 0,0 l/m 0,0 km/h (0 Bft) S-SW 199 0 min 0,000 mm 0,0 UV-I 0 W/m 15,4 C 17,2 C 0,0 km/h (0 Bft) 100,00 %
10.07.2016 04:50 17,2 C 89 % 1016,2 hPa 0,0 l/m 0,0 km/h (0 Bft) S-SW 199 0 min 0,000 mm 0,0 UV-I 0 W/m 15,4 C 17,2 C 0,0 km/h (0 Bft) 100,00 %
10.07.2016 04:52 17,2 C 89 % 1016,2 hPa 0,0 l/m 0,0 km/h (0 Bft) S-SW 199 0 min 0,000 mm 0,0 UV-I 0 W/m 15,4 C 17,2 C 0,0 km/h (0 Bft) 100,00 %
10.07.2016 04:54 17,2 C 89 % 1016,2 hPa 0,0 l/m 0,0 km/h (0 Bft) S-SW 199 0 min 0,000 mm 0,0 UV-I 0 W/m 15,4 C 17,2 C 0,0 km/h (0 Bft) 100,00 %
10.07.2016 04:56 17,2 C 89 % 1016,2 hPa 0,0 l/m 0,0 km/h (0 Bft) S-SW 199 0 min 0,000 mm 0,0 UV-I 0 W/m 15,4 C 17,2 C 0,0 km/h (0 Bft) 100,00 %
10.07.2016 04:58 17,2 C 89 % 1016,2 hPa 0,0 l/m 0,1 km/h (0 Bft) S-SW 199 0 min 0,000 mm 0,0 UV-I 0 W/m 15,4 C 17,2 C 1,6 km/h (1 Bft) 97,87 %
10.07.2016 05:00 17,2 C 88 % 1016,1 hPa 0,0 l/m 0,4 km/h (0 Bft) S-SW 199 0 min 0,000 mm 0,0 UV-I 0 W/m 15,2 C 17,2 C 1,6 km/h (1 Bft) 100,00 %
10.07.2016 05:02 17,3 C 89 % 1016,1 hPa 0,0 l/m 0,3 km/h (0 Bft) S-SW 199 0 min 0,000 mm 0,0 UV-I 0 W/m 15,5 C 17,3 C 1,6 km/h (1 Bft) 100,00 %
10.07.2016 05:04 17,3 C 89 % 1016,0 hPa 0,0 l/m 0,5 km/h (0 Bft) S-SW 199 0 min 0,000 mm 0,0 UV-I 0 W/m 15,5 C 17,3 C 1,6 km/h (1 Bft) 100,00 %
10.07.2016 05:06 17,3 C 89 % 1016,0 hPa 0,0 l/m 0,3 km/h (0 Bft) S-SW 199 0 min 0,000 mm 0,0 UV-I 0 W/m 15,5 C 17,3 C 1,6 km/h (1 Bft) 100,00 %
10.07.2016 05:08 17,3 C 89 % 1016,0 hPa 0,0 l/m 0,3 km/h (0 Bft) S-SW 199 0 min 0,000 mm 0,0 UV-I 0 W/m 15,5 C 17,3 C 1,6 km/h (1 Bft) 100,00 %
10.07.2016 05:10 17,3 C 88 % 1016,1 hPa 0,0 l/m 0,5 km/h (0 Bft) S-SW 199 0 min 0,000 mm 0,0 UV-I 0 W/m 15,3 C 17,3 C 1,6 km/h (1 Bft) 98,00 %
10.07.2016 05:12 17,4 C 88 % 1016,1 hPa 0,0 l/m 0,1 km/h (0 Bft) S-SW 199 0 min 0,000 mm 0,0 UV-I 0 W/m 15,4 C 17,4 C 1,6 km/h (1 Bft) 100,00 %
10.07.2016 05:14 17,4 C 88 % 1016,1 hPa 0,0 l/m 0,0 km/h (0 Bft) S-SW 199 0 min 0,000 mm 0,0 UV-I 0 W/m 15,4 C 17,4 C 0,0 km/h (0 Bft) 100,00 %
10.07.2016 05:16 17,3 C 89 % 1016,1 hPa 0,0 l/m 0,0 km/h (0 Bft) S-SW 199 0 min 0,000 mm 0,0 UV-I 0 W/m 15,5 C 17,3 C 0,0 km/h (0 Bft) 100,00 %
10.07.2016 05:18 17,2 C 89 % 1016,1 hPa 0,0 l/m 0,0 km/h (0 Bft) S-SW 199 0 min 0,000 mm 0,0 UV-I 0 W/m 15,4 C 17,2 C 0,0 km/h (0 Bft) 100,00 %
10.07.2016 05:20 17,2 C 89 % 1016,1 hPa 0,0 l/m 0,0 km/h (0 Bft) S-SW 199 0 min 0,000 mm 0,0 UV-I 1 W/m 15,4 C 17,2 C 0,0 km/h (0 Bft) 100,00 %
10.07.2016 05:22 17,2 C 89 % 1016,2 hPa 0,0 l/m 0,0 km/h (0 Bft) S-SW 199 0 min 0,000 mm 0,0 UV-I 5 W/m 15,4 C 17,2 C 0,0 km/h (0 Bft) 100,00 %
10.07.2016 05:24 17,2 C 90 % 1016,2 hPa 0,0 l/m 0,0 km/h (0 Bft) S-SW 199 0 min 0,000 mm 0,0 UV-I 5 W/m 15,5 C 17,2 C 0,0 km/h (0 Bft) 100,00 %
10.07.2016 05:26 17,2 C 89 % 1016,2 hPa 0,0 l/m 0,0 km/h (0 Bft) S-SW 199 0 min 0,000 mm 0,0 UV-I 5 W/m 15,4 C 17,2 C 0,0 km/h (0 Bft) 100,00 %
10.07.2016 05:28 17,1 C 89 % 1016,1 hPa 0,0 l/m 0,0 km/h (0 Bft) S-SW 199 0 min 0,000 mm 0,0 UV-I 5 W/m 15,3 C 17,1 C 0,0 km/h (0 Bft) 100,00 %
10.07.2016 05:30 17,1 C 89 % 1016,2 hPa 0,0 l/m 0,0 km/h (0 Bft) S-SW 199 0 min 0,000 mm 0,0 UV-I 7 W/m 15,3 C 17,1 C 0,0 km/h (0 Bft) 97,87 %
10.07.2016 05:32 17,2 C 89 % 1016,2 hPa 0,0 l/m 0,0 km/h (0 Bft) S-SW 199 0 min 0,000 mm 0,0 UV-I 7 W/m 15,4 C 17,2 C 0,0 km/h (0 Bft) 97,56 %
10.07.2016 05:34 17,2 C 89 % 1016,2 hPa 0,0 l/m 0,0 km/h (0 Bft) S-SW 199 0 min 0,000 mm 0,0 UV-I 9 W/m 15,4 C 17,2 C 1,6 km/h (1 Bft) 100,00 %
10.07.2016 05:36 17,3 C 89 % 1016,3 hPa 0,0 l/m 0,0 km/h (0 Bft) S-SW 199 0 min 0,000 mm 0,0 UV-I 9 W/m 15,5 C 17,3 C 0,0 km/h (0 Bft) 100,00 %
10.07.2016 05:38 17,3 C 89 % 1016,3 hPa 0,0 l/m 0,0 km/h (0 Bft) S-SW 199 0 min 0,000 mm 0,0 UV-I 10 W/m 15,5 C 17,3 C 0,0 km/h (0 Bft) 97,87 %
10.07.2016 05:40 17,2 C 89 % 1016,3 hPa 0,0 l/m 0,0 km/h (0 Bft) S-SW 199 0 min 0,000 mm 0,0 UV-I 11 W/m 15,4 C 17,2 C 0,0 km/h (0 Bft) 95,74 %
10.07.2016 05:42 17,2 C 89 % 1016,3 hPa 0,0 l/m 0,0 km/h (0 Bft) S-SW 199 0 min 0,000 mm 0,0 UV-I 12 W/m 15,4 C 17,2 C 0,0 km/h (0 Bft) 97,87 %
10.07.2016 05:44 17,2 C 89 % 1016,2 hPa 0,0 l/m 0,0 km/h (0 Bft) S-SW 199 0 min 0,000 mm 0,0 UV-I 14 W/m 15,4 C 17,2 C 0,0 km/h (0 Bft) 95,83 %
10.07.2016 05:46 17,2 C 89 % 1016,3 hPa 0,0 l/m 0,0 km/h (0 Bft) S-SW 199 0 min 0,000 mm 0,0 UV-I 14 W/m 15,4 C 17,2 C 0,0 km/h (0 Bft) 97,37 %
10.07.2016 05:48 17,2 C 89 % 1016,3 hPa 0,0 l/m 0,0 km/h (0 Bft) S-SW 199 0 min 0,000 mm 0,0 UV-I 14 W/m 15,4 C 17,2 C 0,0 km/h (0 Bft) 98,11 %
10.07.2016 05:50 17,2 C 89 % 1016,2 hPa 0,0 l/m 0,0 km/h (0 Bft) S-SW 199 0 min 0,000 mm 0,0 UV-I 15 W/m 15,4 C 17,2 C 0,0 km/h (0 Bft) 95,74 %
10.07.2016 05:52 17,2 C 90 % 1016,2 hPa 0,0 l/m 0,0 km/h (0 Bft) S-SW 199 0 min 0,000 mm 0,0 UV-I 17 W/m 15,5 C 17,2 C 0,0 km/h (0 Bft) 97,87 %
10.07.2016 05:54 17,1 C 90 % 1016,2 hPa 0,0 l/m 0,0 km/h (0 Bft) S-SW 199 0 min 0,000 mm 0,0 UV-I 19 W/m 15,4 C 17,1 C 0,0 km/h (0 Bft) 98,00 %
10.07.2016 05:56 17,2 C 90 % 1016,3 hPa 0,0 l/m 0,0 km/h (0 Bft) S-SW 199 0 min 0,000 mm 0,0 UV-I 22 W/m 15,5 C 17,2 C 0,0 km/h (0 Bft) 93,62 %
10.07.2016 05:58 17,2 C 90 % 1016,2 hPa 0,0 l/m 0,0 km/h (0 Bft) S-SW 199 0 min 0,000 mm 0,0 UV-I 25 W/m 15,5 C 17,2 C 0,0 km/h (0 Bft) 100,00 %
10.07.2016 06:00 17,2 C 90 % 1016,3 hPa 0,0 l/m 0,0 km/h (0 Bft) S-SW 199 0 min 0,000 mm 0,0 UV-I 26 W/m 15,5 C 17,2 C 0,0 km/h (0 Bft) 96,00 %
10.07.2016 06:02 17,3 C 90 % 1016,2 hPa 0,0 l/m 0,0 km/h (0 Bft) S-SW 199 0 min 0,000 mm 0,0 UV-I 28 W/m 15,6 C 17,3 C 0,0 km/h (0 Bft) 98,11 %
10.07.2016 06:04 17,3 C 90 % 1016,4 hPa 0,0 l/m 0,0 km/h (0 Bft) S-SW 199 0 min 0,000 mm 0,0 UV-I 30 W/m 15,6 C 17,3 C 0,0 km/h (0 Bft) 94,74 %
10.07.2016 06:06 17,3 C 90 % 1016,4 hPa 0,0 l/m 0,5 km/h (0 Bft) S-SW 199 0 min 0,000 mm 0,0 UV-I 30 W/m 15,6 C 17,3 C 1,6 km/h (1 Bft) 97,87 %
10.07.2016 06:08 17,4 C 90 % 1016,4 hPa 0,0 l/m 1,0 km/h (0 Bft) S-SW 199 0 min 0,000 mm 0,0 UV-I 31 W/m 15,7 C 17,4 C 1,6 km/h (1 Bft) 98,00 %
10.07.2016 06:10 17,4 C 90 % 1016,4 hPa 0,0 l/m 1,0 km/h (0 Bft) S-SW 199 0 min 0,000 mm 0,0 UV-I 33 W/m 15,7 C 17,4 C 1,6 km/h (1 Bft) 100,00 %
10.07.2016 06:12 17,4 C 90 % 1016,4 hPa 0,0 l/m 0,0 km/h (0 Bft) S-SW 199 0 min 0,000 mm 0,0 UV-I 35 W/m 15,7 C 17,4 C 0,0 km/h (0 Bft) 98,00 %
10.07.2016 06:14 17,4 C 89 % 1016,4 hPa 0,0 l/m 0,0 km/h (0 Bft) S-SW 199 0 min 0,000 mm 0,0 UV-I 38 W/m 15,6 C 17,4 C 0,0 km/h (0 Bft) 100,00 %
10.07.2016 06:16 17,5 C 89 % 1016,5 hPa 0,0 l/m 0,5 km/h (0 Bft) S-SW 199 0 min 0,000 mm 0,0 UV-I 39 W/m 15,7 C 17,5 C 1,6 km/h (1 Bft) 98,00 %
10.07.2016 06:18 17,6 C 89 % 1016,5 hPa 0,0 l/m 0,1 km/h (0 Bft) S-SW 199 0 min 0,000 mm 0,0 UV-I 39 W/m 15,8 C 17,6 C 1,6 km/h (1 Bft) 100,00 %
10.07.2016 06:20 17,6 C 89 % 1016,5 hPa 0,0 l/m 0,4 km/h (0 Bft) S-SW 199 0 min 0,000 mm 0,0 UV-I 39 W/m 15,8 C 17,6 C 1,6 km/h (1 Bft) 100,00 %
10.07.2016 06:22 17,6 C 90 % 1016,5 hPa 0,0 l/m 0,5 km/h (0 Bft) S-SW 199 0 min 0,000 mm 0,0 UV-I 41 W/m 15,9 C 17,6 C 1,6 km/h (1 Bft) 100,00 %
10.07.2016 06:24 17,6 C 90 % 1016,5 hPa 0,0 l/m 0,3 km/h (0 Bft) S-SW 199 0 min 0,000 mm 0,0 UV-I 44 W/m 15,9 C 17,6 C 1,6 km/h (1 Bft) 100,00 %
10.07.2016 06:26 17,4 C 91 % 1016,5 hPa 0,0 l/m 0,0 km/h (0 Bft) S-SW 199 0 min 0,000 mm 0,0 UV-I 46 W/m 15,9 C 17,4 C 0,0 km/h (0 Bft) 96,00 %
10.07.2016 06:28 17,4 C 91 % 1016,6 hPa 0,0 l/m 0,0 km/h (0 Bft) S-SW 199 0 min 0,000 mm 0,0 UV-I 46 W/m 15,9 C 17,4 C 0,0 km/h (0 Bft) 98,00 %
10.07.2016 06:30 17,4 C 91 % 1016,5 hPa 0,0 l/m 0,0 km/h (0 Bft) S-SW 199 0 min 0,000 mm 0,0 UV-I 48 W/m 15,9 C 17,4 C 1,6 km/h (1 Bft) 100,00 %
10.07.2016 06:32 17,6 C 90 % 1016,5 hPa 0,0 l/m 0,3 km/h (0 Bft) S-SW 199 0 min 0,000 mm 0,0 UV-I 49 W/m 15,9 C 17,6 C 1,6 km/h (1 Bft) 100,00 %
10.07.2016 06:34 17,7 C 89 % 1016,5 hPa 0,0 l/m 0,0 km/h (0 Bft) S-SW 199 0 min 0,000 mm 0,0 UV-I 49 W/m 15,9 C 17,7 C 1,6 km/h (1 Bft) 100,00 %
10.07.2016 06:36 17,8 C 89 % 1016,6 hPa 0,0 l/m 0,0 km/h (0 Bft) S-SW 199 0 min 0,000 mm 0,0 UV-I 50 W/m 16,0 C 17,8 C 0,0 km/h (0 Bft) 100,00 %
10.07.2016 06:38 17,8 C 90 % 1016,6 hPa 0,0 l/m 0,0 km/h (0 Bft) S-SW 199 0 min 0,000 mm 0,0 UV-I 53 W/m 16,1 C 17,8 C 0,0 km/h (0 Bft) 100,00 %
10.07.2016 06:40 17,8 C 89 % 1016,6 hPa 0,0 l/m 0,0 km/h (0 Bft) S-SW 199 0 min 0,000 mm 0,0 UV-I 57 W/m 16,0 C 17,8 C 1,6 km/h (1 Bft) 95,74 %
10.07.2016 06:42 17,8 C 90 % 1016,7 hPa 0,0 l/m 0,8 km/h (0 Bft) S-SW 199 0 min 0,000 mm 0,0 UV-I 63 W/m 16,1 C 17,8 C 1,6 km/h (1 Bft) 100,00 %
10.07.2016 06:44 17,8 C 89 % 1016,7 hPa 0,0 l/m 0,0 km/h (0 Bft) S-SW 199 0 min 0,000 mm 0,0 UV-I 69 W/m 16,0 C 17,8 C 0,0 km/h (0 Bft) 94,29 %
10.07.2016 06:46 17,8 C 88 % 1016,6 hPa 0,0 l/m 0,0 km/h (0 Bft) S-SW 199 0 min 0,000 mm 0,0 UV-I 76 W/m 15,8 C 17,8 C 0,0 km/h (0 Bft) 100,00 %
10.07.2016 06:48 17,8 C 88 % 1016,6 hPa 0,0 l/m 0,0 km/h (0 Bft) S-SW 199 0 min 0,000 mm 0,0 UV-I 83 W/m 15,8 C 17,8 C 0,0 km/h (0 Bft) 98,00 %
10.07.2016 06:50 17,9 C 88 % 1016,6 hPa 0,0 l/m 0,7 km/h (0 Bft) S-SW 199 0 min 0,000 mm 0,0 UV-I 89 W/m 15,9 C 17,9 C 1,6 km/h (1 Bft) 100,00 %
10.07.2016 06:52 17,9 C 88 % 1016,6 hPa 0,0 l/m 0,0 km/h (0 Bft) S-SW 199 0 min 0,000 mm 0,0 UV-I 91 W/m 15,9 C 17,9 C 0,0 km/h (0 Bft) 100,00 %
10.07.2016 06:54 18,0 C 89 % 1016,6 hPa 0,0 l/m 0,0 km/h (0 Bft) S-SW 199 0 min 0,000 mm 0,0 UV-I 87 W/m 16,2 C 18,0 C 0,0 km/h (0 Bft) 97,87 %
10.07.2016 06:56 18,1 C 88 % 1016,7 hPa 0,0 l/m 0,0 km/h (0 Bft) S-SW 199 0 min 0,000 mm 0,0 UV-I 83 W/m 16,1 C 18,1 C 1,6 km/h (1 Bft) 100,00 %
10.07.2016 06:58 18,1 C 89 % 1016,6 hPa 0,0 l/m 0,1 km/h (0 Bft) S-SW 199 2 min 0,000 mm 0,0 UV-I 141 W/m 16,3 C 18,1 C 1,6 km/h (1 Bft) 100,00 %
10.07.2016 07:00 18,2 C 89 % 1016,6 hPa 0,0 l/m 0,0 km/h (0 Bft) S-SW 199 2 min 0,025 mm 0,0 UV-I 159 W/m 16,4 C 18,2 C 1,6 km/h (1 Bft) 100,00 %
10.07.2016 07:02 18,2 C 88 % 1016,6 hPa 0,0 l/m 0,0 km/h (0 Bft) S-SW 199 2 min 0,000 mm 0,0 UV-I 154 W/m 16,2 C 18,2 C 0,0 km/h (0 Bft) 97,87 %
10.07.2016 07:04 18,3 C 88 % 1016,6 hPa 0,0 l/m 0,3 km/h (0 Bft) S-SW 199 2 min 0,000 mm 0,0 UV-I 148 W/m 16,3 C 18,3 C 1,6 km/h (1 Bft) 100,00 %
10.07.2016 07:06 18,4 C 88 % 1016,6 hPa 0,0 l/m 0,8 km/h (0 Bft) S-SW 199 2 min 0,000 mm 0,0 UV-I 155 W/m 16,4 C 18,4 C 1,6 km/h (1 Bft) 100,00 %
10.07.2016 07:08 18,6 C 88 % 1016,6 hPa 0,0 l/m 0,3 km/h (0 Bft) S-SW 199 2 min 0,000 mm 0,0 UV-I 162 W/m 16,6 C 18,6 C 1,6 km/h (1 Bft) 100,00 %
10.07.2016 07:10 18,7 C 87 % 1016,6 hPa 0,0 l/m 1,4 km/h (1 Bft) S-SW 199 2 min 0,000 mm 0,0 UV-I 162 W/m 16,5 C 18,7 C 3,2 km/h (1 Bft) 100,00 %
10.07.2016 07:12 18,7 C 86 % 1016,5 hPa 0,0 l/m 0,4 km/h (0 Bft) S-SW 199 2 min 0,000 mm 0,0 UV-I 165 W/m 16,3 C 18,7 C 1,6 km/h (1 Bft) 100,00 %
10.07.2016 07:14 18,8 C 86 % 1016,5 hPa 0,0 l/m 0,0 km/h (0 Bft) S-SW 199 2 min 0,000 mm 0,4 UV-I 172 W/m 16,4 C 18,8 C 1,6 km/h (1 Bft) 100,00 %
10.07.2016 07:16 18,9 C 86 % 1016,5 hPa 0,0 l/m 1,0 km/h (0 Bft) S-SW 199 2 min 0,000 mm 0,5 UV-I 176 W/m 16,5 C 18,9 C 3,2 km/h (1 Bft) 100,00 %
10.07.2016 07:18 18,9 C 85 % 1016,6 hPa 0,0 l/m 0,0 km/h (0 Bft) S-SW 199 2 min 0,000 mm 0,5 UV-I 182 W/m 16,3 C 18,9 C 0,0 km/h (0 Bft) 100,00 %
10.07.2016 07:20 19,0 C 85 % 1016,6 hPa 0,0 l/m 0,0 km/h (0 Bft) S-SW 199 2 min 0,000 mm 0,5 UV-I 189 W/m 16,4 C 19,0 C 0,0 km/h (0 Bft) 100,00 %
10.07.2016 07:22 19,1 C 85 % 1016,6 hPa 0,0 l/m 0,6 km/h (0 Bft) S-SW 199 2 min 0,000 mm 0,5 UV-I 196 W/m 16,5 C 19,1 C 1,6 km/h (1 Bft) 100,00 %
10.07.2016 07:24 19,1 C 84 % 1016,6 hPa 0,0 l/m 1,2 km/h (1 Bft) S-SW 199 2 min 0,000 mm 0,6 UV-I 204 W/m 16,3 C 19,1 C 3,2 km/h (1 Bft) 100,00 %
10.07.2016 07:26 19,1 C 84 % 1016,6 hPa 0,0 l/m 0,3 km/h (0 Bft) S-SW 199 2 min 0,000 mm 0,6 UV-I 211 W/m 16,3 C 19,1 C 1,6 km/h (1 Bft) 100,00 %
10.07.2016 07:28 19,2 C 84 % 1016,6 hPa 0,0 l/m 0,4 km/h (0 Bft) S-SW 199 2 min 0,000 mm 0,6 UV-I 214 W/m 16,4 C 19,2 C 1,6 km/h (1 Bft) 97,87 %
10.07.2016 07:30 19,3 C 83 % 1016,6 hPa 0,0 l/m 0,0 km/h (0 Bft) S-SW 199 2 min 0,000 mm 0,6 UV-I 220 W/m 16,3 C 19,3 C 0,0 km/h (0 Bft) 100,00 %
10.07.2016 07:32 19,3 C 83 % 1016,5 hPa 0,0 l/m 0,2 km/h (0 Bft) S-SW 199 2 min 0,000 mm 0,6 UV-I 220 W/m 16,3 C 19,3 C 1,6 km/h (1 Bft) 100,00 %
10.07.2016 07:34 19,4 C 82 % 1016,6 hPa 0,0 l/m 1,1 km/h (1 Bft) S-SW 197 2 min 0,000 mm 0,7 UV-I 213 W/m 16,2 C 19,4 C 3,2 km/h (1 Bft) 97,87 %
10.07.2016 07:36 19,4 C 81 % 1016,6 hPa 0,0 l/m 1,1 km/h (1 Bft) S 175 2 min 0,000 mm 0,7 UV-I 213 W/m 16,1 C 19,4 C 3,2 km/h (1 Bft) 98,00 %
10.07.2016 07:38 19,4 C 82 % 1016,6 hPa 0,0 l/m 0,0 km/h (0 Bft) S 175 2 min 0,000 mm 0,7 UV-I 227 W/m 16,2 C 19,4 C 1,6 km/h (1 Bft) 97,44 %
10.07.2016 07:40 19,5 C 81 % 1016,6 hPa 0,0 l/m 1,4 km/h (1 Bft) S 175 2 min 0,000 mm 0,8 UV-I 235 W/m 16,1 C 19,5 C 3,2 km/h (1 Bft) 96,23 %
10.07.2016 07:42 19,6 C 81 % 1016,6 hPa 0,0 l/m 0,7 km/h (0 Bft) S 175 2 min 0,000 mm 0,8 UV-I 254 W/m 16,2 C 19,6 C 3,2 km/h (1 Bft) 96,00 %
10.07.2016 07:44 19,7 C 81 % 1016,7 hPa 0,0 l/m 0,4 km/h (0 Bft) S 175 2 min 0,000 mm 0,8 UV-I 272 W/m 16,3 C 19,7 C 1,6 km/h (1 Bft) 97,37 %
10.07.2016 07:46 19,8 C 80 % 1016,7 hPa 0,0 l/m 0,3 km/h (0 Bft) S 175 2 min 0,000 mm 0,8 UV-I 278 W/m 16,2 C 19,8 C 1,6 km/h (1 Bft) 98,00 %
10.07.2016 07:48 19,9 C 79 % 1016,7 hPa 0,0 l/m 0,3 km/h (0 Bft) S 175 2 min 0,000 mm 0,9 UV-I 285 W/m 16,1 C 19,9 C 1,6 km/h (1 Bft) 97,87 %
10.07.2016 07:50 20,0 C 79 % 1016,7 hPa 0,0 l/m 2,0 km/h (1 Bft) S 175 2 min 0,000 mm 0,9 UV-I 294 W/m 16,2 C 20,0 C 4,8 km/h (1 Bft) 98,00 %
10.07.2016 07:52 20,0 C 78 % 1016,7 hPa 0,0 l/m 4,0 km/h (1 Bft) S 181 2 min 0,000 mm 0,9 UV-I 301 W/m 16,0 C 20,0 C 6,4 km/h (2 Bft) 95,74 %
10.07.2016 07:54 20,1 C 79 % 1016,6 hPa 0,0 l/m 4,4 km/h (1 Bft) S-SW 209 2 min 0,000 mm 0,9 UV-I 305 W/m 16,3 C 20,1 C 6,4 km/h (2 Bft) 97,56 %
10.07.2016 07:56 20,1 C 78 % 1016,6 hPa 0,0 l/m 3,1 km/h (1 Bft) SW 217 2 min 0,000 mm 1,0 UV-I 310 W/m 16,1 C 20,1 C 4,8 km/h (1 Bft) 98,11 %
10.07.2016 07:58 20,1 C 78 % 1016,6 hPa 0,0 l/m 1,3 km/h (1 Bft) S 189 2 min 0,000 mm 1,0 UV-I 316 W/m 16,1 C 20,1 C 3,2 km/h (1 Bft) 97,37 %
10.07.2016 08:00 20,1 C 78 % 1016,6 hPa 0,0 l/m 1,2 km/h (1 Bft) S 175 2 min 0,127 mm 1,0 UV-I 322 W/m 16,1 C 20,1 C 3,2 km/h (1 Bft) 96,00 %
10.07.2016 08:02 20,1 C 78 % 1016,6 hPa 0,0 l/m 5,2 km/h (1 Bft) S 171 2 min 0,000 mm 1,1 UV-I 328 W/m 16,1 C 20,1 C 9,7 km/h (2 Bft) 98,00 %
10.07.2016 08:04 20,2 C 77 % 1016,6 hPa 0,0 l/m 3,4 km/h (1 Bft) S-SO 167 2 min 0,000 mm 1,1 UV-I 334 W/m 16,0 C 20,2 C 9,7 km/h (2 Bft) 98,00 %
10.07.2016 08:06 20,2 C 77 % 1016,6 hPa 0,0 l/m 3,7 km/h (1 Bft) S-SW 192 2 min 0,000 mm 1,1 UV-I 338 W/m 16,0 C 20,2 C 8,0 km/h (2 Bft) 97,37 %
10.07.2016 08:08 20,2 C 77 % 1016,6 hPa 0,0 l/m 4,0 km/h (1 Bft) S 177 2 min 0,000 mm 1,2 UV-I 343 W/m 16,0 C 20,2 C 8,0 km/h (2 Bft) 100,00 %
10.07.2016 08:10 20,3 C 77 % 1016,6 hPa 0,0 l/m 1,6 km/h (1 Bft) S 175 2 min 0,000 mm 1,2 UV-I 348 W/m 16,1 C 20,3 C 4,8 km/h (1 Bft) 100,00 %
10.07.2016 08:12 20,3 C 77 % 1016,6 hPa 0,0 l/m 1,0 km/h (0 Bft) S 175 2 min 0,000 mm 1,2 UV-I 355 W/m 16,1 C 20,3 C 3,2 km/h (1 Bft) 98,11 %
10.07.2016 08:14 20,3 C 77 % 1016,6 hPa 0,0 l/m 1,0 km/h (0 Bft) S 175 2 min 0,000 mm 1,3 UV-I 359 W/m 16,1 C 20,3 C 1,6 km/h (1 Bft) 100,00 %
10.07.2016 08:16 20,6 C 78 % 1016,6 hPa 0,0 l/m 2,1 km/h (1 Bft) S-SW 200 2 min 0,000 mm 1,3 UV-I 364 W/m 16,6 C 20,6 C 4,8 km/h (1 Bft) 100,00 %
10.07.2016 08:18 20,7 C 76 % 1016,6 hPa 0,0 l/m 3,2 km/h (1 Bft) S-SW 202 2 min 0,000 mm 1,3 UV-I 369 W/m 16,3 C 20,7 C 4,8 km/h (1 Bft) 100,00 %
10.07.2016 08:20 20,8 C 77 % 1016,6 hPa 0,0 l/m 2,1 km/h (1 Bft) SW 218 2 min 0,000 mm 1,3 UV-I 374 W/m 16,6 C 20,8 C 3,2 km/h (1 Bft) 100,00 %
10.07.2016 08:22 20,8 C 77 % 1016,7 hPa 0,0 l/m 2,5 km/h (1 Bft) SW 219 2 min 0,000 mm 1,4 UV-I 378 W/m 16,6 C 20,8 C 4,8 km/h (1 Bft) 100,00 %
10.07.2016 08:24 20,9 C 76 % 1016,6 hPa 0,0 l/m 2,1 km/h (1 Bft) SW 228 2 min 0,000 mm 1,4 UV-I 384 W/m 16,5 C 20,9 C 3,2 km/h (1 Bft) 100,00 %
10.07.2016 08:26 20,8 C 75 % 1016,6 hPa 0,0 l/m 1,2 km/h (1 Bft) SW 228 2 min 0,000 mm 1,5 UV-I 390 W/m 16,2 C 20,8 C 3,2 km/h (1 Bft) 100,00 %
10.07.2016 08:28 20,9 C 75 % 1016,6 hPa 0,0 l/m 0,2 km/h (0 Bft) SW 228 2 min 0,000 mm 1,5 UV-I 396 W/m 16,3 C 20,9 C 1,6 km/h (1 Bft) 97,37 %
10.07.2016 08:30 21,0 C 75 % 1016,5 hPa 0,0 l/m 0,9 km/h (0 Bft) SW 228 2 min 0,000 mm 1,6 UV-I 402 W/m 16,4 C 21,0 C 1,6 km/h (1 Bft) 100,00 %
10.07.2016 08:32 21,0 C 75 % 1016,6 hPa 0,0 l/m 0,8 km/h (0 Bft) SW 228 2 min 0,000 mm 1,6 UV-I 408 W/m 16,4 C 21,0 C 1,6 km/h (1 Bft) 100,00 %
10.07.2016 08:34 21,1 C 75 % 1016,6 hPa 0,0 l/m 0,1 km/h (0 Bft) SW 228 2 min 0,000 mm 1,6 UV-I 413 W/m 16,5 C 21,1 C 1,6 km/h (1 Bft) 100,00 %
10.07.2016 08:36 21,1 C 76 % 1016,6 hPa 0,0 l/m 1,6 km/h (1 Bft) NW 319 2 min 0,000 mm 1,7 UV-I 418 W/m 16,7 C 21,1 C 4,8 km/h (1 Bft) 100,00 %
10.07.2016 08:38 21,2 C 76 % 1016,6 hPa 0,0 l/m 0,7 km/h (0 Bft) NW 319 2 min 0,000 mm 1,7 UV-I 423 W/m 16,8 C 21,2 C 3,2 km/h (1 Bft) 100,00 %
10.07.2016 08:40 21,3 C 76 % 1016,6 hPa 0,0 l/m 1,3 km/h (1 Bft) N-NO 26 2 min 0,000 mm 1,8 UV-I 428 W/m 16,9 C 21,3 C 4,8 km/h (1 Bft) 100,00 %
10.07.2016 08:42 21,4 C 76 % 1016,6 hPa 0,0 l/m 3,2 km/h (1 Bft) NO 39 2 min 0,000 mm 1,8 UV-I 434 W/m 17,0 C 21,4 C 6,4 km/h (2 Bft) 100,00 %
10.07.2016 08:44 21,6 C 75 % 1016,6 hPa 0,0 l/m 3,0 km/h (1 Bft) NO 40 2 min 0,000 mm 1,9 UV-I 440 W/m 17,0 C 21,6 C 6,4 km/h (2 Bft) 100,00 %
10.07.2016 08:46 21,7 C 77 % 1016,7 hPa 0,0 l/m 3,2 km/h (1 Bft) O-NO 60 2 min 0,000 mm 1,9 UV-I 446 W/m 17,5 C 21,7 C 6,4 km/h (2 Bft) 98,00 %
10.07.2016 08:48 21,8 C 76 % 1016,6 hPa 0,0 l/m 5,1 km/h (1 Bft) NO 51 2 min 0,000 mm 1,9 UV-I 451 W/m 17,4 C 21,8 C 9,7 km/h (2 Bft) 100,00 %
10.07.2016 08:50 21,8 C 76 % 1016,5 hPa 0,0 l/m 3,5 km/h (1 Bft) O-NO 59 2 min 0,000 mm 2,0 UV-I 457 W/m 17,4 C 21,8 C 6,4 km/h (2 Bft) 100,00 %
10.07.2016 08:52 21,8 C 74 % 1016,5 hPa 0,0 l/m 4,5 km/h (1 Bft) O-NO 57 2 min 0,000 mm 2,0 UV-I 462 W/m 17,0 C 21,8 C 6,4 km/h (2 Bft) 100,00 %
10.07.2016 08:54 21,9 C 76 % 1016,6 hPa 0,0 l/m 6,0 km/h (2 Bft) NO 41 2 min 0,000 mm 2,0 UV-I 467 W/m 17,5 C 21,9 C 8,0 km/h (2 Bft) 100,00 %
10.07.2016 08:56 21,9 C 75 % 1016,5 hPa 0,0 l/m 3,0 km/h (1 Bft) NO 44 2 min 0,000 mm 2,1 UV-I 471 W/m 17,3 C 21,9 C 4,8 km/h (1 Bft) 100,00 %
10.07.2016 08:58 21,9 C 76 % 1016,5 hPa 0,0 l/m 1,1 km/h (1 Bft) NO 38 2 min 0,000 mm 2,2 UV-I 474 W/m 17,5 C 21,9 C 4,8 km/h (1 Bft) 100,00 %
10.07.2016 09:00 21,9 C 74 % 1016,5 hPa 0,0 l/m 2,2 km/h (1 Bft) NO 37 2 min 0,000 mm 2,2 UV-I 475 W/m 17,0 C 21,9 C 4,8 km/h (1 Bft) 100,00 %
10.07.2016 09:02 22,1 C 75 % 1016,4 hPa 0,0 l/m 10,1 km/h (2 Bft) O-SO 120 2 min 0,254 mm 2,2 UV-I 473 W/m 17,5 C 20,9 C 17,7 km/h (3 Bft) 97,87 %
10.07.2016 09:04 22,2 C 72 % 1016,5 hPa 0,0 l/m 4,5 km/h (1 Bft) O 93 2 min 0,000 mm 2,3 UV-I 469 W/m 16,9 C 22,2 C 6,4 km/h (2 Bft) 100,00 %
10.07.2016 09:06 22,2 C 71 % 1016,5 hPa 0,0 l/m 3,1 km/h (1 Bft) O 80 2 min 0,000 mm 2,3 UV-I 466 W/m 16,7 C 22,2 C 4,8 km/h (1 Bft) 100,00 %
10.07.2016 09:08 22,2 C 71 % 1016,5 hPa 0,0 l/m 4,1 km/h (1 Bft) NO 50 2 min 0,000 mm 2,4 UV-I 459 W/m 16,7 C 22,2 C 6,4 km/h (2 Bft) 100,00 %
10.07.2016 09:10 22,3 C 71 % 1016,4 hPa 0,0 l/m 7,3 km/h (2 Bft) O-SO 104 2 min 0,000 mm 2,4 UV-I 454 W/m 16,8 C 22,0 C 11,3 km/h (2 Bft) 98,00 %
10.07.2016 09:12 22,4 C 69 % 1016,5 hPa 0,0 l/m 3,3 km/h (1 Bft) O-SO 110 2 min 0,000 mm 2,5 UV-I 446 W/m 16,4 C 22,4 C 6,4 km/h (2 Bft) 97,37 %
10.07.2016 09:14 22,4 C 68 % 1016,4 hPa 0,0 l/m 2,3 km/h (1 Bft) O-SO 105 2 min 0,000 mm 2,5 UV-I 439 W/m 16,2 C 22,4 C 4,8 km/h (1 Bft) 98,11 %
10.07.2016 09:16 22,4 C 72 % 1016,4 hPa 0,0 l/m 3,5 km/h (1 Bft) O 96 2 min 0,000 mm 2,6 UV-I 436 W/m 17,1 C 22,4 C 9,7 km/h (2 Bft) 100,00 %
10.07.2016 09:18 22,6 C 71 % 1016,4 hPa 0,0 l/m 5,5 km/h (1 Bft) O-NO 78 2 min 0,000 mm 2,6 UV-I 430 W/m 17,1 C 22,6 C 8,0 km/h (2 Bft) 100,00 %
10.07.2016 09:20 22,6 C 71 % 1016,4 hPa 0,0 l/m 4,9 km/h (1 Bft) S-SO 151 2 min 0,000 mm 2,7 UV-I 426 W/m 17,1 C 22,6 C 9,7 km/h (2 Bft) 100,00 %
10.07.2016 09:22 22,6 C 71 % 1016,4 hPa 0,0 l/m 2,9 km/h (1 Bft) O 89 2 min 0,000 mm 2,7 UV-I 425 W/m 17,1 C 22,6 C 6,4 km/h (2 Bft) 100,00 %
10.07.2016 09:24 22,6 C 71 % 1016,3 hPa 0,0 l/m 6,5 km/h (2 Bft) O-NO 63 2 min 0,000 mm 2,7 UV-I 425 W/m 17,1 C 22,6 C 9,7 km/h (2 Bft) 100,00 %
10.07.2016 09:26 22,6 C 68 % 1016,4 hPa 0,0 l/m 3,9 km/h (1 Bft) SO 130 2 min 0,000 mm 2,8 UV-I 430 W/m 16,4 C 22,6 C 6,4 km/h (2 Bft) 100,00 %
10.07.2016 09:28 22,6 C 69 % 1016,4 hPa 0,0 l/m 2,9 km/h (1 Bft) SO 130 2 min 0,000 mm 2,8 UV-I 436 W/m 16,6 C 22,6 C 6,4 km/h (2 Bft) 100,00 %
10.07.2016 09:30 22,8 C 70 % 1016,3 hPa 0,0 l/m 3,0 km/h (1 Bft) O-NO 68 2 min 0,000 mm 2,9 UV-I 445 W/m 17,0 C 22,8 C 4,8 km/h (1 Bft) 97,87 %
10.07.2016 09:32 22,9 C 71 % 1016,3 hPa 0,0 l/m 1,7 km/h (1 Bft) O-NO 68 2 min 0,000 mm 3,0 UV-I 458 W/m 17,4 C 22,9 C 3,2 km/h (1 Bft) 98,11 %
10.07.2016 09:34 23,1 C 70 % 1016,3 hPa 0,0 l/m 3,4 km/h (1 Bft) O-SO 108 2 min 0,000 mm 3,0 UV-I 470 W/m 17,3 C 23,1 C 11,3 km/h (2 Bft) 97,73 %
10.07.2016 09:36 23,2 C 68 % 1016,3 hPa 0,0 l/m 3,3 km/h (1 Bft) S-SO 164 2 min 0,000 mm 3,1 UV-I 490 W/m 17,0 C 23,2 C 9,7 km/h (2 Bft) 97,62 %
10.07.2016 09:38 23,2 C 68 % 1016,4 hPa 0,0 l/m 1,8 km/h (1 Bft) S-SO 163 2 min 0,000 mm 3,1 UV-I 506 W/m 17,0 C 23,2 C 6,4 km/h (2 Bft) 98,00 %
10.07.2016 09:40 23,2 C 68 % 1016,3 hPa 0,0 l/m 4,4 km/h (1 Bft) S-SO 150 2 min 0,000 mm 3,1 UV-I 524 W/m 17,0 C 23,2 C 11,3 km/h (2 Bft) 98,00 %
10.07.2016 09:42 23,2 C 67 % 1016,3 hPa 0,0 l/m 7,2 km/h (2 Bft) S-SO 149 2 min 0,000 mm 3,2 UV-I 541 W/m 16,7 C 23,0 C 12,9 km/h (3 Bft) 95,74 %
10.07.2016 09:44 23,2 C 68 % 1016,3 hPa 0,0 l/m 4,7 km/h (1 Bft) O-NO 64 2 min 0,000 mm 3,2 UV-I 560 W/m 17,0 C 23,2 C 9,7 km/h (2 Bft) 97,37 %
10.07.2016 09:46 23,2 C 70 % 1016,3 hPa 0,0 l/m 4,0 km/h (1 Bft) NO 54 2 min 0,000 mm 3,3 UV-I 577 W/m 17,4 C 23,2 C 8,0 km/h (2 Bft) 96,00 %
10.07.2016 09:48 23,3 C 69 % 1016,3 hPa 0,0 l/m 2,6 km/h (1 Bft) NO 53 2 min 0,000 mm 3,4 UV-I 590 W/m 17,3 C 23,3 C 4,8 km/h (1 Bft) 94,34 %
10.07.2016 09:50 23,4 C 68 % 1016,3 hPa 0,0 l/m 6,9 km/h (2 Bft) O 82 2 min 0,000 mm 3,4 UV-I 600 W/m 17,1 C 23,3 C 11,3 km/h (2 Bft) 94,74 %
10.07.2016 09:52 23,6 C 67 % 1016,2 hPa 0,0 l/m 5,8 km/h (2 Bft) O 92 2 min 0,000 mm 3,5 UV-I 611 W/m 17,1 C 23,6 C 11,3 km/h (2 Bft) 96,49 %
10.07.2016 09:54 23,6 C 66 % 1016,2 hPa 0,0 l/m 6,5 km/h (2 Bft) O-NO 67 2 min 0,000 mm 3,5 UV-I 614 W/m 16,9 C 23,6 C 11,3 km/h (2 Bft) 95,45 %
10.07.2016 09:56 23,5 C 68 % 1016,2 hPa 0,0 l/m 4,0 km/h (1 Bft) O 82 2 min 0,000 mm 3,5 UV-I 619 W/m 17,2 C 23,5 C 6,4 km/h (2 Bft) 97,14 %
10.07.2016 09:58 23,6 C 68 % 1016,2 hPa 0,0 l/m 4,8 km/h (1 Bft) N-NO 31 2 min 0,000 mm 3,6 UV-I 624 W/m 17,3 C 23,6 C 9,7 km/h (2 Bft) 98,00 %
10.07.2016 10:00 23,7 C 70 % 1016,2 hPa 0,0 l/m 7,0 km/h (2 Bft) NO 36 2 min 0,330 mm 3,7 UV-I 631 W/m 17,9 C 23,5 C 11,3 km/h (2 Bft) 98,00 %
10.07.2016 10:02 23,8 C 67 % 1016,2 hPa 0,0 l/m 3,4 km/h (1 Bft) N-NO 32 2 min 0,000 mm 3,8 UV-I 636 W/m 17,3 C 23,8 C 6,4 km/h (2 Bft) 97,92 %
10.07.2016 10:04 23,8 C 66 % 1016,2 hPa 0,0 l/m 3,8 km/h (1 Bft) O 90 2 min 0,000 mm 3,8 UV-I 640 W/m 17,1 C 23,8 C 6,4 km/h (2 Bft) 100,00 %
10.07.2016 10:06 23,8 C 65 % 1016,1 hPa 0,0 l/m 4,3 km/h (1 Bft) O-SO 120 2 min 0,000 mm 3,9 UV-I 644 W/m 16,8 C 23,8 C 6,4 km/h (2 Bft) 100,00 %
10.07.2016 10:08 23,8 C 67 % 1016,1 hPa 0,0 l/m 4,0 km/h (1 Bft) NO 45 2 min 0,000 mm 3,9 UV-I 648 W/m 17,3 C 23,8 C 6,4 km/h (2 Bft) 96,00 %
10.07.2016 10:10 24,0 C 68 % 1016,1 hPa 0,0 l/m 1,9 km/h (1 Bft) NO 41 2 min 0,000 mm 3,9 UV-I 648 W/m 17,7 C 24,0 C 8,0 km/h (2 Bft) 100,00 %
10.07.2016 10:12 24,1 C 67 % 1016,1 hPa 0,0 l/m 5,2 km/h (1 Bft) O 80 2 min 0,000 mm 4,0 UV-I 653 W/m 17,6 C 24,1 C 11,3 km/h (2 Bft) 100,00 %
10.07.2016 10:14 24,1 C 66 % 1016,1 hPa 0,0 l/m 6,4 km/h (2 Bft) O 94 2 min 0,000 mm 4,1 UV-I 660 W/m 17,3 C 24,1 C 12,9 km/h (3 Bft) 100,00 %
10.07.2016 10:16 24,0 C 66 % 1015,9 hPa 0,0 l/m 6,9 km/h (2 Bft) NO 34 2 min 0,000 mm 4,1 UV-I 667 W/m 17,2 C 23,9 C 11,3 km/h (2 Bft) 100,00 %
10.07.2016 10:18 24,1 C 65 % 1015,9 hPa 0,0 l/m 6,6 km/h (2 Bft) O 88 2 min 0,000 mm 4,1 UV-I 669 W/m 17,1 C 24,1 C 9,7 km/h (2 Bft) 98,00 %
10.07.2016 10:20 24,0 C 65 % 1015,9 hPa 0,0 l/m 5,1 km/h (1 Bft) NO 43 2 min 0,000 mm 4,2 UV-I 674 W/m 17,0 C 24,0 C 11,3 km/h (2 Bft) 100,00 %
10.07.2016 10:22 24,1 C 65 % 1015,9 hPa 0,0 l/m 9,4 km/h (2 Bft) NO 40 2 min 0,000 mm 4,3 UV-I 673 W/m 17,1 C 23,3 C 14,5 km/h (3 Bft) 100,00 %
10.07.2016 10:24 24,3 C 68 % 1015,9 hPa 0,0 l/m 10,6 km/h (2 Bft) NO 44 2 min 0,000 mm 4,3 UV-I 680 W/m 18,0 C 23,3 C 14,5 km/h (3 Bft) 97,37 %
10.07.2016 10:26 24,3 C 64 % 1015,9 hPa 0,0 l/m 7,2 km/h (2 Bft) NO 46 2 min 0,000 mm 4,4 UV-I 687 W/m 17,0 C 24,1 C 9,7 km/h (2 Bft) 100,00 %
10.07.2016 10:28 24,4 C 62 % 1015,8 hPa 0,0 l/m 6,8 km/h (2 Bft) NO 53 2 min 0,000 mm 4,4 UV-I 690 W/m 16,6 C 24,3 C 9,7 km/h (2 Bft) 100,00 %
10.07.2016 10:30 24,5 C 67 % 1015,8 hPa 0,0 l/m 6,3 km/h (2 Bft) N-NO 18 2 min 0,000 mm 4,5 UV-I 695 W/m 18,0 C 24,5 C 8,0 km/h (2 Bft) 100,00 %
10.07.2016 10:32 24,6 C 65 % 1015,9 hPa 0,0 l/m 6,3 km/h (2 Bft) NO 49 2 min 0,000 mm 4,5 UV-I 699 W/m 17,6 C 24,6 C 11,3 km/h (2 Bft) 100,00 %
10.07.2016 10:34 24,4 C 64 % 1015,8 hPa 0,0 l/m 2,8 km/h (1 Bft) O 82 2 min 0,000 mm 4,6 UV-I 703 W/m 17,1 C 24,4 C 4,8 km/h (1 Bft) 100,00 %
10.07.2016 10:36 24,6 C 67 % 1015,8 hPa 0,0 l/m 3,9 km/h (1 Bft) N-NO 20 2 min 0,000 mm 4,7 UV-I 695 W/m 18,1 C 24,6 C 6,4 km/h (2 Bft) 100,00 %
10.07.2016 10:38 24,8 C 60 % 1015,8 hPa 0,0 l/m 8,8 km/h (2 Bft) O-SO 116 2 min 0,000 mm 4,7 UV-I 702 W/m 16,5 C 24,2 C 12,9 km/h (3 Bft) 98,21 %
10.07.2016 10:40 24,9 C 60 % 1015,8 hPa 0,0 l/m 4,2 km/h (1 Bft) N-NO 16 2 min 0,000 mm 4,7 UV-I 712 W/m 16,6 C 24,9 C 11,3 km/h (2 Bft) 100,00 %
10.07.2016 10:42 25,0 C 66 % 1015,8 hPa 0,0 l/m 4,9 km/h (1 Bft) O-NO 59 2 min 0,000 mm 4,8 UV-I 717 W/m 18,2 C 25,0 C 8,0 km/h (2 Bft) 100,00 %
10.07.2016 10:44 25,1 C 63 % 1015,8 hPa 0,0 l/m 5,4 km/h (1 Bft) O-NO 60 2 min 0,000 mm 4,9 UV-I 721 W/m 17,5 C 25,1 C 12,9 km/h (3 Bft) 100,00 %
10.07.2016 10:46 25,1 C 61 % 1015,9 hPa 0,0 l/m 4,1 km/h (1 Bft) O-NO 59 2 min 0,000 mm 4,9 UV-I 723 W/m 17,0 C 25,1 C 8,0 km/h (2 Bft) 100,00 %
10.07.2016 10:48 25,2 C 66 % 1015,8 hPa 0,0 l/m 6,0 km/h (2 Bft) O 84 2 min 0,000 mm 5,0 UV-I 727 W/m 18,4 C 25,2 C 12,9 km/h (3 Bft) 100,00 %
10.07.2016 10:50 25,2 C 62 % 1015,8 hPa 0,0 l/m 8,5 km/h (2 Bft) O-NO 57 2 min 0,000 mm 5,1 UV-I 732 W/m 17,4 C 24,7 C 14,5 km/h (3 Bft) 100,00 %
10.07.2016 10:52 25,2 C 63 % 1015,8 hPa 0,0 l/m 7,6 km/h (2 Bft) O 84 2 min 0,000 mm 5,1 UV-I 738 W/m 17,6 C 24,9 C 16,1 km/h (3 Bft) 100,00 %
10.07.2016 10:54 25,3 C 59 % 1015,8 hPa 0,0 l/m 12,6 km/h (3 Bft) O 93 2 min 0,000 mm 5,2 UV-I 740 W/m 16,7 C 24,0 C 16,1 km/h (3 Bft) 97,44 %
10.07.2016 10:56 25,2 C 58 % 1015,8 hPa 0,0 l/m 6,8 km/h (2 Bft) O-SO 119 2 min 0,000 mm 5,2 UV-I 744 W/m 16,3 C 25,1 C 12,9 km/h (3 Bft) 100,00 %
10.07.2016 10:58 25,2 C 59 % 1015,8 hPa 0,0 l/m 4,9 km/h (1 Bft) S-SO 161 2 min 0,000 mm 5,2 UV-I 746 W/m 16,6 C 25,2 C 11,3 km/h (2 Bft) 100,00 %
10.07.2016 11:00 25,3 C 59 % 1015,7 hPa 0,0 l/m 3,8 km/h (1 Bft) N-NO 28 2 min 0,458 mm 5,3 UV-I 748 W/m 16,7 C 25,3 C 6,4 km/h (2 Bft) 100,00 %
10.07.2016 11:02 25,3 C 60 % 1015,7 hPa 0,0 l/m 10,7 km/h (2 Bft) NO 40 2 min 0,000 mm 5,3 UV-I 752 W/m 17,0 C 24,4 C 17,7 km/h (3 Bft) 95,12 %
10.07.2016 11:04 25,3 C 60 % 1015,7 hPa 0,0 l/m 8,2 km/h (2 Bft) N 5 2 min 0,000 mm 5,4 UV-I 755 W/m 17,0 C 24,9 C 16,1 km/h (3 Bft) 98,00 %
10.07.2016 11:06 25,4 C 64 % 1015,7 hPa 0,0 l/m 8,7 km/h (2 Bft) N 5 2 min 0,000 mm 5,4 UV-I 757 W/m 18,1 C 24,9 C 14,5 km/h (3 Bft) 100,00 %
10.07.2016 11:08 25,4 C 61 % 1015,7 hPa 0,0 l/m 7,5 km/h (2 Bft) N-NO 17 2 min 0,000 mm 5,5 UV-I 761 W/m 17,3 C 25,1 C 12,9 km/h (3 Bft) 100,00 %
10.07.2016 11:10 25,3 C 63 % 1015,7 hPa 0,0 l/m 7,7 km/h (2 Bft) N-NO 32 2 min 0,000 mm 5,5 UV-I 751 W/m 17,7 C 25,0 C 12,9 km/h (3 Bft) 97,87 %
10.07.2016 11:12 25,3 C 65 % 1015,7 hPa 0,0 l/m 4,7 km/h (1 Bft) N-NO 12 2 min 0,000 mm 5,2 UV-I 769 W/m 18,2 C 25,3 C 9,7 km/h (2 Bft) 97,56 %
10.07.2016 11:14 25,5 C 61 % 1015,7 hPa 0,0 l/m 5,1 km/h (1 Bft) NO 36 2 min 0,000 mm 5,6 UV-I 772 W/m 17,4 C 25,5 C 9,7 km/h (2 Bft) 98,11 %
10.07.2016 11:16 25,7 C 63 % 1015,6 hPa 0,0 l/m 7,7 km/h (2 Bft) O-NO 66 2 min 0,000 mm 5,7 UV-I 769 W/m 18,1 C 25,4 C 12,9 km/h (3 Bft) 97,96 %
10.07.2016 11:18 25,8 C 60 % 1015,6 hPa 0,0 l/m 7,5 km/h (2 Bft) NO 49 2 min 0,000 mm 5,7 UV-I 775 W/m 17,4 C 25,6 C 14,5 km/h (3 Bft) 100,00 %
10.07.2016 11:20 25,7 C 57 % 1015,6 hPa 0,0 l/m 9,8 km/h (2 Bft) O-NO 75 2 min 0,000 mm 5,8 UV-I 779 W/m 16,5 C 25,0 C 14,5 km/h (3 Bft) 100,00 %
10.07.2016 11:22 25,7 C 59 % 1015,6 hPa 0,0 l/m 10,3 km/h (2 Bft) N-NO 30 2 min 0,000 mm 5,8 UV-I 783 W/m 17,1 C 24,9 C 12,9 km/h (3 Bft) 100,00 %
10.07.2016 11:24 25,7 C 61 % 1015,6 hPa 0,0 l/m 6,7 km/h (2 Bft) NO 44 2 min 0,000 mm 5,9 UV-I 789 W/m 17,6 C 25,6 C 11,3 km/h (2 Bft) 98,18 %
10.07.2016 11:26 25,8 C 62 % 1015,6 hPa 0,0 l/m 8,7 km/h (2 Bft) NO 54 2 min 0,000 mm 5,9 UV-I 791 W/m 18,0 C 25,3 C 14,5 km/h (3 Bft) 100,00 %
10.07.2016 11:28 25,8 C 60 % 1015,5 hPa 0,0 l/m 11,5 km/h (2 Bft) NO 38 2 min 0,000 mm 5,8 UV-I 780 W/m 17,4 C 24,8 C 16,1 km/h (3 Bft) 100,00 %
10.07.2016 11:30 25,7 C 62 % 1015,5 hPa 0,0 l/m 7,6 km/h (2 Bft) NO 35 2 min 0,000 mm 5,9 UV-I 787 W/m 17,9 C 25,4 C 12,9 km/h (3 Bft) 96,00 %
10.07.2016 11:32 25,7 C 63 % 1015,5 hPa 0,0 l/m 4,5 km/h (1 Bft) NO 40 2 min 0,000 mm 6,0 UV-I 796 W/m 18,1 C 25,7 C 12,9 km/h (3 Bft) 98,08 %
10.07.2016 11:34 26,0 C 59 % 1015,5 hPa 0,0 l/m 8,9 km/h (2 Bft) O-NO 65 2 min 0,000 mm 6,1 UV-I 798 W/m 17,4 C 25,5 C 16,1 km/h (3 Bft) 97,62 %
10.07.2016 11:36 26,1 C 56 % 1015,5 hPa 0,0 l/m 10,4 km/h (2 Bft) O 86 2 min 0,000 mm 6,1 UV-I 803 W/m 16,6 C 25,3 C 16,1 km/h (3 Bft) 96,23 %
10.07.2016 11:38 26,0 C 56 % 1015,5 hPa 0,0 l/m 6,2 km/h (2 Bft) O-NO 61 2 min 0,000 mm 6,2 UV-I 806 W/m 16,5 C 26,0 C 11,3 km/h (2 Bft) 97,73 %
10.07.2016 11:40 26,0 C 56 % 1015,4 hPa 0,0 l/m 5,9 km/h (2 Bft) NO 37 2 min 0,000 mm 6,2 UV-I 807 W/m 16,5 C 26,0 C 11,3 km/h (2 Bft) 95,74 %
10.07.2016 11:42 26,0 C 57 % 1015,4 hPa 0,0 l/m 4,0 km/h (1 Bft) NO 36 2 min 0,000 mm 6,3 UV-I 811 W/m 16,8 C 26,0 C 8,0 km/h (2 Bft) 96,00 %
10.07.2016 11:44 26,1 C 56 % 1015,4 hPa 0,0 l/m 7,8 km/h (2 Bft) O-NO 64 2 min 0,000 mm 6,3 UV-I 815 W/m 16,6 C 25,8 C 14,5 km/h (3 Bft) 97,56 %
10.07.2016 11:46 26,2 C 55 % 1015,4 hPa 0,0 l/m 8,2 km/h (2 Bft) O-NO 69 2 min 0,000 mm 6,4 UV-I 818 W/m 16,4 C 25,8 C 14,5 km/h (3 Bft) 97,56 %
10.07.2016 11:48 26,2 C 55 % 1015,4 hPa 0,0 l/m 5,0 km/h (1 Bft) NO 54 2 min 0,000 mm 6,4 UV-I 819 W/m 16,4 C 26,2 C 12,9 km/h (3 Bft) 96,00 %
10.07.2016 11:50 26,3 C 57 % 1015,4 hPa 0,0 l/m 2,5 km/h (1 Bft) SO 127 2 min 0,000 mm 6,4 UV-I 819 W/m 17,1 C 26,3 C 6,4 km/h (2 Bft) 97,73 %
10.07.2016 11:52 26,3 C 55 % 1015,4 hPa 0,0 l/m 8,5 km/h (2 Bft) O 101 2 min 0,000 mm 6,4 UV-I 819 W/m 16,5 C 25,9 C 17,7 km/h (3 Bft) 98,11 %
10.07.2016 11:54 26,3 C 54 % 1015,3 hPa 0,0 l/m 4,9 km/h (1 Bft) NO 54 2 min 0,000 mm 6,5 UV-I 824 W/m 16,2 C 26,3 C 11,3 km/h (2 Bft) 97,87 %
10.07.2016 11:56 26,3 C 58 % 1015,4 hPa 0,0 l/m 1,7 km/h (1 Bft) NO 53 2 min 0,000 mm 6,5 UV-I 829 W/m 17,4 C 26,3 C 4,8 km/h (1 Bft) 97,87 %
10.07.2016 11:58 26,3 C 58 % 1015,3 hPa 0,0 l/m 5,8 km/h (2 Bft) O-NO 65 2 min 0,000 mm 6,6 UV-I 827 W/m 17,4 C 26,3 C 14,5 km/h (3 Bft) 97,56 %
10.07.2016 12:00 26,4 C 55 % 1015,3 hPa 0,0 l/m 10,8 km/h (2 Bft) O-NO 59 2 min 0,533 mm 6,5 UV-I 828 W/m 16,6 C 25,6 C 14,5 km/h (3 Bft) 98,11 %
10.07.2016 12:02 26,4 C 55 % 1015,3 hPa 0,0 l/m 10,1 km/h (2 Bft) NO 39 2 min 0,000 mm 6,6 UV-I 830 W/m 16,6 C 25,7 C 16,1 km/h (3 Bft) 94,74 %
10.07.2016 12:04 26,3 C 58 % 1015,3 hPa 0,0 l/m 6,0 km/h (2 Bft) O-NO 64 2 min 0,000 mm 6,7 UV-I 833 W/m 17,4 C 26,3 C 9,7 km/h (2 Bft) 98,21 %
10.07.2016 12:06 26,2 C 57 % 1015,3 hPa 0,0 l/m 4,1 km/h (1 Bft) N 349 2 min 0,000 mm 6,7 UV-I 829 W/m 17,0 C 26,2 C 11,3 km/h (2 Bft) 97,56 %
10.07.2016 12:08 26,4 C 59 % 1015,3 hPa 0,0 l/m 5,4 km/h (1 Bft) N-NO 22 2 min 0,000 mm 6,7 UV-I 837 W/m 17,7 C 26,4 C 9,7 km/h (2 Bft) 100,00 %
10.07.2016 12:10 26,6 C 60 % 1015,2 hPa 0,0 l/m 6,2 km/h (2 Bft) N-NO 24 2 min 0,000 mm 6,7 UV-I 838 W/m 18,2 C 26,6 C 9,7 km/h (2 Bft) 100,00 %
10.07.2016 12:12 26,8 C 52 % 1015,3 hPa 0,0 l/m 5,3 km/h (1 Bft) NO 52 2 min 0,000 mm 6,7 UV-I 838 W/m 16,1 C 26,8 C 9,7 km/h (2 Bft) 100,00 %
10.07.2016 12:14 26,7 C 54 % 1015,2 hPa 0,0 l/m 4,9 km/h (1 Bft) NO 49 2 min 0,000 mm 6,7 UV-I 836 W/m 16,6 C 26,7 C 8,0 km/h (2 Bft) 98,11 %
10.07.2016 12:16 26,6 C 53 % 1015,1 hPa 0,0 l/m 2,1 km/h (1 Bft) NO 42 2 min 0,000 mm 6,7 UV-I 837 W/m 16,2 C 26,6 C 4,8 km/h (1 Bft) 100,00 %
10.07.2016 12:18 26,7 C 60 % 1015,1 hPa 0,0 l/m 6,6 km/h (2 Bft) N 5 2 min 0,000 mm 6,8 UV-I 843 W/m 18,3 C 26,7 C 11,3 km/h (2 Bft) 100,00 %
10.07.2016 12:20 26,8 C 57 % 1015,0 hPa 0,0 l/m 7,9 km/h (2 Bft) N-NO 14 2 min 0,000 mm 6,9 UV-I 848 W/m 17,6 C 26,5 C 16,1 km/h (3 Bft) 97,73 %
10.07.2016 12:22 26,9 C 56 % 1015,0 hPa 0,0 l/m 11,9 km/h (2 Bft) NO 41 2 min 0,000 mm 6,9 UV-I 849 W/m 17,4 C 26,0 C 20,9 km/h (4 Bft) 100,00 %
10.07.2016 12:24 26,9 C 54 % 1015,1 hPa 0,0 l/m 7,9 km/h (2 Bft) O 79 2 min 0,000 mm 6,9 UV-I 847 W/m 16,8 C 26,6 C 12,9 km/h (3 Bft) 100,00 %
10.07.2016 12:26 27,1 C 53 % 1015,1 hPa 0,0 l/m 10,4 km/h (2 Bft) O 83 2 min 0,000 mm 6,9 UV-I 847 W/m 16,7 C 26,4 C 16,1 km/h (3 Bft) 98,00 %
10.07.2016 12:28 27,1 C 51 % 1015,1 hPa 0,0 l/m 8,0 km/h (2 Bft) O-NO 62 2 min 0,000 mm 6,9 UV-I 851 W/m 16,1 C 26,8 C 16,1 km/h (3 Bft) 100,00 %
10.07.2016 12:30 27,1 C 51 % 1015,0 hPa 0,0 l/m 8,2 km/h (2 Bft) O-SO 107 2 min 0,000 mm 7,0 UV-I 855 W/m 16,1 C 26,8 C 17,7 km/h (3 Bft) 100,00 %
10.07.2016 12:32 26,9 C 52 % 1015,0 hPa 0,0 l/m 6,6 km/h (2 Bft) O-NO 67 2 min 0,000 mm 7,0 UV-I 860 W/m 16,2 C 26,9 C 12,9 km/h (3 Bft) 100,00 %
10.07.2016 12:34 26,9 C 53 % 1015,0 hPa 0,0 l/m 3,3 km/h (1 Bft) O-SO 106 2 min 0,000 mm 7,1 UV-I 861 W/m 16,5 C 26,9 C 11,3 km/h (2 Bft) 100,00 %
10.07.2016 12:36 27,2 C 55 % 1014,9 hPa 0,0 l/m 7,0 km/h (2 Bft) NO 50 2 min 0,000 mm 7,1 UV-I 861 W/m 17,4 C 27,1 C 11,3 km/h (2 Bft) 100,00 %
10.07.2016 12:38 27,4 C 54 % 1014,9 hPa 0,0 l/m 11,0 km/h (2 Bft) NO 38 2 min 0,000 mm 7,0 UV-I 858 W/m 17,3 C 26,7 C 19,3 km/h (3 Bft) 100,00 %
10.07.2016 12:40 27,3 C 56 % 1014,9 hPa 0,0 l/m 4,8 km/h (1 Bft) NW 322 2 min 0,000 mm 7,1 UV-I 860 W/m 17,7 C 27,3 C 14,5 km/h (3 Bft) 100,00 %
10.07.2016 12:42 27,3 C 55 % 1014,9 hPa 0,0 l/m 11,0 km/h (2 Bft) NO 34 2 min 0,000 mm 7,1 UV-I 861 W/m 17,4 C 26,6 C 17,7 km/h (3 Bft) 100,00 %
10.07.2016 12:44 27,3 C 52 % 1014,8 hPa 0,0 l/m 9,2 km/h (2 Bft) O 98 2 min 0,000 mm 7,2 UV-I 867 W/m 16,6 C 26,8 C 12,9 km/h (3 Bft) 100,00 %
10.07.2016 12:46 27,6 C 51 % 1014,8 hPa 0,0 l/m 6,6 km/h (2 Bft) NO 53 2 min 0,000 mm 7,2 UV-I 869 W/m 16,5 C 27,6 C 11,3 km/h (2 Bft) 100,00 %
10.07.2016 12:48 27,6 C 51 % 1014,8 hPa 0,0 l/m 8,2 km/h (2 Bft) N-NO 27 2 min 0,000 mm 7,1 UV-I 864 W/m 16,5 C 27,3 C 12,9 km/h (3 Bft) 100,00 %
10.07.2016 12:50 27,5 C 54 % 1014,8 hPa 0,0 l/m 11,2 km/h (2 Bft) NO 42 2 min 0,000 mm 6,5 UV-I 859 W/m 17,3 C 26,8 C 17,7 km/h (3 Bft) 100,00 %
10.07.2016 12:52 27,3 C 52 % 1014,7 hPa 0,0 l/m 5,0 km/h (1 Bft) N 10 2 min 0,000 mm 7,1 UV-I 860 W/m 16,6 C 27,3 C 14,5 km/h (3 Bft) 98,00 %
10.07.2016 12:54 27,2 C 55 % 1014,7 hPa 0,0 l/m 2,6 km/h (1 Bft) NO 34 2 min 0,000 mm 7,2 UV-I 866 W/m 17,4 C 27,2 C 11,3 km/h (2 Bft) 100,00 %
10.07.2016 12:56 27,3 C 55 % 1014,6 hPa 0,0 l/m 9,6 km/h (2 Bft) N 5 2 min 0,000 mm 7,3 UV-I 869 W/m 17,4 C 26,8 C 14,5 km/h (3 Bft) 100,00 %
10.07.2016 12:58 27,2 C 54 % 1014,6 hPa 0,0 l/m 1,9 km/h (1 Bft) N-NO 26 2 min 0,000 mm 7,2 UV-I 866 W/m 17,1 C 27,2 C 4,8 km/h (1 Bft) 100,00 %
10.07.2016 13:00 27,3 C 55 % 1014,5 hPa 0,0 l/m 8,7 km/h (2 Bft) N-NO 17 2 min 0,584 mm 7,2 UV-I 867 W/m 17,4 C 26,9 C 14,5 km/h (3 Bft) 98,11 %
10.07.2016 13:02 27,4 C 55 % 1014,5 hPa 0,0 l/m 9,9 km/h (2 Bft) N-NO 17 2 min 0,000 mm 7,2 UV-I 868 W/m 17,5 C 26,8 C 17,7 km/h (3 Bft) 100,00 %
10.07.2016 13:04 27,4 C 55 % 1014,4 hPa 0,0 l/m 9,2 km/h (2 Bft) NO 36 2 min 0,000 mm 7,2 UV-I 869 W/m 17,5 C 26,9 C 16,1 km/h (3 Bft) 100,00 %
10.07.2016 13:06 27,7 C 51 % 1014,4 hPa 0,0 l/m 8,7 km/h (2 Bft) NO 43 2 min 0,000 mm 7,2 UV-I 870 W/m 16,6 C 27,3 C 16,1 km/h (3 Bft) 100,00 %
10.07.2016 13:08 27,7 C 51 % 1014,4 hPa 0,0 l/m 6,4 km/h (2 Bft) N-NO 16 2 min 0,000 mm 7,2 UV-I 869 W/m 16,6 C 27,7 C 14,5 km/h (3 Bft) 100,00 %
10.07.2016 13:10 27,6 C 48 % 1014,4 hPa 0,0 l/m 6,6 km/h (2 Bft) O-SO 102 2 min 0,000 mm 7,2 UV-I 868 W/m 15,6 C 27,6 C 14,5 km/h (3 Bft) 100,00 %
10.07.2016 13:12 27,8 C 46 % 1014,3 hPa 0,0 l/m 9,9 km/h (2 Bft) O-SO 107 2 min 0,000 mm 7,2 UV-I 870 W/m 15,1 C 27,3 C 17,7 km/h (3 Bft) 100,00 %
10.07.2016 13:14 28,1 C 49 % 1014,3 hPa 0,0 l/m 8,2 km/h (2 Bft) NO 43 2 min 0,000 mm 7,3 UV-I 870 W/m 16,4 C 27,8 C 14,5 km/h (3 Bft) 100,00 %
10.07.2016 13:16 28,3 C 44 % 1014,3 hPa 0,0 l/m 5,8 km/h (2 Bft) SO 137 2 min 0,000 mm 7,3 UV-I 874 W/m 14,9 C 28,3 C 14,5 km/h (3 Bft) 100,00 %
10.07.2016 13:18 28,3 C 46 % 1014,3 hPa 0,0 l/m 10,4 km/h (2 Bft) O 84 2 min 0,000 mm 7,3 UV-I 874 W/m 15,6 C 27,8 C 16,1 km/h (3 Bft) 100,00 %
10.07.2016 13:20 28,1 C 45 % 1014,3 hPa 0,0 l/m 8,6 km/h (2 Bft) NO 44 2 min 0,000 mm 7,3 UV-I 875 W/m 15,0 C 27,8 C 12,9 km/h (3 Bft) 100,00 %
10.07.2016 13:22 27,9 C 46 % 1014,2 hPa 0,0 l/m 4,0 km/h (1 Bft) O-NO 57 2 min 0,000 mm 7,2 UV-I 875 W/m 15,2 C 27,9 C 6,4 km/h (2 Bft) 100,00 %
10.07.2016 13:24 27,9 C 48 % 1014,2 hPa 0,0 l/m 3,5 km/h (1 Bft) N-NO 19 2 min 0,000 mm 7,2 UV-I 874 W/m 15,9 C 27,9 C 8,0 km/h (2 Bft) 100,00 %
10.07.2016 13:26 28,2 C 51 % 1014,1 hPa 0,0 l/m 9,2 km/h (2 Bft) NO 41 2 min 0,000 mm 7,2 UV-I 872 W/m 17,1 C 27,8 C 17,7 km/h (3 Bft) 97,44 %
10.07.2016 13:28 28,1 C 50 % 1014,1 hPa 0,0 l/m 10,8 km/h (2 Bft) O-NO 67 2 min 0,000 mm 7,2 UV-I 870 W/m 16,7 C 27,5 C 19,3 km/h (3 Bft) 96,23 %
10.07.2016 13:30 28,1 C 49 % 1014,2 hPa 0,0 l/m 14,0 km/h (3 Bft) N-NO 26 2 min 0,000 mm 7,2 UV-I 870 W/m 16,4 C 27,2 C 22,5 km/h (4 Bft) 100,00 %
10.07.2016 13:32 28,0 C 52 % 1014,1 hPa 0,0 l/m 5,3 km/h (1 Bft) O-NO 78 2 min 0,000 mm 7,2 UV-I 870 W/m 17,2 C 28,0 C 8,0 km/h (2 Bft) 95,45 %
10.07.2016 13:34 28,1 C 47 % 1014,1 hPa 0,0 l/m 4,8 km/h (1 Bft) O-NO 76 2 min 0,000 mm 7,2 UV-I 869 W/m 15,7 C 28,1 C 14,5 km/h (3 Bft) 96,61 %
10.07.2016 13:36 28,3 C 49 % 1014,0 hPa 0,0 l/m 9,7 km/h (2 Bft) O-NO 59 2 min 0,000 mm 7,2 UV-I 870 W/m 16,5 C 27,8 C 17,7 km/h (3 Bft) 97,87 %
10.07.2016 13:38 28,4 C 46 % 1014,0 hPa 0,0 l/m 6,8 km/h (2 Bft) NO 35 2 min 0,000 mm 7,1 UV-I 871 W/m 15,6 C 28,3 C 11,3 km/h (2 Bft) 97,56 %
10.07.2016 13:40 28,3 C 48 % 1014,0 hPa 0,0 l/m 5,9 km/h (2 Bft) O-NO 64 2 min 0,000 mm 7,1 UV-I 870 W/m 16,2 C 28,3 C 14,5 km/h (3 Bft) 98,11 %
10.07.2016 13:42 28,6 C 47 % 1014,0 hPa 0,0 l/m 9,5 km/h (2 Bft) NO 44 2 min 0,000 mm 7,1 UV-I 867 W/m 16,2 C 28,2 C 16,1 km/h (3 Bft) 95,12 %
10.07.2016 13:44 28,7 C 46 % 1014,0 hPa 0,0 l/m 11,6 km/h (2 Bft) NO 53 2 min 0,000 mm 7,1 UV-I 868 W/m 15,9 C 28,1 C 17,7 km/h (3 Bft) 94,34 %
10.07.2016 13:46 28,7 C 48 % 1014,0 hPa 0,0 l/m 14,3 km/h (3 Bft) O-NO 64 2 min 0,000 mm 7,1 UV-I 868 W/m 16,6 C 27,8 C 17,7 km/h (3 Bft) 97,73 %
10.07.2016 13:48 28,7 C 50 % 1014,0 hPa 0,0 l/m 8,8 km/h (2 Bft) N-NO 25 2 min 0,000 mm 7,0 UV-I 865 W/m 17,2 C 28,4 C 14,5 km/h (3 Bft) 97,56 %
10.07.2016 13:50 28,6 C 52 % 1013,9 hPa 0,0 l/m 8,3 km/h (2 Bft) O-NO 58 2 min 0,000 mm 7,0 UV-I 863 W/m 17,8 C 28,3 C 16,1 km/h (3 Bft) 98,11 %
10.07.2016 13:52 28,6 C 48 % 1013,9 hPa 0,0 l/m 11,3 km/h (2 Bft) NO 51 2 min 0,000 mm 7,0 UV-I 862 W/m 16,5 C 28,0 C 16,1 km/h (3 Bft) 97,56 %
10.07.2016 13:54 28,8 C 47 % 1013,9 hPa 0,0 l/m 7,5 km/h (2 Bft) NO 36 2 min 0,000 mm 7,0 UV-I 861 W/m 16,3 C 28,7 C 11,3 km/h (2 Bft) 97,73 %
10.07.2016 13:56 28,9 C 46 % 1013,8 hPa 0,0 l/m 10,7 km/h (2 Bft) O-NO 57 2 min 0,000 mm 6,9 UV-I 861 W/m 16,1 C 28,4 C 16,1 km/h (3 Bft) 98,11 %
10.07.2016 13:58 28,7 C 49 % 1013,7 hPa 0,0 l/m 8,5 km/h (2 Bft) N-NO 15 2 min 0,000 mm 6,9 UV-I 860 W/m 16,9 C 28,4 C 17,7 km/h (3 Bft) 97,56 %
10.07.2016 14:00 28,8 C 48 % 1013,7 hPa 0,0 l/m 5,6 km/h (1 Bft) N-NO 24 2 min 0,000 mm 6,9 UV-I 863 W/m 16,7 C 28,8 C 14,5 km/h (3 Bft) 100,00 %
10.07.2016 14:02 28,8 C 46 % 1013,7 hPa 0,0 l/m 12,4 km/h (3 Bft) O 80 2 min 0,635 mm 6,9 UV-I 857 W/m 16,0 C 28,1 C 17,7 km/h (3 Bft) 96,43 %
10.07.2016 14:04 28,9 C 46 % 1013,7 hPa 0,0 l/m 8,4 km/h (2 Bft) O 80 2 min 0,000 mm 6,8 UV-I 855 W/m 16,1 C 28,6 C 16,1 km/h (3 Bft) 100,00 %
10.07.2016 14:06 29,1 C 45 % 1013,6 hPa 0,0 l/m 10,9 km/h (2 Bft) O 88 2 min 0,000 mm 6,8 UV-I 856 W/m 15,9 C 28,6 C 19,3 km/h (3 Bft) 100,00 %
10.07.2016 14:08 29,0 C 46 % 1013,6 hPa 0,0 l/m 10,7 km/h (2 Bft) NO 40 2 min 0,000 mm 6,8 UV-I 855 W/m 16,2 C 28,5 C 16,1 km/h (3 Bft) 100,00 %
10.07.2016 14:10 29,1 C 50 % 1013,6 hPa 0,0 l/m 10,7 km/h (2 Bft) O-NO 64 2 min 0,000 mm 6,8 UV-I 853 W/m 17,6 C 28,6 C 20,9 km/h (4 Bft) 97,87 %
10.07.2016 14:12 29,0 C 48 % 1013,5 hPa 0,0 l/m 13,8 km/h (3 Bft) O-NO 59 2 min 0,000 mm 6,7 UV-I 853 W/m 16,9 C 28,2 C 19,3 km/h (3 Bft) 100,00 %
10.07.2016 14:14 28,9 C 44 % 1013,5 hPa 0,0 l/m 14,5 km/h (3 Bft) O-NO 73 2 min 0,000 mm 6,7 UV-I 853 W/m 15,4 C 28,1 C 19,3 km/h (3 Bft) 96,23 %
10.07.2016 14:16 28,8 C 44 % 1013,5 hPa 0,0 l/m 13,8 km/h (3 Bft) O-NO 77 2 min 0,000 mm 6,7 UV-I 851 W/m 15,3 C 28,0 C 20,9 km/h (4 Bft) 100,00 %
10.07.2016 14:18 28,8 C 47 % 1013,5 hPa 0,0 l/m 11,1 km/h (2 Bft) NO 40 2 min 0,000 mm 6,7 UV-I 852 W/m 16,3 C 28,2 C 16,1 km/h (3 Bft) 100,00 %
10.07.2016 14:20 28,9 C 46 % 1013,4 hPa 0,0 l/m 8,8 km/h (2 Bft) N 11 2 min 0,000 mm 6,6 UV-I 846 W/m 16,1 C 28,6 C 14,5 km/h (3 Bft) 97,87 %
10.07.2016 14:22 29,0 C 47 % 1013,4 hPa 0,0 l/m 7,6 km/h (2 Bft) NO 42 2 min 0,000 mm 6,6 UV-I 843 W/m 16,5 C 28,8 C 12,9 km/h (3 Bft) 98,00 %
10.07.2016 14:24 28,8 C 46 % 1013,4 hPa 0,0 l/m 7,4 km/h (2 Bft) O 84 2 min 0,000 mm 6,6 UV-I 841 W/m 16,0 C 28,7 C 14,5 km/h (3 Bft) 100,00 %
10.07.2016 14:26 29,0 C 50 % 1013,4 hPa 0,0 l/m 6,5 km/h (2 Bft) NO 37 2 min 0,000 mm 6,5 UV-I 835 W/m 17,5 C 29,0 C 9,7 km/h (2 Bft) 100,00 %
10.07.2016 14:28 29,2 C 46 % 1013,3 hPa 0,0 l/m 11,7 km/h (2 Bft) O 82 2 min 0,000 mm 6,4 UV-I 796 W/m 16,4 C 28,6 C 17,7 km/h (3 Bft) 98,00 %
10.07.2016 14:30 29,2 C 45 % 1013,3 hPa 0,0 l/m 11,6 km/h (2 Bft) O-NO 67 2 min 0,000 mm 6,4 UV-I 832 W/m 16,0 C 28,7 C 17,7 km/h (3 Bft) 100,00 %
10.07.2016 14:32 29,2 C 45 % 1013,3 hPa 0,0 l/m 12,7 km/h (3 Bft) O-NO 59 2 min 0,000 mm 6,4 UV-I 836 W/m 16,0 C 28,6 C 17,7 km/h (3 Bft) 97,73 %
10.07.2016 14:34 29,1 C 43 % 1013,3 hPa 0,0 l/m 9,9 km/h (2 Bft) N-NO 21 2 min 0,000 mm 6,4 UV-I 832 W/m 15,2 C 28,7 C 16,1 km/h (3 Bft) 100,00 %
10.07.2016 14:36 29,1 C 46 % 1013,2 hPa 0,0 l/m 9,7 km/h (2 Bft) O-NO 59 2 min 0,000 mm 6,4 UV-I 832 W/m 16,3 C 28,7 C 17,7 km/h (3 Bft) 98,11 %
10.07.2016 14:38 29,1 C 44 % 1013,2 hPa 0,0 l/m 9,4 km/h (2 Bft) NO 41 2 min 0,000 mm 6,3 UV-I 830 W/m 15,6 C 28,8 C 17,7 km/h (3 Bft) 97,14 %
10.07.2016 14:40 29,2 C 49 % 1013,1 hPa 0,0 l/m 9,0 km/h (2 Bft) N-NO 31 2 min 0,000 mm 6,3 UV-I 825 W/m 17,4 C 28,9 C 17,7 km/h (3 Bft) 100,00 %
10.07.2016 14:42 29,1 C 48 % 1013,1 hPa 0,0 l/m 9,3 km/h (2 Bft) N-NO 30 2 min 0,000 mm 6,2 UV-I 824 W/m 16,9 C 28,8 C 16,1 km/h (3 Bft) 100,00 %
10.07.2016 14:44 29,0 C 49 % 1013,0 hPa 0,0 l/m 8,3 km/h (2 Bft) N 5 2 min 0,000 mm 6,2 UV-I 803 W/m 17,2 C 28,8 C 16,1 km/h (3 Bft) 100,00 %
10.07.2016 14:46 29,1 C 49 % 1013,0 hPa 0,0 l/m 8,0 km/h (2 Bft) NO 44 2 min 0,000 mm 6,2 UV-I 819 W/m 17,3 C 28,9 C 12,9 km/h (3 Bft) 100,00 %
10.07.2016 14:48 29,2 C 44 % 1013,0 hPa 0,0 l/m 13,5 km/h (3 Bft) O-NO 66 2 min 0,000 mm 6,1 UV-I 816 W/m 15,7 C 28,5 C 20,9 km/h (4 Bft) 97,87 %
10.07.2016 14:50 29,4 C 43 % 1013,0 hPa 0,0 l/m 11,7 km/h (2 Bft) O 82 2 min 0,000 mm 6,1 UV-I 814 W/m 15,5 C 28,9 C 20,9 km/h (4 Bft) 100,00 %
10.07.2016 14:52 29,7 C 45 % 1013,0 hPa 0,0 l/m 12,4 km/h (3 Bft) O-NO 61 2 min 0,000 mm 6,0 UV-I 813 W/m 16,5 C 29,2 C 19,3 km/h (3 Bft) 100,00 %
10.07.2016 14:54 29,7 C 44 % 1013,0 hPa 0,0 l/m 15,0 km/h (3 Bft) O-SO 103 2 min 0,000 mm 5,9 UV-I 808 W/m 16,1 C 29,0 C 19,3 km/h (3 Bft) 100,00 %
10.07.2016 14:56 29,5 C 44 % 1012,9 hPa 0,0 l/m 9,3 km/h (2 Bft) O-NO 63 2 min 0,000 mm 5,9 UV-I 806 W/m 15,9 C 29,2 C 17,7 km/h (3 Bft) 98,00 %
10.07.2016 14:58 29,5 C 48 % 1012,9 hPa 0,0 l/m 7,3 km/h (2 Bft) NO 49 2 min 0,000 mm 5,9 UV-I 802 W/m 17,3 C 29,4 C 14,5 km/h (3 Bft) 100,00 %
10.07.2016 15:00 29,4 C 42 % 1012,9 hPa 0,0 l/m 7,7 km/h (2 Bft) N-NO 22 2 min 0,000 mm 5,8 UV-I 801 W/m 15,1 C 29,3 C 17,7 km/h (3 Bft) 97,56 %
10.07.2016 15:02 29,4 C 46 % 1012,8 hPa 0,0 l/m 9,1 km/h (2 Bft) N-NO 27 2 min 0,635 mm 5,8 UV-I 798 W/m 16,5 C 29,1 C 16,1 km/h (3 Bft) 100,00 %
10.07.2016 15:04 29,6 C 45 % 1012,8 hPa 0,0 l/m 11,2 km/h (2 Bft) O-NO 67 2 min 0,000 mm 5,8 UV-I 795 W/m 16,4 C 29,1 C 19,3 km/h (3 Bft) 100,00 %
10.07.2016 15:06 29,6 C 48 % 1012,8 hPa 0,0 l/m 14,7 km/h (3 Bft) NO 43 2 min 0,000 mm 5,7 UV-I 792 W/m 17,4 C 28,9 C 19,3 km/h (3 Bft) 100,00 %
10.07.2016 15:08 29,4 C 49 % 1012,8 hPa 0,0 l/m 9,2 km/h (2 Bft) N-NO 22 2 min 0,000 mm 5,7 UV-I 790 W/m 17,5 C 29,1 C 17,7 km/h (3 Bft) 100,00 %
10.07.2016 15:10 29,4 C 46 % 1012,8 hPa 0,0 l/m 6,9 km/h (2 Bft) O-NO 60 2 min 0,000 mm 5,6 UV-I 787 W/m 16,5 C 29,3 C 14,5 km/h (3 Bft) 100,00 %
10.07.2016 15:12 29,7 C 45 % 1012,8 hPa 0,0 l/m 14,0 km/h (3 Bft) O-NO 61 2 min 0,000 mm 5,5 UV-I 783 W/m 16,5 C 29,1 C 19,3 km/h (3 Bft) 100,00 %
10.07.2016 15:14 29,7 C 43 % 1012,8 hPa 0,0 l/m 9,8 km/h (2 Bft) O-NO 65 2 min 0,000 mm 5,5 UV-I 780 W/m 15,8 C 29,4 C 17,7 km/h (3 Bft) 100,00 %
10.07.2016 15:16 29,7 C 45 % 1012,7 hPa 0,0 l/m 10,6 km/h (2 Bft) NO 45 2 min 0,000 mm 5,4 UV-I 776 W/m 16,5 C 29,3 C 16,1 km/h (3 Bft) 100,00 %
10.07.2016 15:18 29,5 C 46 % 1012,6 hPa 0,0 l/m 7,8 km/h (2 Bft) NO 44 2 min 0,000 mm 5,4 UV-I 773 W/m 16,6 C 29,3 C 12,9 km/h (3 Bft) 100,00 %
10.07.2016 15:20 29,5 C 47 % 1012,6 hPa 0,0 l/m 10,2 km/h (2 Bft) N-NO 32 2 min 0,000 mm 5,4 UV-I 772 W/m 17,0 C 29,1 C 16,1 km/h (3 Bft) 98,00 %
10.07.2016 15:22 29,6 C 44 % 1012,6 hPa 0,0 l/m 14,6 km/h (3 Bft) NO 46 2 min 0,000 mm 5,3 UV-I 768 W/m 16,0 C 28,9 C 19,3 km/h (3 Bft) 100,00 %
10.07.2016 15:24 29,4 C 49 % 1012,6 hPa 0,0 l/m 10,2 km/h (2 Bft) N 355 2 min 0,000 mm 5,3 UV-I 766 W/m 17,5 C 29,0 C 17,7 km/h (3 Bft) 100,00 %
10.07.2016 15:26 29,3 C 47 % 1012,5 hPa 0,0 l/m 12,3 km/h (3 Bft) N-NO 26 2 min 0,000 mm 5,2 UV-I 763 W/m 16,8 C 28,7 C 17,7 km/h (3 Bft) 94,00 %
10.07.2016 15:28 29,4 C 44 % 1012,5 hPa 0,0 l/m 15,0 km/h (3 Bft) O 82 2 min 0,000 mm 5,1 UV-I 760 W/m 15,8 C 28,6 C 20,9 km/h (4 Bft) 97,56 %
10.07.2016 15:30 29,8 C 44 % 1012,5 hPa 0,0 l/m 14,3 km/h (3 Bft) NO 51 2 min 0,000 mm 5,1 UV-I 757 W/m 16,2 C 29,2 C 20,9 km/h (4 Bft) 96,00 %
10.07.2016 15:32 29,8 C 44 % 1012,5 hPa 0,0 l/m 12,8 km/h (3 Bft) O 80 2 min 0,000 mm 5,0 UV-I 752 W/m 16,2 C 29,3 C 17,7 km/h (3 Bft) 96,00 %
10.07.2016 15:34 29,8 C 44 % 1012,5 hPa 0,0 l/m 12,0 km/h (2 Bft) NO 46 2 min 0,000 mm 5,0 UV-I 750 W/m 16,2 C 29,3 C 17,7 km/h (3 Bft) 96,00 %
10.07.2016 15:36 29,8 C 45 % 1012,4 hPa 0,0 l/m 7,8 km/h (2 Bft) NO 42 2 min 0,000 mm 4,9 UV-I 739 W/m 16,6 C 29,7 C 16,1 km/h (3 Bft) 97,37 %
10.07.2016 15:38 29,9 C 47 % 1012,3 hPa 0,0 l/m 9,3 km/h (2 Bft) N-NO 13 2 min 0,000 mm 4,9 UV-I 735 W/m 17,3 C 29,6 C 19,3 km/h (3 Bft) 96,23 %
10.07.2016 15:40 30,0 C 47 % 1012,3 hPa 0,0 l/m 16,4 km/h (3 Bft) O-NO 63 2 min 0,000 mm 4,8 UV-I 737 W/m 17,4 C 29,3 C 22,5 km/h (4 Bft) 97,37 %
10.07.2016 15:42 30,0 C 45 % 1012,3 hPa 0,0 l/m 15,2 km/h (3 Bft) O-NO 78 2 min 0,000 mm 4,8 UV-I 742 W/m 16,7 C 29,4 C 24,1 km/h (4 Bft) 94,64 %
10.07.2016 15:44 30,1 C 45 % 1012,4 hPa 0,0 l/m 14,2 km/h (3 Bft) NO 43 2 min 0,000 mm 4,7 UV-I 743 W/m 16,8 C 29,5 C 22,5 km/h (4 Bft) 95,12 %
10.07.2016 15:46 29,9 C 47 % 1012,3 hPa 0,0 l/m 9,1 km/h (2 Bft) N-NO 33 2 min 0,000 mm 4,7 UV-I 739 W/m 17,3 C 29,6 C 14,5 km/h (3 Bft) 96,23 %
10.07.2016 15:48 29,9 C 49 % 1012,3 hPa 0,0 l/m 11,4 km/h (2 Bft) N-NO 28 2 min 0,000 mm 4,6 UV-I 736 W/m 18,0 C 29,5 C 17,7 km/h (3 Bft) 97,87 %
10.07.2016 15:50 29,9 C 45 % 1012,3 hPa 0,0 l/m 12,5 km/h (3 Bft) NO 55 2 min 0,000 mm 4,6 UV-I 733 W/m 16,7 C 29,4 C 22,5 km/h (4 Bft) 97,56 %
10.07.2016 15:52 29,9 C 47 % 1012,3 hPa 0,0 l/m 12,3 km/h (3 Bft) O-NO 59 2 min 0,000 mm 4,5 UV-I 729 W/m 17,3 C 29,4 C 17,7 km/h (3 Bft) 98,00 %
10.07.2016 15:54 29,9 C 47 % 1012,2 hPa 0,0 l/m 14,8 km/h (3 Bft) NO 40 2 min 0,000 mm 4,5 UV-I 726 W/m 17,3 C 29,3 C 22,5 km/h (4 Bft) 97,73 %
10.07.2016 15:56 29,9 C 47 % 1012,2 hPa 0,0 l/m 11,6 km/h (2 Bft) N-NO 23 2 min 0,000 mm 4,4 UV-I 720 W/m 17,3 C 29,5 C 17,7 km/h (3 Bft) 98,11 %
10.07.2016 15:58 29,9 C 49 % 1012,2 hPa 0,0 l/m 13,3 km/h (3 Bft) NO 56 2 min 0,000 mm 4,4 UV-I 717 W/m 18,0 C 29,3 C 20,9 km/h (4 Bft) 97,87 %
10.07.2016 16:00 30,0 C 46 % 1012,1 hPa 0,0 l/m 8,1 km/h (2 Bft) NO 34 2 min 0,000 mm 4,3 UV-I 713 W/m 17,1 C 29,8 C 14,5 km/h (3 Bft) 100,00 %
10.07.2016 16:02 30,1 C 46 % 1012,1 hPa 0,0 l/m 17,4 km/h (3 Bft) NO 49 2 min 0,610 mm 4,2 UV-I 708 W/m 17,2 C 29,4 C 29,0 km/h (5 Bft) 100,00 %
10.07.2016 16:04 30,1 C 46 % 1012,2 hPa 0,0 l/m 15,1 km/h (3 Bft) O-NO 67 2 min 0,000 mm 4,2 UV-I 703 W/m 17,2 C 29,5 C 19,3 km/h (3 Bft) 97,73 %
10.07.2016 16:06 30,1 C 45 % 1012,1 hPa 0,0 l/m 13,4 km/h (3 Bft) O 79 2 min 0,000 mm 4,1 UV-I 701 W/m 16,8 C 29,6 C 19,3 km/h (3 Bft) 100,00 %
10.07.2016 16:08 30,2 C 46 % 1012,1 hPa 0,0 l/m 15,2 km/h (3 Bft) O-NO 69 2 min 0,000 mm 4,1 UV-I 698 W/m 17,3 C 29,6 C 19,3 km/h (3 Bft) 96,92 %
10.07.2016 16:10 30,1 C 46 % 1012,0 hPa 0,0 l/m 13,9 km/h (3 Bft) NO 47 2 min 0,000 mm 4,0 UV-I 693 W/m 17,2 C 29,5 C 20,9 km/h (4 Bft) 100,00 %
10.07.2016 16:12 30,0 C 46 % 1012,1 hPa 0,0 l/m 17,7 km/h (3 Bft) NO 45 2 min 0,000 mm 4,0 UV-I 689 W/m 17,1 C 29,2 C 24,1 km/h (4 Bft) 100,00 %
10.07.2016 16:14 29,9 C 48 % 1012,1 hPa 0,0 l/m 16,5 km/h (3 Bft) NO 50 2 min 0,000 mm 3,9 UV-I 685 W/m 17,7 C 29,2 C 22,5 km/h (4 Bft) 100,00 %
10.07.2016 16:16 29,8 C 46 % 1012,0 hPa 0,0 l/m 15,6 km/h (3 Bft) NO 55 2 min 0,000 mm 3,9 UV-I 680 W/m 16,9 C 29,1 C 24,1 km/h (4 Bft) 100,00 %
10.07.2016 16:18 29,9 C 47 % 1012,0 hPa 0,0 l/m 13,7 km/h (3 Bft) O-NO 68 2 min 0,000 mm 3,8 UV-I 676 W/m 17,3 C 29,3 C 22,5 km/h (4 Bft) 100,00 %
10.07.2016 16:20 30,1 C 47 % 1011,9 hPa 0,0 l/m 14,8 km/h (3 Bft) NO 56 2 min 0,000 mm 3,8 UV-I 669 W/m 17,5 C 29,5 C 20,9 km/h (4 Bft) 100,00 %
10.07.2016 16:22 30,1 C 46 % 1011,9 hPa 0,0 l/m 13,5 km/h (3 Bft) NO 40 2 min 0,000 mm 3,7 UV-I 665 W/m 17,2 C 29,6 C 20,9 km/h (4 Bft) 100,00 %
10.07.2016 16:24 30,3 C 47 % 1011,9 hPa 0,0 l/m 12,9 km/h (3 Bft) O-NO 65 2 min 0,000 mm 3,6 UV-I 661 W/m 17,7 C 29,8 C 20,9 km/h (4 Bft) 100,00 %
10.07.2016 16:26 30,3 C 47 % 1011,9 hPa 0,0 l/m 13,2 km/h (3 Bft) NO 42 2 min 0,000 mm 3,6 UV-I 657 W/m 17,7 C 29,8 C 20,9 km/h (4 Bft) 100,00 %
10.07.2016 16:28 30,3 C 48 % 1011,9 hPa 0,0 l/m 17,6 km/h (3 Bft) N-NO 26 2 min 0,000 mm 3,5 UV-I 653 W/m 18,0 C 29,6 C 24,1 km/h (4 Bft) 100,00 %
10.07.2016 16:30 30,1 C 49 % 1011,8 hPa 0,0 l/m 15,0 km/h (3 Bft) NO 44 2 min 0,000 mm 3,5 UV-I 647 W/m 18,2 C 29,5 C 22,5 km/h (4 Bft) 100,00 %
10.07.2016 16:32 30,1 C 48 % 1011,8 hPa 0,0 l/m 13,9 km/h (3 Bft) N-NO 30 2 min 0,000 mm 3,4 UV-I 642 W/m 17,9 C 29,5 C 19,3 km/h (3 Bft) 97,62 %
10.07.2016 16:34 29,9 C 49 % 1011,8 hPa 0,0 l/m 11,4 km/h (2 Bft) O-NO 64 2 min 0,000 mm 3,4 UV-I 637 W/m 18,0 C 29,5 C 20,9 km/h (4 Bft) 98,08 %
10.07.2016 16:36 30,1 C 47 % 1011,7 hPa 0,0 l/m 11,7 km/h (2 Bft) NO 53 2 min 0,000 mm 3,3 UV-I 634 W/m 17,5 C 29,7 C 17,7 km/h (3 Bft) 100,00 %
10.07.2016 16:38 30,2 C 49 % 1011,7 hPa 0,0 l/m 13,0 km/h (3 Bft) NO 56 2 min 0,000 mm 3,3 UV-I 628 W/m 18,3 C 29,7 C 19,3 km/h (3 Bft) 100,00 %
10.07.2016 16:40 30,2 C 45 % 1011,6 hPa 0,0 l/m 16,2 km/h (3 Bft) NO 51 2 min 0,000 mm 3,2 UV-I 624 W/m 16,9 C 29,5 C 24,1 km/h (4 Bft) 100,00 %
10.07.2016 16:42 30,1 C 46 % 1011,6 hPa 0,0 l/m 12,2 km/h (2 Bft) O 88 2 min 0,000 mm 3,2 UV-I 619 W/m 17,2 C 29,6 C 17,7 km/h (3 Bft) 100,00 %
10.07.2016 16:44 30,2 C 50 % 1011,6 hPa 0,0 l/m 11,1 km/h (2 Bft) O-NO 76 2 min 0,000 mm 3,1 UV-I 613 W/m 18,6 C 29,8 C 17,7 km/h (3 Bft) 98,11 %
10.07.2016 16:46 30,2 C 48 % 1011,5 hPa 0,0 l/m 13,4 km/h (3 Bft) NO 46 2 min 0,000 mm 3,1 UV-I 609 W/m 17,9 C 29,7 C 24,1 km/h (4 Bft) 100,00 %
10.07.2016 16:48 30,2 C 47 % 1011,5 hPa 0,0 l/m 18,1 km/h (3 Bft) O-NO 62 2 min 0,000 mm 3,0 UV-I 606 W/m 17,6 C 29,5 C 22,5 km/h (4 Bft) 100,00 %
10.07.2016 16:50 30,1 C 46 % 1011,4 hPa 0,0 l/m 18,2 km/h (3 Bft) O-NO 65 2 min 0,000 mm 3,0 UV-I 600 W/m 17,2 C 29,3 C 25,7 km/h (4 Bft) 100,00 %
10.07.2016 16:52 30,1 C 47 % 1011,4 hPa 0,0 l/m 15,4 km/h (3 Bft) O-NO 78 2 min 0,000 mm 2,9 UV-I 597 W/m 17,5 C 29,5 C 20,9 km/h (4 Bft) 100,00 %
10.07.2016 16:54 30,2 C 46 % 1011,4 hPa 0,0 l/m 14,5 km/h (3 Bft) NO 45 2 min 0,000 mm 2,9 UV-I 591 W/m 17,3 C 29,6 C 20,9 km/h (4 Bft) 100,00 %
10.07.2016 16:56 30,1 C 48 % 1011,4 hPa 0,0 l/m 17,1 km/h (3 Bft) O-NO 73 2 min 0,000 mm 2,8 UV-I 587 W/m 17,9 C 29,4 C 24,1 km/h (4 Bft) 100,00 %
10.07.2016 16:58 30,1 C 47 % 1011,4 hPa 0,0 l/m 13,5 km/h (3 Bft) O-NO 59 2 min 0,000 mm 2,8 UV-I 583 W/m 17,5 C 29,6 C 25,7 km/h (4 Bft) 100,00 %
10.07.2016 17:00 30,2 C 47 % 1011,4 hPa 0,0 l/m 16,7 km/h (3 Bft) NO 55 2 min 0,000 mm 2,7 UV-I 580 W/m 17,6 C 29,5 C 25,7 km/h (4 Bft) 100,00 %
10.07.2016 17:02 30,2 C 47 % 1011,4 hPa 0,0 l/m 14,0 km/h (3 Bft) NO 49 2 min 0,559 mm 2,7 UV-I 578 W/m 17,6 C 29,7 C 20,9 km/h (4 Bft) 100,00 %
10.07.2016 17:04 30,2 C 46 % 1011,4 hPa 0,0 l/m 15,5 km/h (3 Bft) NO 53 2 min 0,000 mm 2,6 UV-I 533 W/m 17,3 C 29,6 C 24,1 km/h (4 Bft) 100,00 %
10.07.2016 17:06 30,0 C 49 % 1011,4 hPa 0,0 l/m 15,4 km/h (3 Bft) NO 44 2 min 0,000 mm 2,4 UV-I 479 W/m 18,1 C 29,3 C 20,9 km/h (4 Bft) 100,00 %
10.07.2016 17:08 29,8 C 48 % 1011,3 hPa 0,0 l/m 13,6 km/h (3 Bft) NO 53 2 min 0,000 mm 2,4 UV-I 481 W/m 17,6 C 29,2 C 19,3 km/h (3 Bft) 100,00 %
10.07.2016 17:10 29,8 C 47 % 1011,4 hPa 0,0 l/m 14,0 km/h (3 Bft) O-NO 59 2 min 0,000 mm 2,2 UV-I 410 W/m 17,2 C 29,2 C 19,3 km/h (3 Bft) 100,00 %
10.07.2016 17:12 29,8 C 48 % 1011,3 hPa 0,0 l/m 14,2 km/h (3 Bft) O 79 2 min 0,000 mm 2,2 UV-I 423 W/m 17,6 C 29,2 C 19,3 km/h (3 Bft) 100,00 %
10.07.2016 17:14 29,7 C 48 % 1011,3 hPa 0,0 l/m 12,6 km/h (3 Bft) NO 56 2 min 0,000 mm 2,4 UV-I 539 W/m 17,5 C 29,2 C 17,7 km/h (3 Bft) 100,00 %
10.07.2016 17:16 29,8 C 46 % 1011,3 hPa 0,0 l/m 16,7 km/h (3 Bft) O-NO 76 2 min 0,000 mm 2,4 UV-I 565 W/m 16,9 C 29,0 C 22,5 km/h (4 Bft) 100,00 %
10.07.2016 17:18 29,8 C 46 % 1011,3 hPa 0,0 l/m 16,5 km/h (3 Bft) O-NO 58 2 min 0,000 mm 2,3 UV-I 555 W/m 16,9 C 29,0 C 22,5 km/h (4 Bft) 96,43 %
10.07.2016 17:20 30,0 C 47 % 1011,2 hPa 0,0 l/m 14,0 km/h (3 Bft) NO 44 2 min 0,000 mm 2,2 UV-I 489 W/m 17,4 C 29,4 C 20,9 km/h (4 Bft) 95,74 %
10.07.2016 17:22 29,9 C 47 % 1011,2 hPa 0,0 l/m 17,1 km/h (3 Bft) NO 40 2 min 0,000 mm 2,1 UV-I 451 W/m 17,3 C 29,1 C 24,1 km/h (4 Bft) 96,00 %
10.07.2016 17:24 29,7 C 46 % 1011,2 hPa 0,0 l/m 14,2 km/h (3 Bft) NO 40 2 min 0,000 mm 2,0 UV-I 386 W/m 16,8 C 29,1 C 20,9 km/h (4 Bft) 97,56 %
10.07.2016 17:26 29,7 C 46 % 1011,2 hPa 0,0 l/m 14,4 km/h (3 Bft) O-NO 57 2 min 0,000 mm 2,0 UV-I 382 W/m 16,8 C 29,0 C 22,5 km/h (4 Bft) 98,11 %
10.07.2016 17:28 29,8 C 45 % 1011,2 hPa 0,0 l/m 15,6 km/h (3 Bft) NO 50 2 min 0,000 mm 2,1 UV-I 468 W/m 16,6 C 29,1 C 24,1 km/h (4 Bft) 94,74 %
10.07.2016 17:30 29,8 C 46 % 1011,1 hPa 0,0 l/m 13,8 km/h (3 Bft) NO 55 2 min 0,000 mm 1,9 UV-I 378 W/m 16,9 C 29,2 C 19,3 km/h (3 Bft) 96,23 %
10.07.2016 17:32 29,8 C 46 % 1011,1 hPa 0,0 l/m 16,7 km/h (3 Bft) O-NO 65 2 min 0,000 mm 1,9 UV-I 375 W/m 16,9 C 29,0 C 20,9 km/h (4 Bft) 95,12 %
10.07.2016 17:34 29,8 C 46 % 1011,1 hPa 0,0 l/m 12,7 km/h (3 Bft) NO 43 2 min 0,000 mm 1,9 UV-I 445 W/m 16,9 C 29,3 C 22,5 km/h (4 Bft) 98,00 %
10.07.2016 17:36 29,8 C 46 % 1011,1 hPa 0,0 l/m 15,8 km/h (3 Bft) O-NO 57 2 min 0,000 mm 2,0 UV-I 521 W/m 16,9 C 29,1 C 20,9 km/h (4 Bft) 97,73 %
10.07.2016 17:38 29,8 C 47 % 1011,0 hPa 0,0 l/m 12,2 km/h (2 Bft) N-NO 32 2 min 0,000 mm 1,9 UV-I 460 W/m 17,2 C 29,3 C 24,1 km/h (4 Bft) 98,00 %
10.07.2016 17:40 29,7 C 47 % 1011,0 hPa 0,0 l/m 15,3 km/h (3 Bft) O-NO 60 2 min 0,000 mm 1,8 UV-I 407 W/m 17,2 C 29,0 C 24,1 km/h (4 Bft) 97,87 %
10.07.2016 17:42 29,7 C 46 % 1011,0 hPa 0,0 l/m 13,8 km/h (3 Bft) NO 52 2 min 0,000 mm 1,8 UV-I 487 W/m 16,8 C 29,1 C 19,3 km/h (3 Bft) 98,00 %
10.07.2016 17:44 29,8 C 46 % 1011,0 hPa 0,0 l/m 12,9 km/h (3 Bft) NO 51 2 min 0,000 mm 1,8 UV-I 516 W/m 16,9 C 29,3 C 17,7 km/h (3 Bft) 96,55 %
10.07.2016 17:46 29,9 C 46 % 1011,0 hPa 0,0 l/m 14,6 km/h (3 Bft) O-NO 69 2 min 0,000 mm 1,8 UV-I 507 W/m 17,0 C 29,3 C 20,9 km/h (4 Bft) 96,23 %
10.07.2016 17:48 30,0 C 45 % 1011,0 hPa 0,0 l/m 17,5 km/h (3 Bft) NO 53 2 min 0,000 mm 1,7 UV-I 498 W/m 16,7 C 29,2 C 24,1 km/h (4 Bft) 96,43 %
10.07.2016 17:50 30,1 C 47 % 1010,9 hPa 0,0 l/m 11,3 km/h (2 Bft) N-NO 28 2 min 0,000 mm 1,7 UV-I 488 W/m 17,5 C 29,7 C 19,3 km/h (3 Bft) 100,00 %
10.07.2016 17:52 30,2 C 45 % 1010,9 hPa 0,0 l/m 15,0 km/h (3 Bft) NO 54 2 min 0,000 mm 1,6 UV-I 481 W/m 16,9 C 29,6 C 22,5 km/h (4 Bft) 98,00 %
10.07.2016 17:54 30,1 C 46 % 1010,9 hPa 0,0 l/m 13,6 km/h (3 Bft) NO 42 2 min 0,000 mm 1,6 UV-I 471 W/m 17,2 C 29,6 C 19,3 km/h (3 Bft) 98,00 %
10.07.2016 17:56 30,1 C 46 % 1010,9 hPa 0,0 l/m 13,6 km/h (3 Bft) O-NO 63 2 min 0,000 mm 1,5 UV-I 464 W/m 17,2 C 29,6 C 20,9 km/h (4 Bft) 97,87 %
10.07.2016 17:58 30,1 C 45 % 1010,9 hPa 0,0 l/m 14,9 km/h (3 Bft) O-NO 78 2 min 0,000 mm 1,5 UV-I 458 W/m 16,8 C 29,5 C 22,5 km/h (4 Bft) 100,00 %
10.07.2016 18:00 30,1 C 45 % 1010,9 hPa 0,0 l/m 11,6 km/h (2 Bft) NO 47 2 min 0,457 mm 1,4 UV-I 452 W/m 16,8 C 29,7 C 16,1 km/h (3 Bft) 98,11 %
10.07.2016 18:02 30,0 C 47 % 1010,8 hPa 0,0 l/m 19,6 km/h (3 Bft) NO 44 2 min 0,000 mm 1,4 UV-I 444 W/m 17,4 C 29,1 C 27,4 km/h (4 Bft) 97,56 %
10.07.2016 18:04 29,8 C 47 % 1010,8 hPa 0,0 l/m 16,9 km/h (3 Bft) O-NO 62 2 min 0,000 mm 1,3 UV-I 435 W/m 17,2 C 29,0 C 24,1 km/h (4 Bft) 95,45 %
10.07.2016 18:06 29,8 C 46 % 1010,8 hPa 0,0 l/m 11,9 km/h (2 Bft) NO 54 2 min 0,000 mm 1,3 UV-I 426 W/m 16,9 C 29,3 C 20,9 km/h (4 Bft) 100,00 %
10.07.2016 18:08 29,9 C 46 % 1010,7 hPa 0,0 l/m 12,2 km/h (2 Bft) O-NO 76 2 min 0,000 mm 1,2 UV-I 418 W/m 17,0 C 29,4 C 20,9 km/h (4 Bft) 100,00 %
10.07.2016 18:10 30,1 C 47 % 1010,7 hPa 0,0 l/m 12,2 km/h (2 Bft) NO 36 2 min 0,000 mm 1,2 UV-I 409 W/m 17,5 C 29,6 C 25,7 km/h (4 Bft) 97,37 %
10.07.2016 18:12 29,9 C 48 % 1010,7 hPa 0,0 l/m 14,8 km/h (3 Bft) NO 44 2 min 0,000 mm 1,2 UV-I 401 W/m 17,7 C 29,3 C 22,5 km/h (4 Bft) 100,00 %
10.07.2016 18:14 29,8 C 48 % 1010,7 hPa 0,0 l/m 16,2 km/h (3 Bft) O-NO 59 2 min 0,000 mm 1,1 UV-I 392 W/m 17,6 C 29,1 C 24,1 km/h (4 Bft) 100,00 %
10.07.2016 18:16 29,8 C 48 % 1010,7 hPa 0,0 l/m 11,1 km/h (2 Bft) O-NO 60 2 min 0,000 mm 1,1 UV-I 382 W/m 17,6 C 29,4 C 19,3 km/h (3 Bft) 100,00 %
10.07.2016 18:18 29,9 C 48 % 1010,7 hPa 0,0 l/m 11,9 km/h (2 Bft) O-NO 71 2 min 0,000 mm 1,1 UV-I 374 W/m 17,7 C 29,4 C 16,1 km/h (3 Bft) 100,00 %
10.07.2016 18:20 29,9 C 47 % 1010,6 hPa 0,0 l/m 12,1 km/h (2 Bft) N-NO 29 2 min 0,000 mm 1,0 UV-I 367 W/m 17,3 C 29,4 C 17,7 km/h (3 Bft) 100,00 %
10.07.2016 18:22 29,8 C 46 % 1010,6 hPa 0,0 l/m 15,9 km/h (3 Bft) O-NO 61 2 min 0,000 mm 1,0 UV-I 359 W/m 16,9 C 29,1 C 19,3 km/h (3 Bft) 100,00 %
10.07.2016 18:24 29,8 C 46 % 1010,6 hPa 0,0 l/m 11,7 km/h (2 Bft) NO 42 2 min 0,000 mm 1,0 UV-I 351 W/m 16,9 C 29,3 C 19,3 km/h (3 Bft) 100,00 %
10.07.2016 18:26 29,7 C 47 % 1010,6 hPa 0,0 l/m 15,3 km/h (3 Bft) O-NO 61 2 min 0,000 mm 0,9 UV-I 345 W/m 17,2 C 29,0 C 24,1 km/h (4 Bft) 100,00 %
10.07.2016 18:28 29,6 C 47 % 1010,6 hPa 0,0 l/m 13,6 km/h (3 Bft) N-NO 32 2 min 0,000 mm 0,9 UV-I 339 W/m 17,1 C 29,0 C 20,9 km/h (4 Bft) 97,56 %
10.07.2016 18:30 29,4 C 48 % 1010,6 hPa 0,0 l/m 12,5 km/h (3 Bft) N-NO 28 2 min 0,000 mm 0,9 UV-I 331 W/m 17,2 C 28,8 C 19,3 km/h (3 Bft) 98,11 %
10.07.2016 18:32 29,4 C 48 % 1010,6 hPa 0,0 l/m 11,4 km/h (2 Bft) NO 56 2 min 0,000 mm 0,9 UV-I 324 W/m 17,2 C 28,9 C 19,3 km/h (3 Bft) 100,00 %
10.07.2016 18:34 29,4 C 50 % 1010,6 hPa 0,0 l/m 11,5 km/h (2 Bft) NO 55 2 min 0,000 mm 0,8 UV-I 318 W/m 17,9 C 28,9 C 17,7 km/h (3 Bft) 98,18 %
10.07.2016 18:36 29,5 C 49 % 1010,6 hPa 0,0 l/m 8,1 km/h (2 Bft) NO 37 2 min 0,000 mm 0,8 UV-I 312 W/m 17,6 C 29,3 C 12,9 km/h (3 Bft) 97,87 %
10.07.2016 18:38 29,6 C 48 % 1010,6 hPa 0,0 l/m 8,2 km/h (2 Bft) NO 40 2 min 0,000 mm 0,8 UV-I 305 W/m 17,4 C 29,4 C 12,9 km/h (3 Bft) 97,44 %
10.07.2016 18:40 29,5 C 50 % 1010,5 hPa 0,0 l/m 11,2 km/h (2 Bft) NO 46 2 min 0,000 mm 0,8 UV-I 299 W/m 18,0 C 29,0 C 17,7 km/h (3 Bft) 100,00 %
10.07.2016 18:42 29,4 C 50 % 1010,5 hPa 0,0 l/m 12,9 km/h (3 Bft) N-NO 29 2 min 0,000 mm 0,8 UV-I 293 W/m 17,9 C 28,8 C 19,3 km/h (3 Bft) 97,96 %
10.07.2016 18:44 29,2 C 49 % 1010,5 hPa 0,0 l/m 11,6 km/h (2 Bft) NO 53 2 min 0,000 mm 0,7 UV-I 287 W/m 17,4 C 28,7 C 16,1 km/h (3 Bft) 97,87 %
10.07.2016 18:46 29,3 C 51 % 1010,5 hPa 0,0 l/m 7,8 km/h (2 Bft) N-NO 26 2 min 0,000 mm 0,7 UV-I 281 W/m 18,1 C 29,1 C 14,5 km/h (3 Bft) 100,00 %
10.07.2016 18:48 29,4 C 49 % 1010,4 hPa 0,0 l/m 9,5 km/h (2 Bft) O-NO 67 2 min 0,000 mm 0,7 UV-I 275 W/m 17,5 C 29,1 C 16,1 km/h (3 Bft) 98,31 %
10.07.2016 18:50 29,5 C 47 % 1010,4 hPa 0,0 l/m 11,8 km/h (2 Bft) O-NO 59 2 min 0,000 mm 0,7 UV-I 269 W/m 17,0 C 29,0 C 16,1 km/h (3 Bft) 97,37 %
10.07.2016 18:52 29,6 C 45 % 1010,5 hPa 0,0 l/m 16,3 km/h (3 Bft) O-NO 71 2 min 0,000 mm 0,6 UV-I 263 W/m 16,4 C 28,8 C 22,5 km/h (4 Bft) 100,00 %
10.07.2016 18:54 29,6 C 46 % 1010,5 hPa 0,0 l/m 14,0 km/h (3 Bft) O-NO 77 2 min 0,000 mm 0,6 UV-I 258 W/m 16,7 C 28,9 C 22,5 km/h (4 Bft) 100,00 %
10.07.2016 18:56 29,7 C 45 % 1010,4 hPa 0,0 l/m 14,3 km/h (3 Bft) NO 46 2 min 0,000 mm 0,6 UV-I 253 W/m 16,5 C 29,0 C 22,5 km/h (4 Bft) 100,00 %
10.07.2016 18:58 29,7 C 45 % 1010,4 hPa 0,0 l/m 13,9 km/h (3 Bft) O 82 2 min 0,000 mm 0,6 UV-I 248 W/m 16,5 C 29,1 C 20,9 km/h (4 Bft) 100,00 %
10.07.2016 19:00 29,7 C 45 % 1010,4 hPa 0,0 l/m 14,6 km/h (3 Bft) O-NO 60 2 min 0,330 mm 0,5 UV-I 243 W/m 16,5 C 29,0 C 24,1 km/h (4 Bft) 100,00 %
10.07.2016 19:02 29,7 C 46 % 1010,5 hPa 0,0 l/m 12,4 km/h (3 Bft) O 82 2 min 0,000 mm 0,5 UV-I 237 W/m 16,8 C 29,2 C 20,9 km/h (4 Bft) 100,00 %
10.07.2016 19:04 29,6 C 44 % 1010,4 hPa 0,0 l/m 11,2 km/h (2 Bft) O 79 2 min 0,000 mm 0,5 UV-I 231 W/m 16,0 C 29,1 C 19,3 km/h (3 Bft) 100,00 %
10.07.2016 19:06 29,6 C 44 % 1010,4 hPa 0,0 l/m 12,0 km/h (2 Bft) O-NO 65 2 min 0,000 mm 0,5 UV-I 225 W/m 16,0 C 29,1 C 17,7 km/h (3 Bft) 100,00 %
10.07.2016 19:08 29,6 C 46 % 1010,5 hPa 0,0 l/m 14,4 km/h (3 Bft) NO 54 2 min 0,000 mm 0,4 UV-I 219 W/m 16,7 C 28,9 C 20,9 km/h (4 Bft) 100,00 %
10.07.2016 19:10 29,6 C 46 % 1010,5 hPa 0,0 l/m 10,3 km/h (2 Bft) O-NO 60 2 min 0,000 mm 0,0 UV-I 213 W/m 16,7 C 29,2 C 16,1 km/h (3 Bft) 97,62 %
10.07.2016 19:12 29,4 C 46 % 1010,4 hPa 0,0 l/m 13,8 km/h (3 Bft) O-NO 57 2 min 0,000 mm 0,0 UV-I 207 W/m 16,5 C 28,7 C 22,5 km/h (4 Bft) 97,56 %
10.07.2016 19:14 29,4 C 48 % 1010,4 hPa 0,0 l/m 11,1 km/h (2 Bft) O-NO 62 2 min 0,000 mm 0,0 UV-I 200 W/m 17,2 C 28,9 C 17,7 km/h (3 Bft) 96,55 %
10.07.2016 19:16 29,3 C 46 % 1010,4 hPa 0,0 l/m 14,8 km/h (3 Bft) O-NO 59 2 min 0,000 mm 0,0 UV-I 194 W/m 16,5 C 28,5 C 19,3 km/h (3 Bft) 100,00 %
10.07.2016 19:18 29,3 C 46 % 1010,4 hPa 0,0 l/m 13,8 km/h (3 Bft) NO 50 2 min 0,000 mm 0,0 UV-I 188 W/m 16,5 C 28,6 C 20,9 km/h (4 Bft) 96,43 %
10.07.2016 19:20 29,2 C 48 % 1010,4 hPa 0,0 l/m 11,7 km/h (2 Bft) NO 38 2 min 0,000 mm 0,0 UV-I 181 W/m 17,0 C 28,6 C 17,7 km/h (3 Bft) 95,12 %
10.07.2016 19:22 29,1 C 49 % 1010,3 hPa 0,0 l/m 12,5 km/h (3 Bft) O 82 2 min 0,000 mm 0,0 UV-I 175 W/m 17,3 C 28,5 C 19,3 km/h (3 Bft) 97,87 %
10.07.2016 19:24 29,0 C 47 % 1010,4 hPa 0,0 l/m 12,6 km/h (3 Bft) O-NO 69 2 min 0,000 mm 0,0 UV-I 170 W/m 16,5 C 28,3 C 19,3 km/h (3 Bft) 97,56 %
10.07.2016 19:26 28,9 C 48 % 1010,3 hPa 0,0 l/m 11,3 km/h (2 Bft) NO 46 2 min 0,000 mm 0,0 UV-I 164 W/m 16,8 C 28,3 C 16,1 km/h (3 Bft) 98,21 %
10.07.2016 19:28 28,9 C 48 % 1010,3 hPa 0,0 l/m 10,0 km/h (2 Bft) NO 55 2 min 0,000 mm 0,0 UV-I 158 W/m 16,8 C 28,5 C 17,7 km/h (3 Bft) 96,00 %
10.07.2016 19:30 28,9 C 50 % 1010,3 hPa 0,0 l/m 7,2 km/h (2 Bft) NO 51 2 min 0,000 mm 0,0 UV-I 152 W/m 17,4 C 28,8 C 9,7 km/h (2 Bft) 97,37 %
10.07.2016 19:32 28,8 C 50 % 1010,4 hPa 0,0 l/m 8,1 km/h (2 Bft) NO 56 2 min 0,000 mm 0,0 UV-I 147 W/m 17,3 C 28,6 C 12,9 km/h (3 Bft) 96,23 %
10.07.2016 19:34 28,6 C 50 % 1010,3 hPa 0,0 l/m 8,8 km/h (2 Bft) O-NO 62 2 min 0,000 mm 0,0 UV-I 140 W/m 17,1 C 28,3 C 12,9 km/h (3 Bft) 97,73 %
10.07.2016 19:36 28,6 C 50 % 1010,3 hPa 0,0 l/m 7,9 km/h (2 Bft) O-NO 76 2 min 0,000 mm 0,0 UV-I 134 W/m 17,1 C 28,4 C 12,9 km/h (3 Bft) 98,11 %
10.07.2016 19:38 28,4 C 50 % 1010,3 hPa 0,0 l/m 8,7 km/h (2 Bft) NO 55 2 min 0,000 mm 0,0 UV-I 129 W/m 17,0 C 28,1 C 14,5 km/h (3 Bft) 97,37 %
10.07.2016 19:40 28,4 C 50 % 1010,3 hPa 0,0 l/m 9,1 km/h (2 Bft) NO 53 2 min 0,000 mm 0,0 UV-I 124 W/m 17,0 C 28,0 C 14,5 km/h (3 Bft) 98,08 %
10.07.2016 19:42 28,4 C 50 % 1010,3 hPa 0,0 l/m 9,9 km/h (2 Bft) O-NO 65 2 min 0,000 mm 0,0 UV-I 118 W/m 17,0 C 27,9 C 16,1 km/h (3 Bft) 97,73 %
10.07.2016 19:44 28,3 C 51 % 1010,3 hPa 0,0 l/m 9,1 km/h (2 Bft) O-NO 68 2 min 0,000 mm 0,0 UV-I 114 W/m 17,2 C 27,9 C 14,5 km/h (3 Bft) 100,00 %
10.07.2016 19:46 28,3 C 50 % 1010,3 hPa 0,0 l/m 6,8 km/h (2 Bft) NO 47 2 min 0,000 mm 0,0 UV-I 108 W/m 16,9 C 28,2 C 16,1 km/h (3 Bft) 98,11 %
10.07.2016 19:48 28,3 C 51 % 1010,3 hPa 0,0 l/m 8,6 km/h (2 Bft) NO 49 2 min 0,000 mm 0,0 UV-I 103 W/m 17,2 C 28,0 C 16,1 km/h (3 Bft) 100,00 %
10.07.2016 19:50 28,2 C 50 % 1010,2 hPa 0,0 l/m 9,8 km/h (2 Bft) O-NO 65 2 min 0,000 mm 0,0 UV-I 98 W/m 16,8 C 27,7 C 17,7 km/h (3 Bft) 100,00 %
10.07.2016 19:52 28,2 C 51 % 1010,2 hPa 0,0 l/m 8,3 km/h (2 Bft) NO 46 2 min 0,000 mm 0,0 UV-I 93 W/m 17,1 C 27,9 C 14,5 km/h (3 Bft) 95,74 %
10.07.2016 19:54 28,1 C 52 % 1010,2 hPa 0,0 l/m 6,9 km/h (2 Bft) N-NO 22 2 min 0,000 mm 0,0 UV-I 88 W/m 17,3 C 28,0 C 9,7 km/h (2 Bft) 100,00 %
10.07.2016 19:56 28,0 C 53 % 1010,2 hPa 0,0 l/m 8,3 km/h (2 Bft) O-NO 61 2 min 0,000 mm 0,0 UV-I 84 W/m 17,5 C 27,7 C 12,9 km/h (3 Bft) 100,00 %
10.07.2016 19:58 27,9 C 53 % 1010,2 hPa 0,0 l/m 7,1 km/h (2 Bft) NO 47 0 min 0,000 mm 0,0 UV-I 79 W/m 17,4 C 27,8 C 14,5 km/h (3 Bft) 100,00 %
10.07.2016 20:00 27,9 C 51 % 1010,2 hPa 0,0 l/m 6,8 km/h (2 Bft) NO 51 0 min 0,000 mm 0,0 UV-I 74 W/m 16,8 C 27,8 C 12,9 km/h (3 Bft) 100,00 %
10.07.2016 20:02 27,8 C 52 % 1010,2 hPa 0,0 l/m 7,1 km/h (2 Bft) O-NO 59 0 min 0,203 mm 0,0 UV-I 70 W/m 17,0 C 27,7 C 11,3 km/h (2 Bft) 100,00 %
10.07.2016 20:04 27,8 C 52 % 1010,2 hPa 0,0 l/m 8,3 km/h (2 Bft) O-NO 57 0 min 0,000 mm 0,0 UV-I 68 W/m 17,0 C 27,5 C 12,9 km/h (3 Bft) 100,00 %
10.07.2016 20:06 27,7 C 52 % 1010,2 hPa 0,0 l/m 6,4 km/h (2 Bft) O-NO 65 0 min 0,000 mm 0,0 UV-I 65 W/m 16,9 C 27,7 C 9,7 km/h (2 Bft) 98,11 %
10.07.2016 20:08 27,6 C 52 % 1010,2 hPa 0,0 l/m 7,2 km/h (2 Bft) N-NO 28 0 min 0,000 mm 0,0 UV-I 60 W/m 16,8 C 27,5 C 12,9 km/h (3 Bft) 100,00 %
10.07.2016 20:10 27,3 C 54 % 1010,2 hPa 0,0 l/m 7,6 km/h (2 Bft) NO 39 0 min 0,000 mm 0,0 UV-I 42 W/m 17,2 C 27,1 C 11,3 km/h (2 Bft) 100,00 %
10.07.2016 20:12 27,1 C 55 % 1010,1 hPa 0,0 l/m 8,0 km/h (2 Bft) O 80 0 min 0,000 mm 0,0 UV-I 34 W/m 17,3 C 26,8 C 11,3 km/h (2 Bft) 100,00 %
10.07.2016 20:14 26,9 C 54 % 1010,2 hPa 0,0 l/m 7,1 km/h (2 Bft) N-NO 27 0 min 0,000 mm 0,0 UV-I 45 W/m 16,8 C 26,8 C 11,3 km/h (2 Bft) 100,00 %
10.07.2016 20:16 26,9 C 53 % 1010,1 hPa 0,0 l/m 7,2 km/h (2 Bft) NO 43 0 min 0,000 mm 0,0 UV-I 46 W/m 16,5 C 26,7 C 11,3 km/h (2 Bft) 100,00 %
10.07.2016 20:18 26,9 C 54 % 1010,2 hPa 0,0 l/m 7,8 km/h (2 Bft) NO 42 0 min 0,000 mm 0,0 UV-I 42 W/m 16,8 C 26,6 C 11,3 km/h (2 Bft) 100,00 %
10.07.2016 20:20 26,8 C 54 % 1010,2 hPa 0,0 l/m 8,7 km/h (2 Bft) O-NO 67 0 min 0,000 mm 0,0 UV-I 38 W/m 16,7 C 26,4 C 16,1 km/h (3 Bft) 100,00 %
10.07.2016 20:22 26,8 C 53 % 1010,2 hPa 0,0 l/m 10,9 km/h (2 Bft) O-NO 61 0 min 0,000 mm 0,0 UV-I 33 W/m 16,4 C 26,0 C 19,3 km/h (3 Bft) 95,83 %
10.07.2016 20:24 26,8 C 53 % 1010,1 hPa 0,0 l/m 9,3 km/h (2 Bft) O-NO 64 0 min 0,000 mm 0,0 UV-I 24 W/m 16,4 C 26,3 C 14,5 km/h (3 Bft) 100,00 %
10.07.2016 20:26 26,9 C 53 % 1010,1 hPa 0,0 l/m 9,2 km/h (2 Bft) NO 46 0 min 0,000 mm 0,0 UV-I 21 W/m 16,5 C 26,4 C 14,5 km/h (3 Bft) 100,00 %
10.07.2016 20:28 26,9 C 53 % 1010,1 hPa 0,0 l/m 9,3 km/h (2 Bft) O-NO 64 0 min 0,000 mm 0,0 UV-I 19 W/m 16,5 C 26,4 C 12,9 km/h (3 Bft) 100,00 %
10.07.2016 20:30 26,8 C 54 % 1010,1 hPa 0,0 l/m 8,3 km/h (2 Bft) O-NO 58 0 min 0,000 mm 0,0 UV-I 18 W/m 16,7 C 26,4 C 12,9 km/h (3 Bft) 100,00 %
10.07.2016 20:32 26,7 C 53 % 1010,1 hPa 0,0 l/m 8,7 km/h (2 Bft) NO 42 0 min 0,000 mm 0,0 UV-I 17 W/m 16,3 C 26,3 C 12,9 km/h (3 Bft) 100,00 %
10.07.2016 20:34 26,7 C 53 % 1010,1 hPa 0,0 l/m 7,8 km/h (2 Bft) O-NO 64 0 min 0,000 mm 0,0 UV-I 16 W/m 16,3 C 26,4 C 11,3 km/h (2 Bft) 100,00 %
10.07.2016 20:36 26,6 C 54 % 1010,1 hPa 0,0 l/m 7,0 km/h (2 Bft) NO 46 0 min 0,000 mm 0,0 UV-I 14 W/m 16,5 C 26,5 C 11,3 km/h (2 Bft) 100,00 %
10.07.2016 20:38 26,6 C 54 % 1010,1 hPa 0,0 l/m 9,1 km/h (2 Bft) O-NO 60 0 min 0,000 mm 0,0 UV-I 13 W/m 16,5 C 26,1 C 14,5 km/h (3 Bft) 97,56 %
10.07.2016 20:40 26,5 C 55 % 1010,1 hPa 0,0 l/m 8,1 km/h (2 Bft) O-NO 63 0 min 0,000 mm 0,0 UV-I 12 W/m 16,7 C 26,2 C 14,5 km/h (3 Bft) 98,00 %
10.07.2016 20:42 26,4 C 55 % 1010,1 hPa 0,0 l/m 8,7 km/h (2 Bft) NO 49 0 min 0,000 mm 0,0 UV-I 11 W/m 16,6 C 25,9 C 12,9 km/h (3 Bft) 100,00 %
10.07.2016 20:44 26,3 C 55 % 1010,1 hPa 0,0 l/m 6,9 km/h (2 Bft) O-NO 57 0 min 0,000 mm 0,0 UV-I 9 W/m 16,5 C 26,2 C 11,3 km/h (2 Bft) 100,00 %
10.07.2016 20:46 26,3 C 55 % 1010,0 hPa 0,0 l/m 7,5 km/h (2 Bft) O-NO 57 0 min 0,000 mm 0,0 UV-I 9 W/m 16,5 C 26,1 C 12,9 km/h (3 Bft) 97,56 %
10.07.2016 20:48 26,2 C 56 % 1010,0 hPa 0,0 l/m 5,8 km/h (2 Bft) NO 55 0 min 0,000 mm 0,0 UV-I 8 W/m 16,7 C 26,2 C 9,7 km/h (2 Bft) 100,00 %
10.07.2016 20:50 25,9 C 56 % 1010,0 hPa 0,0 l/m 5,2 km/h (1 Bft) NO 53 0 min 0,000 mm 0,0 UV-I 7 W/m 16,4 C 25,9 C 8,0 km/h (2 Bft) 100,00 %
10.07.2016 20:52 25,7 C 59 % 1010,0 hPa 0,0 l/m 5,2 km/h (1 Bft) N-NO 33 0 min 0,000 mm 0,0 UV-I 7 W/m 17,1 C 25,7 C 8,0 km/h (2 Bft) 95,12 %
10.07.2016 20:54 25,4 C 59 % 1010,0 hPa 0,0 l/m 5,6 km/h (1 Bft) N-NO 32 0 min 0,000 mm 0,0 UV-I 6 W/m 16,8 C 25,4 C 8,0 km/h (2 Bft) 100,00 %
10.07.2016 20:56 25,2 C 59 % 1010,0 hPa 0,0 l/m 3,4 km/h (1 Bft) N-NO 18 0 min 0,000 mm 0,0 UV-I 5 W/m 16,6 C 25,2 C 8,0 km/h (2 Bft) 100,00 %
10.07.2016 20:58 25,0 C 61 % 1010,0 hPa 0,0 l/m 4,6 km/h (1 Bft) NO 36 0 min 0,000 mm 0,0 UV-I 5 W/m 16,9 C 25,0 C 8,0 km/h (2 Bft) 100,00 %
10.07.2016 21:00 24,8 C 61 % 1010,1 hPa 0,0 l/m 3,2 km/h (1 Bft) N-NO 19 0 min 0,076 mm 0,0 UV-I 5 W/m 16,8 C 24,8 C 4,8 km/h (1 Bft) 97,73 %
10.07.2016 21:02 24,8 C 61 % 1010,0 hPa 0,0 l/m 1,2 km/h (1 Bft) N 11 0 min 0,000 mm 0,0 UV-I 0 W/m 16,8 C 24,8 C 4,8 km/h (1 Bft) 98,00 %
10.07.2016 21:04 24,7 C 62 % 1010,0 hPa 0,0 l/m 1,1 km/h (1 Bft) N 10 0 min 0,000 mm 0,0 UV-I 0 W/m 16,9 C 24,7 C 3,2 km/h (1 Bft) 95,74 %
10.07.2016 21:06 24,7 C 62 % 1010,0 hPa 0,0 l/m 0,4 km/h (0 Bft) N 10 0 min 0,000 mm 0,0 UV-I 0 W/m 16,9 C 24,7 C 1,6 km/h (1 Bft) 97,56 %
10.07.2016 21:08 24,7 C 61 % 1010,1 hPa 0,0 l/m 2,1 km/h (1 Bft) N-NO 15 0 min 0,000 mm 0,0 UV-I 0 W/m 16,7 C 24,7 C 4,8 km/h (1 Bft) 92,00 %
10.07.2016 21:10 24,7 C 61 % 1010,0 hPa 0,0 l/m 4,2 km/h (1 Bft) N-NO 26 0 min 0,000 mm 0,0 UV-I 0 W/m 16,7 C 24,7 C 6,4 km/h (2 Bft) 98,00 %
10.07.2016 21:12 24,7 C 61 % 1010,0 hPa 0,0 l/m 4,1 km/h (1 Bft) N-NO 26 0 min 0,000 mm 0,0 UV-I 0 W/m 16,7 C 24,7 C 4,8 km/h (1 Bft) 97,87 %
10.07.2016 21:14 24,7 C 61 % 1010,0 hPa 0,0 l/m 5,1 km/h (1 Bft) NO 43 0 min 0,000 mm 0,0 UV-I 0 W/m 16,7 C 24,7 C 6,4 km/h (2 Bft) 97,44 %
10.07.2016 21:16 24,7 C 62 % 1010,0 hPa 0,0 l/m 4,3 km/h (1 Bft) NO 50 0 min 0,000 mm 0,0 UV-I 0 W/m 16,9 C 24,7 C 6,4 km/h (2 Bft) 96,23 %
10.07.2016 21:18 24,6 C 62 % 1010,0 hPa 0,0 l/m 3,9 km/h (1 Bft) NO 44 0 min 0,000 mm 0,0 UV-I 0 W/m 16,8 C 24,6 C 6,4 km/h (2 Bft) 97,87 %
10.07.2016 21:20 24,6 C 62 % 1010,0 hPa 0,0 l/m 3,8 km/h (1 Bft) N-NO 26 0 min 0,000 mm 0,0 UV-I 0 W/m 16,8 C 24,6 C 6,4 km/h (2 Bft) 97,87 %
10.07.2016 21:22 24,6 C 62 % 1009,9 hPa 0,0 l/m 3,7 km/h (1 Bft) NO 46 0 min 0,000 mm 0,0 UV-I 0 W/m 16,8 C 24,6 C 6,4 km/h (2 Bft) 91,43 %
10.07.2016 21:24 24,5 C 62 % 1009,9 hPa 0,0 l/m 3,4 km/h (1 Bft) NO 46 0 min 0,000 mm 0,0 UV-I 0 W/m 16,7 C 24,5 C 4,8 km/h (1 Bft) 94,00 %
10.07.2016 21:26 24,4 C 63 % 1009,9 hPa 0,0 l/m 3,3 km/h (1 Bft) NO 51 0 min 0,000 mm 0,0 UV-I 0 W/m 16,9 C 24,4 C 4,8 km/h (1 Bft) 95,74 %
10.07.2016 21:28 24,4 C 63 % 1009,9 hPa 0,0 l/m 3,0 km/h (1 Bft) O-NO 65 0 min 0,000 mm 0,0 UV-I 0 W/m 16,9 C 24,4 C 4,8 km/h (1 Bft) 98,11 %
10.07.2016 21:30 24,3 C 63 % 1009,9 hPa 0,0 l/m 3,7 km/h (1 Bft) O-NO 65 0 min 0,000 mm 0,0 UV-I 0 W/m 16,8 C 24,3 C 4,8 km/h (1 Bft) 97,87 %
10.07.2016 21:32 24,3 C 63 % 1009,9 hPa 0,0 l/m 3,1 km/h (1 Bft) NO 40 0 min 0,000 mm 0,0 UV-I 0 W/m 16,8 C 24,3 C 4,8 km/h (1 Bft) 96,00 %
10.07.2016 21:34 24,2 C 64 % 1010,0 hPa 0,0 l/m 2,0 km/h (1 Bft) NO 40 0 min 0,000 mm 0,0 UV-I 0 W/m 16,9 C 24,2 C 3,2 km/h (1 Bft) 97,73 %
10.07.2016 21:36 24,2 C 64 % 1010,0 hPa 0,0 l/m 2,0 km/h (1 Bft) NO 40 0 min 0,000 mm 0,0 UV-I 0 W/m 16,9 C 24,2 C 3,2 km/h (1 Bft) 100,00 %
10.07.2016 21:38 24,2 C 64 % 1010,0 hPa 0,0 l/m 0,5 km/h (0 Bft) NO 40 0 min 0,000 mm 0,0 UV-I 0 W/m 16,9 C 24,2 C 3,2 km/h (1 Bft) 98,00 %
10.07.2016 21:40 24,2 C 64 % 1010,0 hPa 0,0 l/m 1,4 km/h (1 Bft) NO 40 0 min 0,000 mm 0,0 UV-I 0 W/m 16,9 C 24,2 C 3,2 km/h (1 Bft) 100,00 %
10.07.2016 21:42 24,1 C 64 % 1010,0 hPa 0,0 l/m 0,8 km/h (0 Bft) NO 40 0 min 0,000 mm 0,0 UV-I 0 W/m 16,9 C 24,1 C 3,2 km/h (1 Bft) 100,00 %
10.07.2016 21:44 24,2 C 65 % 1010,1 hPa 0,0 l/m 0,0 km/h (0 Bft) NO 40 0 min 0,000 mm 0,0 UV-I 0 W/m 17,2 C 24,2 C 0,0 km/h (0 Bft) 100,00 %
10.07.2016 21:46 24,1 C 64 % 1010,1 hPa 0,0 l/m 0,7 km/h (0 Bft) NO 40 0 min 0,000 mm 0,0 UV-I 0 W/m 16,9 C 24,1 C 3,2 km/h (1 Bft) 100,00 %
10.07.2016 21:48 24,1 C 65 % 1010,1 hPa 0,0 l/m 1,7 km/h (1 Bft) NO 40 0 min 0,000 mm 0,0 UV-I 0 W/m 17,1 C 24,1 C 3,2 km/h (1 Bft) 97,62 %
10.07.2016 21:50 24,0 C 65 % 1010,1 hPa 0,0 l/m 0,3 km/h (0 Bft) NO 40 0 min 0,000 mm 0,0 UV-I 0 W/m 17,0 C 24,0 C 1,6 km/h (1 Bft) 100,00 %
10.07.2016 21:52 24,0 C 65 % 1010,1 hPa 0,0 l/m 0,5 km/h (0 Bft) NO 40 0 min 0,000 mm 0,0 UV-I 0 W/m 17,0 C 24,0 C 1,6 km/h (1 Bft) 100,00 %
10.07.2016 21:54 23,9 C 65 % 1010,1 hPa 0,0 l/m 0,0 km/h (0 Bft) NO 40 0 min 0,000 mm 0,0 UV-I 0 W/m 16,9 C 23,9 C 0,0 km/h (0 Bft) 100,00 %
10.07.2016 21:56 23,9 C 66 % 1010,1 hPa 0,0 l/m 0,0 km/h (0 Bft) NO 40 0 min 0,000 mm 0,0 UV-I 0 W/m 17,1 C 23,9 C 0,0 km/h (0 Bft) 100,00 %
10.07.2016 21:58 23,8 C 68 % 1010,1 hPa 0,0 l/m 0,0 km/h (0 Bft) NO 40 0 min 0,000 mm 0,0 UV-I 0 W/m 17,5 C 23,8 C 0,0 km/h (0 Bft) 100,00 %
10.07.2016 22:00 23,6 C 68 % 1010,1 hPa 0,0 l/m 0,0 km/h (0 Bft) NO 40 0 min 0,000 mm 0,0 UV-I 0 W/m 17,3 C 23,6 C 0,0 km/h (0 Bft) 100,00 %
10.07.2016 22:02 23,5 C 69 % 1010,1 hPa 0,0 l/m 0,0 km/h (0 Bft) NO 40 0 min 0,026 mm 0,0 UV-I 0 W/m 17,5 C 23,5 C 0,0 km/h (0 Bft) 100,00 %
10.07.2016 22:04 23,3 C 69 % 1010,1 hPa 0,0 l/m 0,0 km/h (0 Bft) NO 40 0 min 0,000 mm 0,0 UV-I 0 W/m 17,3 C 23,3 C 0,0 km/h (0 Bft) 100,00 %
10.07.2016 22:06 23,2 C 69 % 1010,2 hPa 0,0 l/m 0,0 km/h (0 Bft) NO 40 0 min 0,000 mm 0,0 UV-I 0 W/m 17,2 C 23,2 C 0,0 km/h (0 Bft) 100,00 %
10.07.2016 22:08 23,2 C 69 % 1010,2 hPa 0,0 l/m 0,0 km/h (0 Bft) NO 40 0 min 0,000 mm 0,0 UV-I 0 W/m 17,2 C 23,2 C 0,0 km/h (0 Bft) 100,00 %
10.07.2016 22:10 23,2 C 70 % 1010,2 hPa 0,0 l/m 0,0 km/h (0 Bft) NO 40 0 min 0,000 mm 0,0 UV-I 0 W/m 17,4 C 23,2 C 0,0 km/h (0 Bft) 100,00 %
10.07.2016 22:12 23,2 C 69 % 1010,2 hPa 0,0 l/m 0,0 km/h (0 Bft) NO 40 0 min 0,000 mm 0,0 UV-I 0 W/m 17,2 C 23,2 C 0,0 km/h (0 Bft) 100,00 %
10.07.2016 22:14 23,2 C 70 % 1010,2 hPa 0,0 l/m 0,0 km/h (0 Bft) NO 40 0 min 0,000 mm 0,0 UV-I 0 W/m 17,4 C 23,2 C 0,0 km/h (0 Bft) 100,00 %
10.07.2016 22:16 23,2 C 70 % 1010,2 hPa 0,0 l/m 1,7 km/h (1 Bft) NO 40 0 min 0,000 mm 0,0 UV-I 0 W/m 17,4 C 23,2 C 3,2 km/h (1 Bft) 100,00 %
10.07.2016 22:18 23,1 C 70 % 1010,3 hPa 0,0 l/m 2,4 km/h (1 Bft) NO 40 0 min 0,000 mm 0,0 UV-I 0 W/m 17,3 C 23,1 C 3,2 km/h (1 Bft) 100,00 %
10.07.2016 22:20 23,1 C 69 % 1010,3 hPa 0,0 l/m 3,0 km/h (1 Bft) NO 40 0 min 0,000 mm 0,0 UV-I 0 W/m 17,1 C 23,1 C 4,8 km/h (1 Bft) 100,00 %
10.07.2016 22:22 23,1 C 70 % 1010,3 hPa 0,0 l/m 2,9 km/h (1 Bft) NO 40 0 min 0,000 mm 0,0 UV-I 0 W/m 17,3 C 23,1 C 3,2 km/h (1 Bft) 100,00 %
10.07.2016 22:24 23,1 C 69 % 1010,3 hPa 0,0 l/m 2,1 km/h (1 Bft) NO 40 0 min 0,000 mm 0,0 UV-I 0 W/m 17,1 C 23,1 C 3,2 km/h (1 Bft) 100,00 %
10.07.2016 22:26 23,2 C 68 % 1010,2 hPa 0,0 l/m 2,7 km/h (1 Bft) NO 40 0 min 0,000 mm 0,0 UV-I 0 W/m 17,0 C 23,2 C 3,2 km/h (1 Bft) 97,37 %
10.07.2016 22:28 23,2 C 69 % 1010,2 hPa 0,0 l/m 1,8 km/h (1 Bft) NO 40 0 min 0,000 mm 0,0 UV-I 0 W/m 17,2 C 23,2 C 3,2 km/h (1 Bft) 100,00 %
10.07.2016 22:30 23,2 C 69 % 1010,2 hPa 0,0 l/m 1,2 km/h (1 Bft) NO 40 0 min 0,000 mm 0,0 UV-I 0 W/m 17,2 C 23,2 C 3,2 km/h (1 Bft) 100,00 %
10.07.2016 22:32 23,2 C 69 % 1010,2 hPa 0,0 l/m 1,8 km/h (1 Bft) NO 40 0 min 0,000 mm 0,0 UV-I 0 W/m 17,2 C 23,2 C 3,2 km/h (1 Bft) 100,00 %
10.07.2016 22:34 23,2 C 69 % 1010,2 hPa 0,0 l/m 2,0 km/h (1 Bft) NO 40 0 min 0,000 mm 0,0 UV-I 0 W/m 17,2 C 23,2 C 3,2 km/h (1 Bft) 100,00 %
10.07.2016 22:36 23,2 C 69 % 1010,2 hPa 0,0 l/m 1,4 km/h (1 Bft) NO 40 0 min 0,000 mm 0,0 UV-I 0 W/m 17,2 C 23,2 C 3,2 km/h (1 Bft) 97,87 %
10.07.2016 22:38 23,1 C 70 % 1010,2 hPa 0,0 l/m 0,5 km/h (0 Bft) NO 40 0 min 0,000 mm 0,0 UV-I 0 W/m 17,3 C 23,1 C 1,6 km/h (1 Bft) 100,00 %
10.07.2016 22:40 22,9 C 71 % 1010,2 hPa 0,0 l/m 0,5 km/h (0 Bft) NO 40 0 min 0,000 mm 0,0 UV-I 0 W/m 17,4 C 22,9 C 1,6 km/h (1 Bft) 98,11 %
10.07.2016 22:42 22,8 C 72 % 1010,2 hPa 0,0 l/m 0,1 km/h (0 Bft) NO 40 0 min 0,000 mm 0,0 UV-I 0 W/m 17,5 C 22,8 C 1,6 km/h (1 Bft) 100,00 %
10.07.2016 22:44 22,6 C 73 % 1010,2 hPa 0,0 l/m 0,0 km/h (0 Bft) NO 40 0 min 0,000 mm 0,0 UV-I 0 W/m 17,5 C 22,6 C 0,0 km/h (0 Bft) 98,00 %
10.07.2016 22:46 22,4 C 74 % 1010,2 hPa 0,0 l/m 0,0 km/h (0 Bft) NO 40 0 min 0,000 mm 0,0 UV-I 0 W/m 17,5 C 22,4 C 0,0 km/h (0 Bft) 100,00 %
10.07.2016 22:48 22,3 C 74 % 1010,2 hPa 0,0 l/m 0,1 km/h (0 Bft) NO 40 0 min 0,000 mm 0,0 UV-I 0 W/m 17,4 C 22,3 C 1,6 km/h (1 Bft) 95,74 %
10.07.2016 22:50 22,3 C 74 % 1010,2 hPa 0,0 l/m 2,2 km/h (1 Bft) NO 40 0 min 0,000 mm 0,0 UV-I 0 W/m 17,4 C 22,3 C 3,2 km/h (1 Bft) 97,73 %
10.07.2016 22:52 22,1 C 75 % 1010,1 hPa 0,0 l/m 3,5 km/h (1 Bft) O 94 0 min 0,000 mm 0,0 UV-I 0 W/m 17,5 C 22,1 C 4,8 km/h (1 Bft) 100,00 %
10.07.2016 22:54 21,8 C 76 % 1010,1 hPa 0,0 l/m 4,8 km/h (1 Bft) O-NO 77 0 min 0,000 mm 0,0 UV-I 0 W/m 17,4 C 21,8 C 6,4 km/h (2 Bft) 100,00 %
10.07.2016 22:56 21,7 C 76 % 1010,1 hPa 0,0 l/m 5,2 km/h (1 Bft) O 85 0 min 0,000 mm 0,0 UV-I 0 W/m 17,3 C 21,7 C 6,4 km/h (2 Bft) 100,00 %
10.07.2016 22:58 21,7 C 76 % 1010,0 hPa 0,0 l/m 5,6 km/h (1 Bft) O-NO 71 0 min 0,000 mm 0,0 UV-I 0 W/m 17,3 C 21,7 C 11,3 km/h (2 Bft) 100,00 %
10.07.2016 23:00 21,8 C 76 % 1010,1 hPa 0,0 l/m 5,4 km/h (1 Bft) O 90 0 min 0,000 mm 0,0 UV-I 0 W/m 17,4 C 21,8 C 8,0 km/h (2 Bft) 97,22 %
10.07.2016 23:02 21,9 C 75 % 1010,1 hPa 0,0 l/m 4,9 km/h (1 Bft) O 88 0 min 0,025 mm 0,0 UV-I 0 W/m 17,3 C 21,9 C 6,4 km/h (2 Bft) 96,36 %
10.07.2016 23:04 21,9 C 75 % 1010,1 hPa 0,0 l/m 6,2 km/h (2 Bft) O 83 0 min 0,000 mm 0,0 UV-I 0 W/m 17,3 C 21,9 C 11,3 km/h (2 Bft) 97,87 %
10.07.2016 23:06 22,1 C 74 % 1010,2 hPa 0,0 l/m 6,6 km/h (2 Bft) O-SO 111 0 min 0,000 mm 0,0 UV-I 0 W/m 17,2 C 22,0 C 11,3 km/h (2 Bft) 97,22 %
10.07.2016 23:08 22,3 C 73 % 1010,2 hPa 0,0 l/m 7,1 km/h (2 Bft) O-SO 119 0 min 0,000 mm 0,0 UV-I 0 W/m 17,2 C 22,1 C 11,3 km/h (2 Bft) 98,21 %
10.07.2016 23:10 22,6 C 73 % 1010,2 hPa 0,0 l/m 4,7 km/h (1 Bft) O-SO 114 0 min 0,000 mm 0,0 UV-I 0 W/m 17,5 C 22,6 C 6,4 km/h (2 Bft) 98,11 %
10.07.2016 23:12 22,7 C 72 % 1010,2 hPa 0,0 l/m 3,3 km/h (1 Bft) O-SO 115 0 min 0,000 mm 0,0 UV-I 0 W/m 17,4 C 22,7 C 4,8 km/h (1 Bft) 96,00 %
10.07.2016 23:14 22,7 C 72 % 1010,3 hPa 0,0 l/m 3,4 km/h (1 Bft) O-SO 115 0 min 0,000 mm 0,0 UV-I 0 W/m 17,4 C 22,7 C 6,4 km/h (2 Bft) 97,73 %
10.07.2016 23:16 22,7 C 72 % 1010,3 hPa 0,0 l/m 2,9 km/h (1 Bft) SO 138 0 min 0,000 mm 0,0 UV-I 0 W/m 17,4 C 22,7 C 6,4 km/h (2 Bft) 95,74 %
10.07.2016 23:18 22,6 C 73 % 1010,3 hPa 0,0 l/m 2,3 km/h (1 Bft) S-SO 157 0 min 0,000 mm 0,0 UV-I 0 W/m 17,5 C 22,6 C 4,8 km/h (1 Bft) 95,74 %
10.07.2016 23:20 22,3 C 74 % 1010,3 hPa 0,0 l/m 3,4 km/h (1 Bft) S-SW 204 0 min 0,000 mm 0,0 UV-I 0 W/m 17,4 C 22,3 C 6,4 km/h (2 Bft) 97,56 %
10.07.2016 23:22 22,1 C 75 % 1010,4 hPa 0,0 l/m 3,4 km/h (1 Bft) S-SW 207 0 min 0,000 mm 0,0 UV-I 0 W/m 17,5 C 22,1 C 4,8 km/h (1 Bft) 98,00 %
10.07.2016 23:24 21,9 C 75 % 1010,4 hPa 0,0 l/m 3,1 km/h (1 Bft) S-SW 208 0 min 0,000 mm 0,0 UV-I 0 W/m 17,3 C 21,9 C 4,8 km/h (1 Bft) 96,00 %
10.07.2016 23:26 21,8 C 76 % 1010,4 hPa 0,0 l/m 4,7 km/h (1 Bft) SW 220 0 min 0,000 mm 0,0 UV-I 0 W/m 17,4 C 21,8 C 6,4 km/h (2 Bft) 97,37 %
10.07.2016 23:28 21,6 C 77 % 1010,4 hPa 0,0 l/m 4,9 km/h (1 Bft) S-SW 212 0 min 0,000 mm 0,0 UV-I 0 W/m 17,4 C 21,6 C 6,4 km/h (2 Bft) 98,00 %
10.07.2016 23:30 21,5 C 78 % 1010,4 hPa 0,0 l/m 4,5 km/h (1 Bft) S-SW 207 0 min 0,000 mm 0,0 UV-I 0 W/m 17,5 C 21,5 C 6,4 km/h (2 Bft) 94,00 %
10.07.2016 23:32 21,4 C 77 % 1010,4 hPa 0,0 l/m 3,0 km/h (1 Bft) S-SW 206 0 min 0,000 mm 0,0 UV-I 0 W/m 17,2 C 21,4 C 4,8 km/h (1 Bft) 95,74 %
10.07.2016 23:34 21,5 C 78 % 1010,3 hPa 0,0 l/m 1,9 km/h (1 Bft) S-SW 206 0 min 0,000 mm 0,0 UV-I 0 W/m 17,5 C 21,5 C 3,2 km/h (1 Bft) 95,74 %
10.07.2016 23:36 21,5 C 78 % 1010,3 hPa 0,0 l/m 1,3 km/h (1 Bft) S-SW 206 0 min 0,000 mm 0,0 UV-I 0 W/m 17,5 C 21,5 C 3,2 km/h (1 Bft) 98,00 %
10.07.2016 23:38 21,4 C 78 % 1010,3 hPa 0,0 l/m 0,3 km/h (0 Bft) S-SW 206 0 min 0,000 mm 0,0 UV-I 0 W/m 17,4 C 21,4 C 1,6 km/h (1 Bft) 100,00 %
10.07.2016 23:40 21,4 C 78 % 1010,4 hPa 0,0 l/m 0,5 km/h (0 Bft) S-SW 206 0 min 0,000 mm 0,0 UV-I 0 W/m 17,4 C 21,4 C 1,6 km/h (1 Bft) 100,00 %
10.07.2016 23:42 21,4 C 78 % 1010,4 hPa 0,0 l/m 0,4 km/h (0 Bft) S-SW 206 0 min 0,000 mm 0,0 UV-I 0 W/m 17,4 C 21,4 C 1,6 km/h (1 Bft) 100,00 %
10.07.2016 23:44 21,4 C 78 % 1010,4 hPa 0,0 l/m 2,3 km/h (1 Bft) S-SW 205 0 min 0,000 mm 0,0 UV-I 0 W/m 17,4 C 21,4 C 4,8 km/h (1 Bft) 97,87 %
10.07.2016 23:46 21,5 C 78 % 1010,5 hPa 0,0 l/m 4,6 km/h (1 Bft) S 189 0 min 0,000 mm 0,0 UV-I 0 W/m 17,5 C 21,5 C 6,4 km/h (2 Bft) 100,00 %
10.07.2016 23:48 21,6 C 77 % 1010,5 hPa 0,0 l/m 4,0 km/h (1 Bft) SW 215 0 min 0,000 mm 0,0 UV-I 0 W/m 17,4 C 21,6 C 4,8 km/h (1 Bft) 100,00 %
10.07.2016 23:50 21,6 C 77 % 1010,5 hPa 0,0 l/m 4,0 km/h (1 Bft) S-SW 196 0 min 0,000 mm 0,0 UV-I 0 W/m 17,4 C 21,6 C 6,4 km/h (2 Bft) 100,00 %
10.07.2016 23:52 21,5 C 78 % 1010,6 hPa 0,0 l/m 3,9 km/h (1 Bft) SW 218 0 min 0,000 mm 0,0 UV-I 0 W/m 17,5 C 21,5 C 6,4 km/h (2 Bft) 100,00 %
10.07.2016 23:54 21,4 C 79 % 1010,7 hPa 0,0 l/m 6,9 km/h (2 Bft) W-SW 249 0 min 0,000 mm 0,0 UV-I 0 W/m 17,6 C 21,2 C 11,3 km/h (2 Bft) 100,00 %
10.07.2016 23:56 21,2 C 80 % 1010,9 hPa 0,0 l/m 6,1 km/h (2 Bft) W-SW 244 0 min 0,000 mm 0,0 UV-I 0 W/m 17,6 C 21,2 C 9,7 km/h (2 Bft) 98,00 %
10.07.2016 23:58 21,1 C 80 % 1011,1 hPa 0,0 l/m 6,3 km/h (2 Bft) W-SW 252 0 min 0,000 mm 0,0 UV-I 0 W/m 17,5 C 21,1 C 12,9 km/h (3 Bft) 100,00 %
_ Min-Zeit 04:16 15:00 21:22 - 02:48 - - - - - - 13:16 04:16 02:50 21:22
Minimum _ 16,8 C 42 % 1009,9 hPa - 0,0 km/h (0 Bft) - - - - - - 14,9 C 16,8 C 0,0 km/h (0 Bft) 91,43 %
_ Max-Zeit 16:28 06:26 00:02 00:00 18:02 - - 06:58 14:02 12:56 13:20 16:44 16:00 16:02 00:18
Maximum _ 30,4 C 91 % 1016,9 hPa 0,0 l/m 19,6 km/h
NO (3 Bft)
- - 2 min 0,635 mm 7,3 UV-I 875 W/m 18,6 C 29,8 C 29,0 km/h
O-NO (5 Bft)
100,00 %
Durchschnitt _ 23,7 C 67 % 1014,0 hPa #0,0 l/m 5,7 km/h (1 Bft) NO - #13:00 h #5,918 mm 4,0 UV-I 485 W/m 16,6 C 23,5 C 9,3 km/h (2 Bft) 98,68 %